<?xml version="1.0" encoding="UTF-8" standalone="no" ?>
<gpx xmlns="http://www.topografix.com/GPX/1/1" xmlns:xsi="http://www.w3.org/2001/XMLSchema-instance" xsi:schemaLocation="http://www.topografix.com/GPX/1/1 http://www.topografix.com/GPX/1/1/gpx.xsd" version="1.1" creator="VisuGPX - https://www.visugpx.com">
  <metadata>
    <name>flassans </name>
    <desc><![CDATA[saint quinis et thème]]></desc>
  </metadata>
  <trk>
    <name><![CDATA[Flassans 10 Août on GPSies.com]]></name>
    <trkseg>
      <trkpt lat="43.36005" lon="6.23395">
        <ele>290</ele>
        <time>2010-01-01T00:00:00Z</time>
      </trkpt>
      <trkpt lat="43.36004" lon="6.23395">
        <ele>290</ele>
        <time>2010-01-01T00:00:00Z</time>
      </trkpt>
      <trkpt lat="43.36004" lon="6.23394">
        <ele>290</ele>
        <time>2010-01-01T00:00:00Z</time>
      </trkpt>
      <trkpt lat="43.36014" lon="6.23378">
        <ele>289</ele>
        <time>2010-01-01T00:00:06Z</time>
      </trkpt>
      <trkpt lat="43.36028" lon="6.23363">
        <ele>289</ele>
        <time>2010-01-01T00:00:13Z</time>
      </trkpt>
      <trkpt lat="43.3605" lon="6.23358">
        <ele>289</ele>
        <time>2010-01-01T00:00:22Z</time>
      </trkpt>
      <trkpt lat="43.36101" lon="6.23373">
        <ele>289</ele>
        <time>2010-01-01T00:00:43Z</time>
      </trkpt>
      <trkpt lat="43.36116" lon="6.2338">
        <ele>288</ele>
        <time>2010-01-01T00:00:49Z</time>
      </trkpt>
      <trkpt lat="43.36126" lon="6.23379">
        <ele>288</ele>
        <time>2010-01-01T00:00:53Z</time>
      </trkpt>
      <trkpt lat="43.3614" lon="6.23366">
        <ele>289</ele>
        <time>2010-01-01T00:01:00Z</time>
      </trkpt>
      <trkpt lat="43.36143" lon="6.23359">
        <ele>289</ele>
        <time>2010-01-01T00:01:02Z</time>
      </trkpt>
      <trkpt lat="43.36151" lon="6.23348">
        <ele>289</ele>
        <time>2010-01-01T00:01:07Z</time>
      </trkpt>
      <trkpt lat="43.36172" lon="6.23347">
        <ele>288</ele>
        <time>2010-01-01T00:01:15Z</time>
      </trkpt>
      <trkpt lat="43.36213" lon="6.23349">
        <ele>288</ele>
        <time>2010-01-01T00:01:32Z</time>
      </trkpt>
      <trkpt lat="43.36234" lon="6.23349">
        <ele>288</ele>
        <time>2010-01-01T00:01:40Z</time>
      </trkpt>
      <trkpt lat="43.36259" lon="6.23332">
        <ele>288</ele>
        <time>2010-01-01T00:01:51Z</time>
      </trkpt>
      <trkpt lat="43.36263" lon="6.23327">
        <ele>288</ele>
        <time>2010-01-01T00:01:54Z</time>
      </trkpt>
      <trkpt lat="43.36285" lon="6.23302">
        <ele>287</ele>
        <time>2010-01-01T00:02:05Z</time>
      </trkpt>
      <trkpt lat="43.36299" lon="6.23293">
        <ele>287</ele>
        <time>2010-01-01T00:02:11Z</time>
      </trkpt>
      <trkpt lat="43.36309" lon="6.23287">
        <ele>287</ele>
        <time>2010-01-01T00:02:16Z</time>
      </trkpt>
      <trkpt lat="43.36321" lon="6.23282">
        <ele>287</ele>
        <time>2010-01-01T00:02:20Z</time>
      </trkpt>
      <trkpt lat="43.36332" lon="6.23279">
        <ele>288</ele>
        <time>2010-01-01T00:02:25Z</time>
      </trkpt>
      <trkpt lat="43.36338" lon="6.2328">
        <ele>285</ele>
        <time>2010-01-01T00:02:27Z</time>
      </trkpt>
      <trkpt lat="43.36344" lon="6.23281">
        <ele>285</ele>
        <time>2010-01-01T00:02:30Z</time>
      </trkpt>
      <trkpt lat="43.36357" lon="6.23286">
        <ele>284</ele>
        <time>2010-01-01T00:02:35Z</time>
      </trkpt>
      <trkpt lat="43.36372" lon="6.23292">
        <ele>284</ele>
        <time>2010-01-01T00:02:42Z</time>
      </trkpt>
      <trkpt lat="43.3638" lon="6.23294">
        <ele>283</ele>
        <time>2010-01-01T00:02:45Z</time>
      </trkpt>
      <trkpt lat="43.36388" lon="6.23296">
        <ele>283</ele>
        <time>2010-01-01T00:02:48Z</time>
      </trkpt>
      <trkpt lat="43.36396" lon="6.23292">
        <ele>283</ele>
        <time>2010-01-01T00:02:51Z</time>
      </trkpt>
      <trkpt lat="43.36409" lon="6.23282">
        <ele>284</ele>
        <time>2010-01-01T00:02:57Z</time>
      </trkpt>
      <trkpt lat="43.36414" lon="6.23275">
        <ele>284</ele>
        <time>2010-01-01T00:03:00Z</time>
      </trkpt>
      <trkpt lat="43.36425" lon="6.23262">
        <ele>286</ele>
        <time>2010-01-01T00:03:06Z</time>
      </trkpt>
      <trkpt lat="43.36438" lon="6.23248">
        <ele>288</ele>
        <time>2010-01-01T00:03:13Z</time>
      </trkpt>
      <trkpt lat="43.36444" lon="6.23247">
        <ele>289</ele>
        <time>2010-01-01T00:03:15Z</time>
      </trkpt>
      <trkpt lat="43.36456" lon="6.23251">
        <ele>287</ele>
        <time>2010-01-01T00:03:20Z</time>
      </trkpt>
      <trkpt lat="43.36458" lon="6.23253">
        <ele>287</ele>
        <time>2010-01-01T00:03:21Z</time>
      </trkpt>
      <trkpt lat="43.3646" lon="6.23255">
        <ele>287</ele>
        <time>2010-01-01T00:03:22Z</time>
      </trkpt>
      <trkpt lat="43.36463" lon="6.2326">
        <ele>287</ele>
        <time>2010-01-01T00:03:24Z</time>
      </trkpt>
      <trkpt lat="43.36466" lon="6.23262">
        <ele>288</ele>
        <time>2010-01-01T00:03:25Z</time>
      </trkpt>
      <trkpt lat="43.36471" lon="6.23265">
        <ele>288</ele>
        <time>2010-01-01T00:03:27Z</time>
      </trkpt>
      <trkpt lat="43.36477" lon="6.23268">
        <ele>288</ele>
        <time>2010-01-01T00:03:30Z</time>
      </trkpt>
      <trkpt lat="43.36479" lon="6.23267">
        <ele>288</ele>
        <time>2010-01-01T00:03:30Z</time>
      </trkpt>
      <trkpt lat="43.36481" lon="6.23266">
        <ele>289</ele>
        <time>2010-01-01T00:03:32Z</time>
      </trkpt>
      <trkpt lat="43.3649" lon="6.23264">
        <ele>290</ele>
        <time>2010-01-01T00:03:35Z</time>
      </trkpt>
      <trkpt lat="43.36496" lon="6.23264">
        <ele>290</ele>
        <time>2010-01-01T00:03:38Z</time>
      </trkpt>
      <trkpt lat="43.36504" lon="6.23265">
        <ele>292</ele>
        <time>2010-01-01T00:03:41Z</time>
      </trkpt>
      <trkpt lat="43.36516" lon="6.23265">
        <ele>292</ele>
        <time>2010-01-01T00:03:45Z</time>
      </trkpt>
      <trkpt lat="43.3653" lon="6.23269">
        <ele>292</ele>
        <time>2010-01-01T00:03:51Z</time>
      </trkpt>
      <trkpt lat="43.3654" lon="6.23267">
        <ele>292</ele>
        <time>2010-01-01T00:03:55Z</time>
      </trkpt>
      <trkpt lat="43.36547" lon="6.23269">
        <ele>292</ele>
        <time>2010-01-01T00:03:58Z</time>
      </trkpt>
      <trkpt lat="43.36568" lon="6.23267">
        <ele>293</ele>
        <time>2010-01-01T00:04:06Z</time>
      </trkpt>
      <trkpt lat="43.36583" lon="6.23256">
        <ele>295</ele>
        <time>2010-01-01T00:04:13Z</time>
      </trkpt>
      <trkpt lat="43.366" lon="6.23238">
        <ele>295</ele>
        <time>2010-01-01T00:04:22Z</time>
      </trkpt>
      <trkpt lat="43.36625" lon="6.23214">
        <ele>295</ele>
        <time>2010-01-01T00:04:34Z</time>
      </trkpt>
      <trkpt lat="43.36655" lon="6.23189">
        <ele>296</ele>
        <time>2010-01-01T00:04:48Z</time>
      </trkpt>
      <trkpt lat="43.36676" lon="6.2317">
        <ele>296</ele>
        <time>2010-01-01T00:04:58Z</time>
      </trkpt>
      <trkpt lat="43.3669" lon="6.23158">
        <ele>299</ele>
        <time>2010-01-01T00:05:05Z</time>
      </trkpt>
      <trkpt lat="43.36699" lon="6.23155">
        <ele>299</ele>
        <time>2010-01-01T00:05:09Z</time>
      </trkpt>
      <trkpt lat="43.36707" lon="6.23157">
        <ele>299</ele>
        <time>2010-01-01T00:05:12Z</time>
      </trkpt>
      <trkpt lat="43.36715" lon="6.23156">
        <ele>299</ele>
        <time>2010-01-01T00:05:15Z</time>
      </trkpt>
      <trkpt lat="43.36724" lon="6.23154">
        <ele>299</ele>
        <time>2010-01-01T00:05:19Z</time>
      </trkpt>
      <trkpt lat="43.36728" lon="6.23153">
        <ele>299</ele>
        <time>2010-01-01T00:05:20Z</time>
      </trkpt>
      <trkpt lat="43.36737" lon="6.2315">
        <ele>299</ele>
        <time>2010-01-01T00:05:24Z</time>
      </trkpt>
      <trkpt lat="43.36744" lon="6.23145">
        <ele>299</ele>
        <time>2010-01-01T00:05:27Z</time>
      </trkpt>
      <trkpt lat="43.3675" lon="6.2314">
        <ele>300</ele>
        <time>2010-01-01T00:05:30Z</time>
      </trkpt>
      <trkpt lat="43.36757" lon="6.23134">
        <ele>300</ele>
        <time>2010-01-01T00:05:33Z</time>
      </trkpt>
      <trkpt lat="43.3676" lon="6.23132">
        <ele>300</ele>
        <time>2010-01-01T00:05:35Z</time>
      </trkpt>
      <trkpt lat="43.36774" lon="6.23124">
        <ele>300</ele>
        <time>2010-01-01T00:05:41Z</time>
      </trkpt>
      <trkpt lat="43.36784" lon="6.23124">
        <ele>300</ele>
        <time>2010-01-01T00:05:45Z</time>
      </trkpt>
      <trkpt lat="43.3679" lon="6.23124">
        <ele>300</ele>
        <time>2010-01-01T00:05:47Z</time>
      </trkpt>
      <trkpt lat="43.36794" lon="6.23123">
        <ele>300</ele>
        <time>2010-01-01T00:05:49Z</time>
      </trkpt>
      <trkpt lat="43.368" lon="6.23121">
        <ele>300</ele>
        <time>2010-01-01T00:05:51Z</time>
      </trkpt>
      <trkpt lat="43.36803" lon="6.23117">
        <ele>299</ele>
        <time>2010-01-01T00:05:53Z</time>
      </trkpt>
      <trkpt lat="43.36807" lon="6.23112">
        <ele>299</ele>
        <time>2010-01-01T00:05:55Z</time>
      </trkpt>
      <trkpt lat="43.3681" lon="6.23109">
        <ele>299</ele>
        <time>2010-01-01T00:05:56Z</time>
      </trkpt>
      <trkpt lat="43.36814" lon="6.23105">
        <ele>299</ele>
        <time>2010-01-01T00:05:59Z</time>
      </trkpt>
      <trkpt lat="43.36817" lon="6.23101">
        <ele>299</ele>
        <time>2010-01-01T00:06:00Z</time>
      </trkpt>
      <trkpt lat="43.36823" lon="6.23096">
        <ele>298</ele>
        <time>2010-01-01T00:06:03Z</time>
      </trkpt>
      <trkpt lat="43.36826" lon="6.23094">
        <ele>298</ele>
        <time>2010-01-01T00:06:04Z</time>
      </trkpt>
      <trkpt lat="43.36831" lon="6.23091">
        <ele>297</ele>
        <time>2010-01-01T00:06:06Z</time>
      </trkpt>
      <trkpt lat="43.36835" lon="6.23091">
        <ele>296</ele>
        <time>2010-01-01T00:06:08Z</time>
      </trkpt>
      <trkpt lat="43.36843" lon="6.23085">
        <ele>296</ele>
        <time>2010-01-01T00:06:12Z</time>
      </trkpt>
      <trkpt lat="43.36847" lon="6.23083">
        <ele>294</ele>
        <time>2010-01-01T00:06:14Z</time>
      </trkpt>
      <trkpt lat="43.36852" lon="6.23077">
        <ele>294</ele>
        <time>2010-01-01T00:06:16Z</time>
      </trkpt>
      <trkpt lat="43.36855" lon="6.23073">
        <ele>293</ele>
        <time>2010-01-01T00:06:18Z</time>
      </trkpt>
      <trkpt lat="43.36864" lon="6.23064">
        <ele>292</ele>
        <time>2010-01-01T00:06:22Z</time>
      </trkpt>
      <trkpt lat="43.36869" lon="6.2306">
        <ele>292</ele>
        <time>2010-01-01T00:06:24Z</time>
      </trkpt>
      <trkpt lat="43.36872" lon="6.23057">
        <ele>292</ele>
        <time>2010-01-01T00:06:26Z</time>
      </trkpt>
      <trkpt lat="43.36877" lon="6.23051">
        <ele>291</ele>
        <time>2010-01-01T00:06:29Z</time>
      </trkpt>
      <trkpt lat="43.3688" lon="6.23048">
        <ele>291</ele>
        <time>2010-01-01T00:06:30Z</time>
      </trkpt>
      <trkpt lat="43.36887" lon="6.23042">
        <ele>290</ele>
        <time>2010-01-01T00:06:33Z</time>
      </trkpt>
      <trkpt lat="43.36889" lon="6.2304">
        <ele>290</ele>
        <time>2010-01-01T00:06:34Z</time>
      </trkpt>
      <trkpt lat="43.36895" lon="6.2304">
        <ele>290</ele>
        <time>2010-01-01T00:06:37Z</time>
      </trkpt>
      <trkpt lat="43.36899" lon="6.2304">
        <ele>289</ele>
        <time>2010-01-01T00:06:38Z</time>
      </trkpt>
      <trkpt lat="43.36907" lon="6.23037">
        <ele>289</ele>
        <time>2010-01-01T00:06:42Z</time>
      </trkpt>
      <trkpt lat="43.36914" lon="6.23033">
        <ele>288</ele>
        <time>2010-01-01T00:06:45Z</time>
      </trkpt>
      <trkpt lat="43.36918" lon="6.23031">
        <ele>280</ele>
        <time>2010-01-01T00:06:47Z</time>
      </trkpt>
      <trkpt lat="43.36923" lon="6.23026">
        <ele>280</ele>
        <time>2010-01-01T00:06:49Z</time>
      </trkpt>
      <trkpt lat="43.36926" lon="6.23025">
        <ele>280</ele>
        <time>2010-01-01T00:06:50Z</time>
      </trkpt>
      <trkpt lat="43.36936" lon="6.23022">
        <ele>279</ele>
        <time>2010-01-01T00:06:54Z</time>
      </trkpt>
      <trkpt lat="43.36939" lon="6.23017">
        <ele>279</ele>
        <time>2010-01-01T00:06:56Z</time>
      </trkpt>
      <trkpt lat="43.36943" lon="6.23011">
        <ele>279</ele>
        <time>2010-01-01T00:06:58Z</time>
      </trkpt>
      <trkpt lat="43.36951" lon="6.23007">
        <ele>278</ele>
        <time>2010-01-01T00:07:02Z</time>
      </trkpt>
      <trkpt lat="43.36953" lon="6.23007">
        <ele>278</ele>
        <time>2010-01-01T00:07:03Z</time>
      </trkpt>
      <trkpt lat="43.36957" lon="6.23009">
        <ele>277</ele>
        <time>2010-01-01T00:07:04Z</time>
      </trkpt>
      <trkpt lat="43.36963" lon="6.23008">
        <ele>277</ele>
        <time>2010-01-01T00:07:07Z</time>
      </trkpt>
      <trkpt lat="43.36964" lon="6.23006">
        <ele>277</ele>
        <time>2010-01-01T00:07:08Z</time>
      </trkpt>
      <trkpt lat="43.36966" lon="6.23006">
        <ele>276</ele>
        <time>2010-01-01T00:07:08Z</time>
      </trkpt>
      <trkpt lat="43.36966" lon="6.23006">
        <ele>276</ele>
        <time>2010-01-01T00:07:08Z</time>
      </trkpt>
      <trkpt lat="43.36967" lon="6.23005">
        <ele>276</ele>
        <time>2010-01-01T00:07:09Z</time>
      </trkpt>
      <trkpt lat="43.36969" lon="6.23004">
        <ele>276</ele>
        <time>2010-01-01T00:07:09Z</time>
      </trkpt>
      <trkpt lat="43.36971" lon="6.23003">
        <ele>276</ele>
        <time>2010-01-01T00:07:10Z</time>
      </trkpt>
      <trkpt lat="43.3697" lon="6.23003">
        <ele>276</ele>
        <time>2010-01-01T00:07:11Z</time>
      </trkpt>
      <trkpt lat="43.36972" lon="6.23006">
        <ele>276</ele>
        <time>2010-01-01T00:07:12Z</time>
      </trkpt>
      <trkpt lat="43.36993" lon="6.22993">
        <ele>270</ele>
        <time>2010-01-01T00:07:21Z</time>
      </trkpt>
      <trkpt lat="43.37006" lon="6.22987">
        <ele>268</ele>
        <time>2010-01-01T00:07:27Z</time>
      </trkpt>
      <trkpt lat="43.37013" lon="6.2295">
        <ele>266</ele>
        <time>2010-01-01T00:07:38Z</time>
      </trkpt>
      <trkpt lat="43.37013" lon="6.22936">
        <ele>265</ele>
        <time>2010-01-01T00:07:42Z</time>
      </trkpt>
      <trkpt lat="43.37013" lon="6.22908">
        <ele>261</ele>
        <time>2010-01-01T00:07:50Z</time>
      </trkpt>
      <trkpt lat="43.37014" lon="6.2288">
        <ele>260</ele>
        <time>2010-01-01T00:07:58Z</time>
      </trkpt>
      <trkpt lat="43.37014" lon="6.22851">
        <ele>259</ele>
        <time>2010-01-01T00:08:06Z</time>
      </trkpt>
      <trkpt lat="43.37015" lon="6.22837">
        <ele>258</ele>
        <time>2010-01-01T00:08:11Z</time>
      </trkpt>
      <trkpt lat="43.37017" lon="6.22823">
        <ele>256</ele>
        <time>2010-01-01T00:08:15Z</time>
      </trkpt>
      <trkpt lat="43.37019" lon="6.22808">
        <ele>256</ele>
        <time>2010-01-01T00:08:19Z</time>
      </trkpt>
      <trkpt lat="43.37024" lon="6.22781">
        <ele>256</ele>
        <time>2010-01-01T00:08:27Z</time>
      </trkpt>
      <trkpt lat="43.3703" lon="6.22755">
        <ele>256</ele>
        <time>2010-01-01T00:08:35Z</time>
      </trkpt>
      <trkpt lat="43.37035" lon="6.2273">
        <ele>252</ele>
        <time>2010-01-01T00:08:43Z</time>
      </trkpt>
      <trkpt lat="43.37038" lon="6.22704">
        <ele>251</ele>
        <time>2010-01-01T00:08:50Z</time>
      </trkpt>
      <trkpt lat="43.3704" lon="6.22678">
        <ele>250</ele>
        <time>2010-01-01T00:08:58Z</time>
      </trkpt>
      <trkpt lat="43.37039" lon="6.22653">
        <ele>246</ele>
        <time>2010-01-01T00:09:05Z</time>
      </trkpt>
      <trkpt lat="43.37038" lon="6.22626">
        <ele>245</ele>
        <time>2010-01-01T00:09:13Z</time>
      </trkpt>
      <trkpt lat="43.37036" lon="6.226">
        <ele>244</ele>
        <time>2010-01-01T00:09:21Z</time>
      </trkpt>
      <trkpt lat="43.37035" lon="6.22586">
        <ele>243</ele>
        <time>2010-01-01T00:09:25Z</time>
      </trkpt>
      <trkpt lat="43.37031" lon="6.22558">
        <ele>239</ele>
        <time>2010-01-01T00:09:33Z</time>
      </trkpt>
      <trkpt lat="43.37029" lon="6.22544">
        <ele>238</ele>
        <time>2010-01-01T00:09:37Z</time>
      </trkpt>
      <trkpt lat="43.37025" lon="6.22516">
        <ele>237</ele>
        <time>2010-01-01T00:09:46Z</time>
      </trkpt>
      <trkpt lat="43.37024" lon="6.22503">
        <ele>237</ele>
        <time>2010-01-01T00:09:49Z</time>
      </trkpt>
      <trkpt lat="43.37016" lon="6.2241">
        <ele>233</ele>
        <time>2010-01-01T00:10:17Z</time>
      </trkpt>
      <trkpt lat="43.37019" lon="6.22407">
        <ele>233</ele>
        <time>2010-01-01T00:10:18Z</time>
      </trkpt>
      <trkpt lat="43.3702" lon="6.22403">
        <ele>233</ele>
        <time>2010-01-01T00:10:20Z</time>
      </trkpt>
      <trkpt lat="43.3701" lon="6.22386">
        <ele>233</ele>
        <time>2010-01-01T00:10:26Z</time>
      </trkpt>
      <trkpt lat="43.37006" lon="6.22379">
        <ele>233</ele>
        <time>2010-01-01T00:10:29Z</time>
      </trkpt>
      <trkpt lat="43.36987" lon="6.22358">
        <ele>232</ele>
        <time>2010-01-01T00:10:38Z</time>
      </trkpt>
      <trkpt lat="43.36976" lon="6.22342">
        <ele>232</ele>
        <time>2010-01-01T00:10:45Z</time>
      </trkpt>
      <trkpt lat="43.36965" lon="6.22327">
        <ele>230</ele>
        <time>2010-01-01T00:10:51Z</time>
      </trkpt>
      <trkpt lat="43.36932" lon="6.22274">
        <ele>230</ele>
        <time>2010-01-01T00:11:11Z</time>
      </trkpt>
      <trkpt lat="43.36912" lon="6.22236">
        <ele>230</ele>
        <time>2010-01-01T00:11:25Z</time>
      </trkpt>
      <trkpt lat="43.36881" lon="6.22189">
        <ele>231</ele>
        <time>2010-01-01T00:11:43Z</time>
      </trkpt>
      <trkpt lat="43.36874" lon="6.22178">
        <ele>231</ele>
        <time>2010-01-01T00:11:48Z</time>
      </trkpt>
      <trkpt lat="43.36866" lon="6.22166">
        <ele>233</ele>
        <time>2010-01-01T00:11:52Z</time>
      </trkpt>
      <trkpt lat="43.36863" lon="6.22161">
        <ele>233</ele>
        <time>2010-01-01T00:11:54Z</time>
      </trkpt>
      <trkpt lat="43.36856" lon="6.22151">
        <ele>233</ele>
        <time>2010-01-01T00:11:58Z</time>
      </trkpt>
      <trkpt lat="43.3685" lon="6.22141">
        <ele>233</ele>
        <time>2010-01-01T00:12:02Z</time>
      </trkpt>
      <trkpt lat="43.36843" lon="6.22131">
        <ele>233</ele>
        <time>2010-01-01T00:12:06Z</time>
      </trkpt>
      <trkpt lat="43.36837" lon="6.22122">
        <ele>234</ele>
        <time>2010-01-01T00:12:10Z</time>
      </trkpt>
      <trkpt lat="43.36829" lon="6.22109">
        <ele>234</ele>
        <time>2010-01-01T00:12:15Z</time>
      </trkpt>
      <trkpt lat="43.36826" lon="6.22099">
        <ele>235</ele>
        <time>2010-01-01T00:12:18Z</time>
      </trkpt>
      <trkpt lat="43.36826" lon="6.22094">
        <ele>235</ele>
        <time>2010-01-01T00:12:19Z</time>
      </trkpt>
      <trkpt lat="43.36829" lon="6.22078">
        <ele>236</ele>
        <time>2010-01-01T00:12:24Z</time>
      </trkpt>
      <trkpt lat="43.36832" lon="6.22069">
        <ele>236</ele>
        <time>2010-01-01T00:12:27Z</time>
      </trkpt>
      <trkpt lat="43.36832" lon="6.22061">
        <ele>236</ele>
        <time>2010-01-01T00:12:29Z</time>
      </trkpt>
      <trkpt lat="43.36834" lon="6.22056">
        <ele>236</ele>
        <time>2010-01-01T00:12:31Z</time>
      </trkpt>
      <trkpt lat="43.36839" lon="6.2205">
        <ele>235</ele>
        <time>2010-01-01T00:12:34Z</time>
      </trkpt>
      <trkpt lat="43.36845" lon="6.22044">
        <ele>235</ele>
        <time>2010-01-01T00:12:36Z</time>
      </trkpt>
      <trkpt lat="43.36848" lon="6.22037">
        <ele>235</ele>
        <time>2010-01-01T00:12:39Z</time>
      </trkpt>
      <trkpt lat="43.36846" lon="6.22025">
        <ele>236</ele>
        <time>2010-01-01T00:12:42Z</time>
      </trkpt>
      <trkpt lat="43.36842" lon="6.22018">
        <ele>237</ele>
        <time>2010-01-01T00:12:45Z</time>
      </trkpt>
      <trkpt lat="43.36828" lon="6.22002">
        <ele>239</ele>
        <time>2010-01-01T00:12:52Z</time>
      </trkpt>
      <trkpt lat="43.3682" lon="6.21991">
        <ele>238</ele>
        <time>2010-01-01T00:12:57Z</time>
      </trkpt>
      <trkpt lat="43.36813" lon="6.21977">
        <ele>238</ele>
        <time>2010-01-01T00:13:02Z</time>
      </trkpt>
      <trkpt lat="43.3681" lon="6.21971">
        <ele>238</ele>
        <time>2010-01-01T00:13:04Z</time>
      </trkpt>
      <trkpt lat="43.36803" lon="6.21959">
        <ele>237</ele>
        <time>2010-01-01T00:13:08Z</time>
      </trkpt>
      <trkpt lat="43.36798" lon="6.21948">
        <ele>237</ele>
        <time>2010-01-01T00:13:12Z</time>
      </trkpt>
      <trkpt lat="43.36792" lon="6.21936">
        <ele>237</ele>
        <time>2010-01-01T00:13:16Z</time>
      </trkpt>
      <trkpt lat="43.36785" lon="6.21926">
        <ele>237</ele>
        <time>2010-01-01T00:13:20Z</time>
      </trkpt>
      <trkpt lat="43.36754" lon="6.21866">
        <ele>238</ele>
        <time>2010-01-01T00:13:42Z</time>
      </trkpt>
      <trkpt lat="43.36749" lon="6.21852">
        <ele>234</ele>
        <time>2010-01-01T00:13:46Z</time>
      </trkpt>
      <trkpt lat="43.36747" lon="6.21844">
        <ele>235</ele>
        <time>2010-01-01T00:13:49Z</time>
      </trkpt>
      <trkpt lat="43.36744" lon="6.21835">
        <ele>235</ele>
        <time>2010-01-01T00:13:52Z</time>
      </trkpt>
      <trkpt lat="43.3674" lon="6.21817">
        <ele>235</ele>
        <time>2010-01-01T00:13:57Z</time>
      </trkpt>
      <trkpt lat="43.36737" lon="6.21808">
        <ele>235</ele>
        <time>2010-01-01T00:14:00Z</time>
      </trkpt>
      <trkpt lat="43.36734" lon="6.2179">
        <ele>235</ele>
        <time>2010-01-01T00:14:05Z</time>
      </trkpt>
      <trkpt lat="43.36731" lon="6.21771">
        <ele>235</ele>
        <time>2010-01-01T00:14:11Z</time>
      </trkpt>
      <trkpt lat="43.36726" lon="6.21752">
        <ele>235</ele>
        <time>2010-01-01T00:14:17Z</time>
      </trkpt>
      <trkpt lat="43.36721" lon="6.21735">
        <ele>235</ele>
        <time>2010-01-01T00:14:22Z</time>
      </trkpt>
      <trkpt lat="43.36718" lon="6.21719">
        <ele>235</ele>
        <time>2010-01-01T00:14:27Z</time>
      </trkpt>
      <trkpt lat="43.36715" lon="6.21703">
        <ele>235</ele>
        <time>2010-01-01T00:14:32Z</time>
      </trkpt>
      <trkpt lat="43.36712" lon="6.21687">
        <ele>235</ele>
        <time>2010-01-01T00:14:37Z</time>
      </trkpt>
      <trkpt lat="43.36709" lon="6.21672">
        <ele>235</ele>
        <time>2010-01-01T00:14:41Z</time>
      </trkpt>
      <trkpt lat="43.36705" lon="6.21656">
        <ele>235</ele>
        <time>2010-01-01T00:14:46Z</time>
      </trkpt>
      <trkpt lat="43.36701" lon="6.21641">
        <ele>235</ele>
        <time>2010-01-01T00:14:50Z</time>
      </trkpt>
      <trkpt lat="43.3669" lon="6.21583">
        <ele>235</ele>
        <time>2010-01-01T00:15:08Z</time>
      </trkpt>
      <trkpt lat="43.36673" lon="6.2152">
        <ele>236</ele>
        <time>2010-01-01T00:15:28Z</time>
      </trkpt>
      <trkpt lat="43.36658" lon="6.21454">
        <ele>233</ele>
        <time>2010-01-01T00:15:48Z</time>
      </trkpt>
      <trkpt lat="43.36645" lon="6.214">
        <ele>234</ele>
        <time>2010-01-01T00:16:04Z</time>
      </trkpt>
      <trkpt lat="43.36635" lon="6.21357">
        <ele>234</ele>
        <time>2010-01-01T00:16:17Z</time>
      </trkpt>
      <trkpt lat="43.36632" lon="6.21343">
        <ele>234</ele>
        <time>2010-01-01T00:16:22Z</time>
      </trkpt>
      <trkpt lat="43.3663" lon="6.21334">
        <ele>234</ele>
        <time>2010-01-01T00:16:24Z</time>
      </trkpt>
      <trkpt lat="43.36627" lon="6.21322">
        <ele>234</ele>
        <time>2010-01-01T00:16:28Z</time>
      </trkpt>
      <trkpt lat="43.36624" lon="6.2131">
        <ele>234</ele>
        <time>2010-01-01T00:16:32Z</time>
      </trkpt>
      <trkpt lat="43.36612" lon="6.21265">
        <ele>233</ele>
        <time>2010-01-01T00:16:46Z</time>
      </trkpt>
      <trkpt lat="43.3661" lon="6.21259">
        <ele>232</ele>
        <time>2010-01-01T00:16:48Z</time>
      </trkpt>
      <trkpt lat="43.36606" lon="6.21243">
        <ele>233</ele>
        <time>2010-01-01T00:16:53Z</time>
      </trkpt>
      <trkpt lat="43.36604" lon="6.21232">
        <ele>233</ele>
        <time>2010-01-01T00:16:56Z</time>
      </trkpt>
      <trkpt lat="43.36602" lon="6.21221">
        <ele>233</ele>
        <time>2010-01-01T00:16:59Z</time>
      </trkpt>
      <trkpt lat="43.36599" lon="6.21212">
        <ele>233</ele>
        <time>2010-01-01T00:17:02Z</time>
      </trkpt>
      <trkpt lat="43.36596" lon="6.21202">
        <ele>234</ele>
        <time>2010-01-01T00:17:05Z</time>
      </trkpt>
      <trkpt lat="43.36588" lon="6.21168">
        <ele>235</ele>
        <time>2010-01-01T00:17:16Z</time>
      </trkpt>
      <trkpt lat="43.36587" lon="6.21163">
        <ele>236</ele>
        <time>2010-01-01T00:17:17Z</time>
      </trkpt>
      <trkpt lat="43.36584" lon="6.21153">
        <ele>236</ele>
        <time>2010-01-01T00:17:20Z</time>
      </trkpt>
      <trkpt lat="43.36582" lon="6.21143">
        <ele>240</ele>
        <time>2010-01-01T00:17:23Z</time>
      </trkpt>
      <trkpt lat="43.3658" lon="6.21133">
        <ele>242</ele>
        <time>2010-01-01T00:17:26Z</time>
      </trkpt>
      <trkpt lat="43.36578" lon="6.21124">
        <ele>242</ele>
        <time>2010-01-01T00:17:29Z</time>
      </trkpt>
      <trkpt lat="43.36575" lon="6.21111">
        <ele>243</ele>
        <time>2010-01-01T00:17:33Z</time>
      </trkpt>
      <trkpt lat="43.36573" lon="6.21102">
        <ele>244</ele>
        <time>2010-01-01T00:17:36Z</time>
      </trkpt>
      <trkpt lat="43.36571" lon="6.21094">
        <ele>244</ele>
        <time>2010-01-01T00:17:38Z</time>
      </trkpt>
      <trkpt lat="43.36569" lon="6.21085">
        <ele>244</ele>
        <time>2010-01-01T00:17:41Z</time>
      </trkpt>
      <trkpt lat="43.36568" lon="6.21078">
        <ele>248</ele>
        <time>2010-01-01T00:17:43Z</time>
      </trkpt>
      <trkpt lat="43.36567" lon="6.21067">
        <ele>248</ele>
        <time>2010-01-01T00:17:46Z</time>
      </trkpt>
      <trkpt lat="43.36568" lon="6.2106">
        <ele>249</ele>
        <time>2010-01-01T00:17:48Z</time>
      </trkpt>
      <trkpt lat="43.36567" lon="6.21053">
        <ele>250</ele>
        <time>2010-01-01T00:17:50Z</time>
      </trkpt>
      <trkpt lat="43.36567" lon="6.21047">
        <ele>250</ele>
        <time>2010-01-01T00:17:52Z</time>
      </trkpt>
      <trkpt lat="43.36566" lon="6.21041">
        <ele>250</ele>
        <time>2010-01-01T00:17:54Z</time>
      </trkpt>
      <trkpt lat="43.3657" lon="6.21018">
        <ele>250</ele>
        <time>2010-01-01T00:18:01Z</time>
      </trkpt>
      <trkpt lat="43.3657" lon="6.21014">
        <ele>250</ele>
        <time>2010-01-01T00:18:02Z</time>
      </trkpt>
      <trkpt lat="43.36571" lon="6.21005">
        <ele>250</ele>
        <time>2010-01-01T00:18:04Z</time>
      </trkpt>
      <trkpt lat="43.3657" lon="6.20996">
        <ele>252</ele>
        <time>2010-01-01T00:18:07Z</time>
      </trkpt>
      <trkpt lat="43.36569" lon="6.20984">
        <ele>252</ele>
        <time>2010-01-01T00:18:11Z</time>
      </trkpt>
      <trkpt lat="43.3657" lon="6.20977">
        <ele>253</ele>
        <time>2010-01-01T00:18:13Z</time>
      </trkpt>
      <trkpt lat="43.36573" lon="6.20945">
        <ele>254</ele>
        <time>2010-01-01T00:18:22Z</time>
      </trkpt>
      <trkpt lat="43.36574" lon="6.20937">
        <ele>254</ele>
        <time>2010-01-01T00:18:25Z</time>
      </trkpt>
      <trkpt lat="43.36575" lon="6.20929">
        <ele>253</ele>
        <time>2010-01-01T00:18:27Z</time>
      </trkpt>
      <trkpt lat="43.36577" lon="6.2092">
        <ele>253</ele>
        <time>2010-01-01T00:18:30Z</time>
      </trkpt>
      <trkpt lat="43.36581" lon="6.20911">
        <ele>252</ele>
        <time>2010-01-01T00:18:33Z</time>
      </trkpt>
      <trkpt lat="43.36582" lon="6.20882">
        <ele>253</ele>
        <time>2010-01-01T00:18:41Z</time>
      </trkpt>
      <trkpt lat="43.3658" lon="6.20872">
        <ele>253</ele>
        <time>2010-01-01T00:18:44Z</time>
      </trkpt>
      <trkpt lat="43.36577" lon="6.20863">
        <ele>252</ele>
        <time>2010-01-01T00:18:47Z</time>
      </trkpt>
      <trkpt lat="43.36575" lon="6.20854">
        <ele>252</ele>
        <time>2010-01-01T00:18:50Z</time>
      </trkpt>
      <trkpt lat="43.36574" lon="6.20847">
        <ele>251</ele>
        <time>2010-01-01T00:18:52Z</time>
      </trkpt>
      <trkpt lat="43.36571" lon="6.20826">
        <ele>249</ele>
        <time>2010-01-01T00:18:58Z</time>
      </trkpt>
      <trkpt lat="43.36569" lon="6.20818">
        <ele>249</ele>
        <time>2010-01-01T00:19:01Z</time>
      </trkpt>
      <trkpt lat="43.36568" lon="6.20811">
        <ele>250</ele>
        <time>2010-01-01T00:19:03Z</time>
      </trkpt>
      <trkpt lat="43.36567" lon="6.20804">
        <ele>250</ele>
        <time>2010-01-01T00:19:05Z</time>
      </trkpt>
      <trkpt lat="43.36566" lon="6.20797">
        <ele>250</ele>
        <time>2010-01-01T00:19:07Z</time>
      </trkpt>
      <trkpt lat="43.36557" lon="6.20764">
        <ele>249</ele>
        <time>2010-01-01T00:19:17Z</time>
      </trkpt>
      <trkpt lat="43.36555" lon="6.20746">
        <ele>248</ele>
        <time>2010-01-01T00:19:22Z</time>
      </trkpt>
      <trkpt lat="43.36553" lon="6.2074">
        <ele>248</ele>
        <time>2010-01-01T00:19:24Z</time>
      </trkpt>
      <trkpt lat="43.36551" lon="6.20731">
        <ele>249</ele>
        <time>2010-01-01T00:19:27Z</time>
      </trkpt>
      <trkpt lat="43.36548" lon="6.20722">
        <ele>249</ele>
        <time>2010-01-01T00:19:30Z</time>
      </trkpt>
      <trkpt lat="43.36546" lon="6.20713">
        <ele>249</ele>
        <time>2010-01-01T00:19:33Z</time>
      </trkpt>
      <trkpt lat="43.36538" lon="6.20684">
        <ele>250</ele>
        <time>2010-01-01T00:19:42Z</time>
      </trkpt>
      <trkpt lat="43.36536" lon="6.20674">
        <ele>250</ele>
        <time>2010-01-01T00:19:45Z</time>
      </trkpt>
      <trkpt lat="43.36536" lon="6.20664">
        <ele>250</ele>
        <time>2010-01-01T00:19:47Z</time>
      </trkpt>
      <trkpt lat="43.36536" lon="6.20655">
        <ele>250</ele>
        <time>2010-01-01T00:19:50Z</time>
      </trkpt>
      <trkpt lat="43.36538" lon="6.20646">
        <ele>250</ele>
        <time>2010-01-01T00:19:53Z</time>
      </trkpt>
      <trkpt lat="43.36538" lon="6.20614">
        <ele>250</ele>
        <time>2010-01-01T00:20:02Z</time>
      </trkpt>
      <trkpt lat="43.36536" lon="6.20575">
        <ele>249</ele>
        <time>2010-01-01T00:20:14Z</time>
      </trkpt>
      <trkpt lat="43.36533" lon="6.20518">
        <ele>249</ele>
        <time>2010-01-01T00:20:30Z</time>
      </trkpt>
      <trkpt lat="43.36536" lon="6.20457">
        <ele>250</ele>
        <time>2010-01-01T00:20:48Z</time>
      </trkpt>
      <trkpt lat="43.36533" lon="6.20407">
        <ele>251</ele>
        <time>2010-01-01T00:21:03Z</time>
      </trkpt>
      <trkpt lat="43.36533" lon="6.20392">
        <ele>251</ele>
        <time>2010-01-01T00:21:07Z</time>
      </trkpt>
      <trkpt lat="43.36533" lon="6.20377">
        <ele>251</ele>
        <time>2010-01-01T00:21:11Z</time>
      </trkpt>
      <trkpt lat="43.36533" lon="6.20364">
        <ele>251</ele>
        <time>2010-01-01T00:21:15Z</time>
      </trkpt>
      <trkpt lat="43.36534" lon="6.20353">
        <ele>251</ele>
        <time>2010-01-01T00:21:18Z</time>
      </trkpt>
      <trkpt lat="43.3654" lon="6.20334">
        <ele>251</ele>
        <time>2010-01-01T00:21:24Z</time>
      </trkpt>
      <trkpt lat="43.36542" lon="6.2033">
        <ele>252</ele>
        <time>2010-01-01T00:21:26Z</time>
      </trkpt>
      <trkpt lat="43.36559" lon="6.20329">
        <ele>251</ele>
        <time>2010-01-01T00:21:33Z</time>
      </trkpt>
      <trkpt lat="43.36596" lon="6.20337">
        <ele>248</ele>
        <time>2010-01-01T00:21:47Z</time>
      </trkpt>
      <trkpt lat="43.36607" lon="6.20338">
        <ele>249</ele>
        <time>2010-01-01T00:21:52Z</time>
      </trkpt>
      <trkpt lat="43.36635" lon="6.20333">
        <ele>252</ele>
        <time>2010-01-01T00:22:03Z</time>
      </trkpt>
      <trkpt lat="43.36665" lon="6.20306">
        <ele>253</ele>
        <time>2010-01-01T00:22:18Z</time>
      </trkpt>
      <trkpt lat="43.36673" lon="6.20298">
        <ele>257</ele>
        <time>2010-01-01T00:22:21Z</time>
      </trkpt>
      <trkpt lat="43.36701" lon="6.20266">
        <ele>258</ele>
        <time>2010-01-01T00:22:36Z</time>
      </trkpt>
      <trkpt lat="43.36724" lon="6.20251">
        <ele>258</ele>
        <time>2010-01-01T00:22:46Z</time>
      </trkpt>
      <trkpt lat="43.3673" lon="6.20248">
        <ele>259</ele>
        <time>2010-01-01T00:22:49Z</time>
      </trkpt>
      <trkpt lat="43.36736" lon="6.20244">
        <ele>259</ele>
        <time>2010-01-01T00:22:51Z</time>
      </trkpt>
      <trkpt lat="43.36741" lon="6.20239">
        <ele>259</ele>
        <time>2010-01-01T00:22:54Z</time>
      </trkpt>
      <trkpt lat="43.36747" lon="6.20235">
        <ele>259</ele>
        <time>2010-01-01T00:22:56Z</time>
      </trkpt>
      <trkpt lat="43.36758" lon="6.20226">
        <ele>258</ele>
        <time>2010-01-01T00:23:02Z</time>
      </trkpt>
      <trkpt lat="43.36765" lon="6.20222">
        <ele>259</ele>
        <time>2010-01-01T00:23:04Z</time>
      </trkpt>
      <trkpt lat="43.36768" lon="6.20217">
        <ele>259</ele>
        <time>2010-01-01T00:23:06Z</time>
      </trkpt>
      <trkpt lat="43.36771" lon="6.20211">
        <ele>259</ele>
        <time>2010-01-01T00:23:09Z</time>
      </trkpt>
      <trkpt lat="43.36772" lon="6.20207">
        <ele>259</ele>
        <time>2010-01-01T00:23:10Z</time>
      </trkpt>
      <trkpt lat="43.36766" lon="6.20199">
        <ele>259</ele>
        <time>2010-01-01T00:23:13Z</time>
      </trkpt>
      <trkpt lat="43.36765" lon="6.20198">
        <ele>259</ele>
        <time>2010-01-01T00:23:14Z</time>
      </trkpt>
      <trkpt lat="43.36765" lon="6.20194">
        <ele>259</ele>
        <time>2010-01-01T00:23:15Z</time>
      </trkpt>
      <trkpt lat="43.36762" lon="6.20191">
        <ele>259</ele>
        <time>2010-01-01T00:23:16Z</time>
      </trkpt>
      <trkpt lat="43.36761" lon="6.20188">
        <ele>259</ele>
        <time>2010-01-01T00:23:17Z</time>
      </trkpt>
      <trkpt lat="43.3676" lon="6.20185">
        <ele>260</ele>
        <time>2010-01-01T00:23:18Z</time>
      </trkpt>
      <trkpt lat="43.36759" lon="6.2018">
        <ele>260</ele>
        <time>2010-01-01T00:23:19Z</time>
      </trkpt>
      <trkpt lat="43.3676" lon="6.20177">
        <ele>260</ele>
        <time>2010-01-01T00:23:21Z</time>
      </trkpt>
      <trkpt lat="43.3676" lon="6.20173">
        <ele>260</ele>
        <time>2010-01-01T00:23:22Z</time>
      </trkpt>
      <trkpt lat="43.3676" lon="6.20169">
        <ele>260</ele>
        <time>2010-01-01T00:23:23Z</time>
      </trkpt>
      <trkpt lat="43.36759" lon="6.20161">
        <ele>260</ele>
        <time>2010-01-01T00:23:25Z</time>
      </trkpt>
      <trkpt lat="43.36759" lon="6.20158">
        <ele>260</ele>
        <time>2010-01-01T00:23:26Z</time>
      </trkpt>
      <trkpt lat="43.36759" lon="6.20154">
        <ele>260</ele>
        <time>2010-01-01T00:23:27Z</time>
      </trkpt>
      <trkpt lat="43.36758" lon="6.20149">
        <ele>260</ele>
        <time>2010-01-01T00:23:29Z</time>
      </trkpt>
      <trkpt lat="43.36757" lon="6.20145">
        <ele>260</ele>
        <time>2010-01-01T00:23:30Z</time>
      </trkpt>
      <trkpt lat="43.36757" lon="6.20142">
        <ele>260</ele>
        <time>2010-01-01T00:23:31Z</time>
      </trkpt>
      <trkpt lat="43.36756" lon="6.20137">
        <ele>260</ele>
        <time>2010-01-01T00:23:32Z</time>
      </trkpt>
      <trkpt lat="43.36755" lon="6.20132">
        <ele>260</ele>
        <time>2010-01-01T00:23:34Z</time>
      </trkpt>
      <trkpt lat="43.36755" lon="6.20127">
        <ele>260</ele>
        <time>2010-01-01T00:23:35Z</time>
      </trkpt>
      <trkpt lat="43.36755" lon="6.20123">
        <ele>260</ele>
        <time>2010-01-01T00:23:36Z</time>
      </trkpt>
      <trkpt lat="43.36755" lon="6.20119">
        <ele>260</ele>
        <time>2010-01-01T00:23:38Z</time>
      </trkpt>
      <trkpt lat="43.36756" lon="6.20115">
        <ele>261</ele>
        <time>2010-01-01T00:23:39Z</time>
      </trkpt>
      <trkpt lat="43.36755" lon="6.2011">
        <ele>261</ele>
        <time>2010-01-01T00:23:40Z</time>
      </trkpt>
      <trkpt lat="43.36755" lon="6.20106">
        <ele>261</ele>
        <time>2010-01-01T00:23:41Z</time>
      </trkpt>
      <trkpt lat="43.36755" lon="6.20101">
        <ele>261</ele>
        <time>2010-01-01T00:23:43Z</time>
      </trkpt>
      <trkpt lat="43.36756" lon="6.20086">
        <ele>263</ele>
        <time>2010-01-01T00:23:47Z</time>
      </trkpt>
      <trkpt lat="43.36753" lon="6.20064">
        <ele>262</ele>
        <time>2010-01-01T00:23:54Z</time>
      </trkpt>
      <trkpt lat="43.36753" lon="6.20057">
        <ele>262</ele>
        <time>2010-01-01T00:23:56Z</time>
      </trkpt>
      <trkpt lat="43.36752" lon="6.20051">
        <ele>262</ele>
        <time>2010-01-01T00:23:58Z</time>
      </trkpt>
      <trkpt lat="43.36751" lon="6.20046">
        <ele>262</ele>
        <time>2010-01-01T00:23:59Z</time>
      </trkpt>
      <trkpt lat="43.3675" lon="6.20041">
        <ele>265</ele>
        <time>2010-01-01T00:24:01Z</time>
      </trkpt>
      <trkpt lat="43.3675" lon="6.20018">
        <ele>266</ele>
        <time>2010-01-01T00:24:07Z</time>
      </trkpt>
      <trkpt lat="43.36752" lon="6.2001">
        <ele>266</ele>
        <time>2010-01-01T00:24:10Z</time>
      </trkpt>
      <trkpt lat="43.36753" lon="6.20005">
        <ele>267</ele>
        <time>2010-01-01T00:24:11Z</time>
      </trkpt>
      <trkpt lat="43.36754" lon="6.2">
        <ele>267</ele>
        <time>2010-01-01T00:24:13Z</time>
      </trkpt>
      <trkpt lat="43.36754" lon="6.19993">
        <ele>267</ele>
        <time>2010-01-01T00:24:15Z</time>
      </trkpt>
      <trkpt lat="43.36753" lon="6.19988">
        <ele>267</ele>
        <time>2010-01-01T00:24:16Z</time>
      </trkpt>
      <trkpt lat="43.36753" lon="6.19982">
        <ele>266</ele>
        <time>2010-01-01T00:24:18Z</time>
      </trkpt>
      <trkpt lat="43.36751" lon="6.19975">
        <ele>266</ele>
        <time>2010-01-01T00:24:20Z</time>
      </trkpt>
      <trkpt lat="43.3675" lon="6.19971">
        <ele>268</ele>
        <time>2010-01-01T00:24:22Z</time>
      </trkpt>
      <trkpt lat="43.3675" lon="6.19966">
        <ele>268</ele>
        <time>2010-01-01T00:24:23Z</time>
      </trkpt>
      <trkpt lat="43.3675" lon="6.19962">
        <ele>268</ele>
        <time>2010-01-01T00:24:24Z</time>
      </trkpt>
      <trkpt lat="43.36747" lon="6.19948">
        <ele>268</ele>
        <time>2010-01-01T00:24:28Z</time>
      </trkpt>
      <trkpt lat="43.36746" lon="6.19943">
        <ele>269</ele>
        <time>2010-01-01T00:24:30Z</time>
      </trkpt>
      <trkpt lat="43.36746" lon="6.19938">
        <ele>269</ele>
        <time>2010-01-01T00:24:31Z</time>
      </trkpt>
      <trkpt lat="43.36745" lon="6.19933">
        <ele>269</ele>
        <time>2010-01-01T00:24:33Z</time>
      </trkpt>
      <trkpt lat="43.36744" lon="6.19927">
        <ele>270</ele>
        <time>2010-01-01T00:24:34Z</time>
      </trkpt>
      <trkpt lat="43.36742" lon="6.19918">
        <ele>270</ele>
        <time>2010-01-01T00:24:37Z</time>
      </trkpt>
      <trkpt lat="43.36741" lon="6.19913">
        <ele>271</ele>
        <time>2010-01-01T00:24:39Z</time>
      </trkpt>
      <trkpt lat="43.3674" lon="6.19906">
        <ele>271</ele>
        <time>2010-01-01T00:24:41Z</time>
      </trkpt>
      <trkpt lat="43.36739" lon="6.19903">
        <ele>271</ele>
        <time>2010-01-01T00:24:42Z</time>
      </trkpt>
      <trkpt lat="43.36739" lon="6.19896">
        <ele>271</ele>
        <time>2010-01-01T00:24:44Z</time>
      </trkpt>
      <trkpt lat="43.36738" lon="6.19889">
        <ele>271</ele>
        <time>2010-01-01T00:24:46Z</time>
      </trkpt>
      <trkpt lat="43.36737" lon="6.19882">
        <ele>271</ele>
        <time>2010-01-01T00:24:48Z</time>
      </trkpt>
      <trkpt lat="43.36737" lon="6.19878">
        <ele>271</ele>
        <time>2010-01-01T00:24:49Z</time>
      </trkpt>
      <trkpt lat="43.36738" lon="6.19873">
        <ele>271</ele>
        <time>2010-01-01T00:24:51Z</time>
      </trkpt>
      <trkpt lat="43.36738" lon="6.19868">
        <ele>271</ele>
        <time>2010-01-01T00:24:52Z</time>
      </trkpt>
      <trkpt lat="43.36738" lon="6.19861">
        <ele>271</ele>
        <time>2010-01-01T00:24:54Z</time>
      </trkpt>
      <trkpt lat="43.36738" lon="6.19856">
        <ele>272</ele>
        <time>2010-01-01T00:24:56Z</time>
      </trkpt>
      <trkpt lat="43.36738" lon="6.19852">
        <ele>272</ele>
        <time>2010-01-01T00:24:57Z</time>
      </trkpt>
      <trkpt lat="43.36737" lon="6.19848">
        <ele>272</ele>
        <time>2010-01-01T00:24:58Z</time>
      </trkpt>
      <trkpt lat="43.36737" lon="6.19843">
        <ele>272</ele>
        <time>2010-01-01T00:25:00Z</time>
      </trkpt>
      <trkpt lat="43.36739" lon="6.19828">
        <ele>275</ele>
        <time>2010-01-01T00:25:04Z</time>
      </trkpt>
      <trkpt lat="43.36739" lon="6.19825">
        <ele>275</ele>
        <time>2010-01-01T00:25:05Z</time>
      </trkpt>
      <trkpt lat="43.36739" lon="6.19821">
        <ele>275</ele>
        <time>2010-01-01T00:25:06Z</time>
      </trkpt>
      <trkpt lat="43.36739" lon="6.19815">
        <ele>275</ele>
        <time>2010-01-01T00:25:08Z</time>
      </trkpt>
      <trkpt lat="43.36738" lon="6.1981">
        <ele>275</ele>
        <time>2010-01-01T00:25:09Z</time>
      </trkpt>
      <trkpt lat="43.36736" lon="6.19806">
        <ele>276</ele>
        <time>2010-01-01T00:25:11Z</time>
      </trkpt>
      <trkpt lat="43.36733" lon="6.19789">
        <ele>276</ele>
        <time>2010-01-01T00:25:16Z</time>
      </trkpt>
      <trkpt lat="43.36732" lon="6.19785">
        <ele>277</ele>
        <time>2010-01-01T00:25:17Z</time>
      </trkpt>
      <trkpt lat="43.36731" lon="6.19781">
        <ele>277</ele>
        <time>2010-01-01T00:25:18Z</time>
      </trkpt>
      <trkpt lat="43.36729" lon="6.19777">
        <ele>277</ele>
        <time>2010-01-01T00:25:19Z</time>
      </trkpt>
      <trkpt lat="43.36728" lon="6.19774">
        <ele>277</ele>
        <time>2010-01-01T00:25:21Z</time>
      </trkpt>
      <trkpt lat="43.36726" lon="6.19764">
        <ele>277</ele>
        <time>2010-01-01T00:25:24Z</time>
      </trkpt>
      <trkpt lat="43.36726" lon="6.1976">
        <ele>278</ele>
        <time>2010-01-01T00:25:25Z</time>
      </trkpt>
      <trkpt lat="43.36725" lon="6.19755">
        <ele>278</ele>
        <time>2010-01-01T00:25:26Z</time>
      </trkpt>
      <trkpt lat="43.36726" lon="6.19751">
        <ele>278</ele>
        <time>2010-01-01T00:25:27Z</time>
      </trkpt>
      <trkpt lat="43.36726" lon="6.19747">
        <ele>283</ele>
        <time>2010-01-01T00:25:28Z</time>
      </trkpt>
      <trkpt lat="43.36726" lon="6.19745">
        <ele>283</ele>
        <time>2010-01-01T00:25:29Z</time>
      </trkpt>
      <trkpt lat="43.36726" lon="6.19742">
        <ele>283</ele>
        <time>2010-01-01T00:25:30Z</time>
      </trkpt>
      <trkpt lat="43.36724" lon="6.19738">
        <ele>283</ele>
        <time>2010-01-01T00:25:31Z</time>
      </trkpt>
      <trkpt lat="43.36723" lon="6.19734">
        <ele>284</ele>
        <time>2010-01-01T00:25:33Z</time>
      </trkpt>
      <trkpt lat="43.36721" lon="6.1973">
        <ele>284</ele>
        <time>2010-01-01T00:25:34Z</time>
      </trkpt>
      <trkpt lat="43.3672" lon="6.19728">
        <ele>284</ele>
        <time>2010-01-01T00:25:35Z</time>
      </trkpt>
      <trkpt lat="43.36719" lon="6.19725">
        <ele>284</ele>
        <time>2010-01-01T00:25:36Z</time>
      </trkpt>
      <trkpt lat="43.36718" lon="6.19723">
        <ele>284</ele>
        <time>2010-01-01T00:25:37Z</time>
      </trkpt>
      <trkpt lat="43.36716" lon="6.19719">
        <ele>285</ele>
        <time>2010-01-01T00:25:38Z</time>
      </trkpt>
      <trkpt lat="43.36715" lon="6.19716">
        <ele>285</ele>
        <time>2010-01-01T00:25:39Z</time>
      </trkpt>
      <trkpt lat="43.36711" lon="6.19711">
        <ele>285</ele>
        <time>2010-01-01T00:25:41Z</time>
      </trkpt>
      <trkpt lat="43.36709" lon="6.19708">
        <ele>285</ele>
        <time>2010-01-01T00:25:42Z</time>
      </trkpt>
      <trkpt lat="43.36707" lon="6.19704">
        <ele>286</ele>
        <time>2010-01-01T00:25:43Z</time>
      </trkpt>
      <trkpt lat="43.36706" lon="6.19699">
        <ele>286</ele>
        <time>2010-01-01T00:25:45Z</time>
      </trkpt>
      <trkpt lat="43.36704" lon="6.19695">
        <ele>286</ele>
        <time>2010-01-01T00:25:46Z</time>
      </trkpt>
      <trkpt lat="43.367" lon="6.19686">
        <ele>287</ele>
        <time>2010-01-01T00:25:50Z</time>
      </trkpt>
      <trkpt lat="43.36699" lon="6.19682">
        <ele>287</ele>
        <time>2010-01-01T00:25:51Z</time>
      </trkpt>
      <trkpt lat="43.36699" lon="6.19679">
        <ele>287</ele>
        <time>2010-01-01T00:25:52Z</time>
      </trkpt>
      <trkpt lat="43.36698" lon="6.19675">
        <ele>288</ele>
        <time>2010-01-01T00:25:53Z</time>
      </trkpt>
      <trkpt lat="43.36697" lon="6.19671">
        <ele>288</ele>
        <time>2010-01-01T00:25:54Z</time>
      </trkpt>
      <trkpt lat="43.36692" lon="6.19657">
        <ele>294</ele>
        <time>2010-01-01T00:25:59Z</time>
      </trkpt>
      <trkpt lat="43.36691" lon="6.19655">
        <ele>294</ele>
        <time>2010-01-01T00:25:59Z</time>
      </trkpt>
      <trkpt lat="43.36689" lon="6.19651">
        <ele>294</ele>
        <time>2010-01-01T00:26:01Z</time>
      </trkpt>
      <trkpt lat="43.36688" lon="6.19647">
        <ele>295</ele>
        <time>2010-01-01T00:26:02Z</time>
      </trkpt>
      <trkpt lat="43.36686" lon="6.19643">
        <ele>295</ele>
        <time>2010-01-01T00:26:03Z</time>
      </trkpt>
      <trkpt lat="43.36685" lon="6.19639">
        <ele>295</ele>
        <time>2010-01-01T00:26:05Z</time>
      </trkpt>
      <trkpt lat="43.36677" lon="6.19621">
        <ele>297</ele>
        <time>2010-01-01T00:26:11Z</time>
      </trkpt>
      <trkpt lat="43.36668" lon="6.19608">
        <ele>298</ele>
        <time>2010-01-01T00:26:16Z</time>
      </trkpt>
      <trkpt lat="43.36665" lon="6.19606">
        <ele>300</ele>
        <time>2010-01-01T00:26:17Z</time>
      </trkpt>
      <trkpt lat="43.36661" lon="6.19603">
        <ele>300</ele>
        <time>2010-01-01T00:26:19Z</time>
      </trkpt>
      <trkpt lat="43.36659" lon="6.19603">
        <ele>300</ele>
        <time>2010-01-01T00:26:20Z</time>
      </trkpt>
      <trkpt lat="43.36656" lon="6.19603">
        <ele>300</ele>
        <time>2010-01-01T00:26:21Z</time>
      </trkpt>
      <trkpt lat="43.36652" lon="6.19603">
        <ele>300</ele>
        <time>2010-01-01T00:26:23Z</time>
      </trkpt>
      <trkpt lat="43.36649" lon="6.19603">
        <ele>299</ele>
        <time>2010-01-01T00:26:24Z</time>
      </trkpt>
      <trkpt lat="43.36636" lon="6.19609">
        <ele>298</ele>
        <time>2010-01-01T00:26:29Z</time>
      </trkpt>
      <trkpt lat="43.36622" lon="6.19614">
        <ele>298</ele>
        <time>2010-01-01T00:26:35Z</time>
      </trkpt>
      <trkpt lat="43.36605" lon="6.19611">
        <ele>298</ele>
        <time>2010-01-01T00:26:42Z</time>
      </trkpt>
      <trkpt lat="43.36587" lon="6.19597">
        <ele>299</ele>
        <time>2010-01-01T00:26:50Z</time>
      </trkpt>
      <trkpt lat="43.36585" lon="6.19596">
        <ele>300</ele>
        <time>2010-01-01T00:26:51Z</time>
      </trkpt>
      <trkpt lat="43.36581" lon="6.19591">
        <ele>298</ele>
        <time>2010-01-01T00:26:53Z</time>
      </trkpt>
      <trkpt lat="43.36578" lon="6.19587">
        <ele>298</ele>
        <time>2010-01-01T00:26:55Z</time>
      </trkpt>
      <trkpt lat="43.36575" lon="6.19583">
        <ele>299</ele>
        <time>2010-01-01T00:26:57Z</time>
      </trkpt>
      <trkpt lat="43.36573" lon="6.19577">
        <ele>299</ele>
        <time>2010-01-01T00:26:59Z</time>
      </trkpt>
      <trkpt lat="43.36561" lon="6.19549">
        <ele>297</ele>
        <time>2010-01-01T00:27:08Z</time>
      </trkpt>
      <trkpt lat="43.3656" lon="6.1953">
        <ele>298</ele>
        <time>2010-01-01T00:27:14Z</time>
      </trkpt>
      <trkpt lat="43.36562" lon="6.19507">
        <ele>299</ele>
        <time>2010-01-01T00:27:20Z</time>
      </trkpt>
      <trkpt lat="43.36564" lon="6.19501">
        <ele>300</ele>
        <time>2010-01-01T00:27:22Z</time>
      </trkpt>
      <trkpt lat="43.36565" lon="6.19493">
        <ele>300</ele>
        <time>2010-01-01T00:27:25Z</time>
      </trkpt>
      <trkpt lat="43.36567" lon="6.19485">
        <ele>300</ele>
        <time>2010-01-01T00:27:27Z</time>
      </trkpt>
      <trkpt lat="43.3657" lon="6.19477">
        <ele>299</ele>
        <time>2010-01-01T00:27:29Z</time>
      </trkpt>
      <trkpt lat="43.36572" lon="6.1947">
        <ele>299</ele>
        <time>2010-01-01T00:27:32Z</time>
      </trkpt>
      <trkpt lat="43.36585" lon="6.19454">
        <ele>306</ele>
        <time>2010-01-01T00:27:39Z</time>
      </trkpt>
      <trkpt lat="43.36596" lon="6.19448">
        <ele>306</ele>
        <time>2010-01-01T00:27:44Z</time>
      </trkpt>
      <trkpt lat="43.36612" lon="6.19437">
        <ele>307</ele>
        <time>2010-01-01T00:27:51Z</time>
      </trkpt>
      <trkpt lat="43.36619" lon="6.19425">
        <ele>308</ele>
        <time>2010-01-01T00:27:55Z</time>
      </trkpt>
      <trkpt lat="43.3662" lon="6.19417">
        <ele>308</ele>
        <time>2010-01-01T00:27:58Z</time>
      </trkpt>
      <trkpt lat="43.36621" lon="6.19409">
        <ele>309</ele>
        <time>2010-01-01T00:28:00Z</time>
      </trkpt>
      <trkpt lat="43.36621" lon="6.19401">
        <ele>309</ele>
        <time>2010-01-01T00:28:02Z</time>
      </trkpt>
      <trkpt lat="43.36623" lon="6.19393">
        <ele>309</ele>
        <time>2010-01-01T00:28:05Z</time>
      </trkpt>
      <trkpt lat="43.36626" lon="6.19382">
        <ele>310</ele>
        <time>2010-01-01T00:28:08Z</time>
      </trkpt>
      <trkpt lat="43.36625" lon="6.19355">
        <ele>310</ele>
        <time>2010-01-01T00:28:16Z</time>
      </trkpt>
      <trkpt lat="43.36618" lon="6.19335">
        <ele>309</ele>
        <time>2010-01-01T00:28:22Z</time>
      </trkpt>
      <trkpt lat="43.36615" lon="6.19329">
        <ele>314</ele>
        <time>2010-01-01T00:28:25Z</time>
      </trkpt>
      <trkpt lat="43.36612" lon="6.19323">
        <ele>313</ele>
        <time>2010-01-01T00:28:27Z</time>
      </trkpt>
      <trkpt lat="43.36607" lon="6.19317">
        <ele>313</ele>
        <time>2010-01-01T00:28:29Z</time>
      </trkpt>
      <trkpt lat="43.36603" lon="6.19312">
        <ele>313</ele>
        <time>2010-01-01T00:28:32Z</time>
      </trkpt>
      <trkpt lat="43.36587" lon="6.1929">
        <ele>314</ele>
        <time>2010-01-01T00:28:41Z</time>
      </trkpt>
      <trkpt lat="43.36585" lon="6.19283">
        <ele>314</ele>
        <time>2010-01-01T00:28:43Z</time>
      </trkpt>
      <trkpt lat="43.36584" lon="6.19275">
        <ele>314</ele>
        <time>2010-01-01T00:28:45Z</time>
      </trkpt>
      <trkpt lat="43.36583" lon="6.19267">
        <ele>306</ele>
        <time>2010-01-01T00:28:47Z</time>
      </trkpt>
      <trkpt lat="43.36581" lon="6.19259">
        <ele>308</ele>
        <time>2010-01-01T00:28:50Z</time>
      </trkpt>
      <trkpt lat="43.36581" lon="6.19251">
        <ele>311</ele>
        <time>2010-01-01T00:28:52Z</time>
      </trkpt>
      <trkpt lat="43.36576" lon="6.19217">
        <ele>309</ele>
        <time>2010-01-01T00:29:02Z</time>
      </trkpt>
      <trkpt lat="43.36573" lon="6.19193">
        <ele>311</ele>
        <time>2010-01-01T00:29:09Z</time>
      </trkpt>
      <trkpt lat="43.36571" lon="6.19184">
        <ele>312</ele>
        <time>2010-01-01T00:29:12Z</time>
      </trkpt>
      <trkpt lat="43.36569" lon="6.19178">
        <ele>312</ele>
        <time>2010-01-01T00:29:14Z</time>
      </trkpt>
      <trkpt lat="43.36566" lon="6.19175">
        <ele>312</ele>
        <time>2010-01-01T00:29:16Z</time>
      </trkpt>
      <trkpt lat="43.36564" lon="6.19172">
        <ele>312</ele>
        <time>2010-01-01T00:29:17Z</time>
      </trkpt>
      <trkpt lat="43.36561" lon="6.19166">
        <ele>314</ele>
        <time>2010-01-01T00:29:19Z</time>
      </trkpt>
      <trkpt lat="43.36558" lon="6.19159">
        <ele>313</ele>
        <time>2010-01-01T00:29:21Z</time>
      </trkpt>
      <trkpt lat="43.36551" lon="6.19134">
        <ele>312</ele>
        <time>2010-01-01T00:29:29Z</time>
      </trkpt>
      <trkpt lat="43.36546" lon="6.19097">
        <ele>313</ele>
        <time>2010-01-01T00:29:40Z</time>
      </trkpt>
      <trkpt lat="43.36546" lon="6.19083">
        <ele>315</ele>
        <time>2010-01-01T00:29:44Z</time>
      </trkpt>
      <trkpt lat="43.36546" lon="6.19076">
        <ele>315</ele>
        <time>2010-01-01T00:29:46Z</time>
      </trkpt>
      <trkpt lat="43.36546" lon="6.19068">
        <ele>315</ele>
        <time>2010-01-01T00:29:48Z</time>
      </trkpt>
      <trkpt lat="43.36547" lon="6.1906">
        <ele>315</ele>
        <time>2010-01-01T00:29:51Z</time>
      </trkpt>
      <trkpt lat="43.36546" lon="6.19052">
        <ele>315</ele>
        <time>2010-01-01T00:29:53Z</time>
      </trkpt>
      <trkpt lat="43.36543" lon="6.19019">
        <ele>315</ele>
        <time>2010-01-01T00:30:03Z</time>
      </trkpt>
      <trkpt lat="43.36543" lon="6.19012">
        <ele>315</ele>
        <time>2010-01-01T00:30:05Z</time>
      </trkpt>
      <trkpt lat="43.36543" lon="6.19005">
        <ele>315</ele>
        <time>2010-01-01T00:30:07Z</time>
      </trkpt>
      <trkpt lat="43.36543" lon="6.18998">
        <ele>316</ele>
        <time>2010-01-01T00:30:09Z</time>
      </trkpt>
      <trkpt lat="43.36543" lon="6.18992">
        <ele>316</ele>
        <time>2010-01-01T00:30:11Z</time>
      </trkpt>
      <trkpt lat="43.36545" lon="6.18975">
        <ele>316</ele>
        <time>2010-01-01T00:30:16Z</time>
      </trkpt>
      <trkpt lat="43.36546" lon="6.18969">
        <ele>316</ele>
        <time>2010-01-01T00:30:18Z</time>
      </trkpt>
      <trkpt lat="43.36547" lon="6.18962">
        <ele>316</ele>
        <time>2010-01-01T00:30:20Z</time>
      </trkpt>
      <trkpt lat="43.36548" lon="6.18955">
        <ele>316</ele>
        <time>2010-01-01T00:30:22Z</time>
      </trkpt>
      <trkpt lat="43.36548" lon="6.1895">
        <ele>316</ele>
        <time>2010-01-01T00:30:23Z</time>
      </trkpt>
      <trkpt lat="43.36555" lon="6.18939">
        <ele>317</ele>
        <time>2010-01-01T00:30:27Z</time>
      </trkpt>
      <trkpt lat="43.36565" lon="6.1892">
        <ele>318</ele>
        <time>2010-01-01T00:30:34Z</time>
      </trkpt>
      <trkpt lat="43.36578" lon="6.189">
        <ele>318</ele>
        <time>2010-01-01T00:30:42Z</time>
      </trkpt>
      <trkpt lat="43.36592" lon="6.18883">
        <ele>326</ele>
        <time>2010-01-01T00:30:49Z</time>
      </trkpt>
      <trkpt lat="43.36611" lon="6.18867">
        <ele>327</ele>
        <time>2010-01-01T00:30:58Z</time>
      </trkpt>
      <trkpt lat="43.36623" lon="6.1885">
        <ele>327</ele>
        <time>2010-01-01T00:31:05Z</time>
      </trkpt>
      <trkpt lat="43.36631" lon="6.18831">
        <ele>325</ele>
        <time>2010-01-01T00:31:11Z</time>
      </trkpt>
      <trkpt lat="43.36633" lon="6.18823">
        <ele>326</ele>
        <time>2010-01-01T00:31:14Z</time>
      </trkpt>
      <trkpt lat="43.36635" lon="6.18817">
        <ele>326</ele>
        <time>2010-01-01T00:31:16Z</time>
      </trkpt>
      <trkpt lat="43.36637" lon="6.18813">
        <ele>326</ele>
        <time>2010-01-01T00:31:17Z</time>
      </trkpt>
      <trkpt lat="43.3664" lon="6.18809">
        <ele>326</ele>
        <time>2010-01-01T00:31:19Z</time>
      </trkpt>
      <trkpt lat="43.36642" lon="6.18804">
        <ele>326</ele>
        <time>2010-01-01T00:31:21Z</time>
      </trkpt>
      <trkpt lat="43.36649" lon="6.18794">
        <ele>327</ele>
        <time>2010-01-01T00:31:25Z</time>
      </trkpt>
      <trkpt lat="43.36652" lon="6.18791">
        <ele>327</ele>
        <time>2010-01-01T00:31:26Z</time>
      </trkpt>
      <trkpt lat="43.36655" lon="6.18788">
        <ele>327</ele>
        <time>2010-01-01T00:31:28Z</time>
      </trkpt>
      <trkpt lat="43.36658" lon="6.18787">
        <ele>327</ele>
        <time>2010-01-01T00:31:29Z</time>
      </trkpt>
      <trkpt lat="43.36661" lon="6.18787">
        <ele>327</ele>
        <time>2010-01-01T00:31:30Z</time>
      </trkpt>
      <trkpt lat="43.3667" lon="6.18781">
        <ele>336</ele>
        <time>2010-01-01T00:31:34Z</time>
      </trkpt>
      <trkpt lat="43.36672" lon="6.18777">
        <ele>336</ele>
        <time>2010-01-01T00:31:35Z</time>
      </trkpt>
      <trkpt lat="43.36673" lon="6.18773">
        <ele>336</ele>
        <time>2010-01-01T00:31:37Z</time>
      </trkpt>
      <trkpt lat="43.36671" lon="6.1877">
        <ele>335</ele>
        <time>2010-01-01T00:31:37Z</time>
      </trkpt>
      <trkpt lat="43.3667" lon="6.18769">
        <ele>335</ele>
        <time>2010-01-01T00:31:38Z</time>
      </trkpt>
      <trkpt lat="43.36666" lon="6.18767">
        <ele>328</ele>
        <time>2010-01-01T00:31:40Z</time>
      </trkpt>
      <trkpt lat="43.36654" lon="6.18768">
        <ele>327</ele>
        <time>2010-01-01T00:31:45Z</time>
      </trkpt>
      <trkpt lat="43.36652" lon="6.18769">
        <ele>327</ele>
        <time>2010-01-01T00:31:46Z</time>
      </trkpt>
      <trkpt lat="43.3665" lon="6.1877">
        <ele>327</ele>
        <time>2010-01-01T00:31:47Z</time>
      </trkpt>
      <trkpt lat="43.36646" lon="6.18771">
        <ele>327</ele>
        <time>2010-01-01T00:31:48Z</time>
      </trkpt>
      <trkpt lat="43.36642" lon="6.18772">
        <ele>327</ele>
        <time>2010-01-01T00:31:50Z</time>
      </trkpt>
      <trkpt lat="43.36641" lon="6.18774">
        <ele>327</ele>
        <time>2010-01-01T00:31:50Z</time>
      </trkpt>
      <trkpt lat="43.36639" lon="6.18775">
        <ele>326</ele>
        <time>2010-01-01T00:31:51Z</time>
      </trkpt>
      <trkpt lat="43.36631" lon="6.1878">
        <ele>326</ele>
        <time>2010-01-01T00:31:55Z</time>
      </trkpt>
      <trkpt lat="43.36627" lon="6.18782">
        <ele>326</ele>
        <time>2010-01-01T00:31:56Z</time>
      </trkpt>
      <trkpt lat="43.36624" lon="6.18783">
        <ele>326</ele>
        <time>2010-01-01T00:31:58Z</time>
      </trkpt>
      <trkpt lat="43.36622" lon="6.18784">
        <ele>326</ele>
        <time>2010-01-01T00:31:58Z</time>
      </trkpt>
      <trkpt lat="43.3662" lon="6.18783">
        <ele>325</ele>
        <time>2010-01-01T00:31:59Z</time>
      </trkpt>
      <trkpt lat="43.36616" lon="6.18782">
        <ele>325</ele>
        <time>2010-01-01T00:32:01Z</time>
      </trkpt>
      <trkpt lat="43.36614" lon="6.1878">
        <ele>325</ele>
        <time>2010-01-01T00:32:02Z</time>
      </trkpt>
      <trkpt lat="43.36607" lon="6.18769">
        <ele>325</ele>
        <time>2010-01-01T00:32:06Z</time>
      </trkpt>
      <trkpt lat="43.36607" lon="6.18766">
        <ele>325</ele>
        <time>2010-01-01T00:32:07Z</time>
      </trkpt>
      <trkpt lat="43.36607" lon="6.18764">
        <ele>325</ele>
        <time>2010-01-01T00:32:08Z</time>
      </trkpt>
      <trkpt lat="43.36607" lon="6.18759">
        <ele>325</ele>
        <time>2010-01-01T00:32:09Z</time>
      </trkpt>
      <trkpt lat="43.36607" lon="6.18754">
        <ele>325</ele>
        <time>2010-01-01T00:32:10Z</time>
      </trkpt>
      <trkpt lat="43.36608" lon="6.18749">
        <ele>327</ele>
        <time>2010-01-01T00:32:12Z</time>
      </trkpt>
      <trkpt lat="43.36611" lon="6.18734">
        <ele>328</ele>
        <time>2010-01-01T00:32:17Z</time>
      </trkpt>
      <trkpt lat="43.36612" lon="6.18729">
        <ele>328</ele>
        <time>2010-01-01T00:32:18Z</time>
      </trkpt>
      <trkpt lat="43.36613" lon="6.18725">
        <ele>329</ele>
        <time>2010-01-01T00:32:19Z</time>
      </trkpt>
      <trkpt lat="43.36613" lon="6.1872">
        <ele>329</ele>
        <time>2010-01-01T00:32:21Z</time>
      </trkpt>
      <trkpt lat="43.36615" lon="6.18716">
        <ele>329</ele>
        <time>2010-01-01T00:32:22Z</time>
      </trkpt>
      <trkpt lat="43.36621" lon="6.18702">
        <ele>330</ele>
        <time>2010-01-01T00:32:27Z</time>
      </trkpt>
      <trkpt lat="43.36622" lon="6.18697">
        <ele>330</ele>
        <time>2010-01-01T00:32:28Z</time>
      </trkpt>
      <trkpt lat="43.36623" lon="6.18694">
        <ele>330</ele>
        <time>2010-01-01T00:32:29Z</time>
      </trkpt>
      <trkpt lat="43.36625" lon="6.18689">
        <ele>330</ele>
        <time>2010-01-01T00:32:31Z</time>
      </trkpt>
      <trkpt lat="43.36626" lon="6.18684">
        <ele>331</ele>
        <time>2010-01-01T00:32:32Z</time>
      </trkpt>
      <trkpt lat="43.36627" lon="6.18679">
        <ele>331</ele>
        <time>2010-01-01T00:32:34Z</time>
      </trkpt>
      <trkpt lat="43.36631" lon="6.18666">
        <ele>336</ele>
        <time>2010-01-01T00:32:38Z</time>
      </trkpt>
      <trkpt lat="43.36633" lon="6.18663">
        <ele>336</ele>
        <time>2010-01-01T00:32:39Z</time>
      </trkpt>
      <trkpt lat="43.36634" lon="6.1866">
        <ele>336</ele>
        <time>2010-01-01T00:32:40Z</time>
      </trkpt>
      <trkpt lat="43.36636" lon="6.18656">
        <ele>336</ele>
        <time>2010-01-01T00:32:41Z</time>
      </trkpt>
      <trkpt lat="43.36638" lon="6.18652">
        <ele>337</ele>
        <time>2010-01-01T00:32:43Z</time>
      </trkpt>
      <trkpt lat="43.36639" lon="6.18648">
        <ele>337</ele>
        <time>2010-01-01T00:32:44Z</time>
      </trkpt>
      <trkpt lat="43.36644" lon="6.1863">
        <ele>338</ele>
        <time>2010-01-01T00:32:50Z</time>
      </trkpt>
      <trkpt lat="43.36644" lon="6.18628">
        <ele>338</ele>
        <time>2010-01-01T00:32:50Z</time>
      </trkpt>
      <trkpt lat="43.36646" lon="6.18623">
        <ele>338</ele>
        <time>2010-01-01T00:32:52Z</time>
      </trkpt>
      <trkpt lat="43.36647" lon="6.18619">
        <ele>338</ele>
        <time>2010-01-01T00:32:53Z</time>
      </trkpt>
      <trkpt lat="43.36648" lon="6.18615">
        <ele>339</ele>
        <time>2010-01-01T00:32:54Z</time>
      </trkpt>
      <trkpt lat="43.36648" lon="6.18611">
        <ele>339</ele>
        <time>2010-01-01T00:32:56Z</time>
      </trkpt>
      <trkpt lat="43.36649" lon="6.18606">
        <ele>339</ele>
        <time>2010-01-01T00:32:57Z</time>
      </trkpt>
      <trkpt lat="43.36649" lon="6.18602">
        <ele>340</ele>
        <time>2010-01-01T00:32:58Z</time>
      </trkpt>
      <trkpt lat="43.3665" lon="6.18599">
        <ele>340</ele>
        <time>2010-01-01T00:32:59Z</time>
      </trkpt>
      <trkpt lat="43.36651" lon="6.18596">
        <ele>340</ele>
        <time>2010-01-01T00:33:00Z</time>
      </trkpt>
      <trkpt lat="43.36651" lon="6.18593">
        <ele>341</ele>
        <time>2010-01-01T00:33:01Z</time>
      </trkpt>
      <trkpt lat="43.36648" lon="6.18577">
        <ele>348</ele>
        <time>2010-01-01T00:33:06Z</time>
      </trkpt>
      <trkpt lat="43.36649" lon="6.18573">
        <ele>348</ele>
        <time>2010-01-01T00:33:07Z</time>
      </trkpt>
      <trkpt lat="43.36648" lon="6.18569">
        <ele>348</ele>
        <time>2010-01-01T00:33:08Z</time>
      </trkpt>
      <trkpt lat="43.36647" lon="6.18565">
        <ele>349</ele>
        <time>2010-01-01T00:33:09Z</time>
      </trkpt>
      <trkpt lat="43.36646" lon="6.18561">
        <ele>349</ele>
        <time>2010-01-01T00:33:11Z</time>
      </trkpt>
      <trkpt lat="43.36645" lon="6.18559">
        <ele>349</ele>
        <time>2010-01-01T00:33:11Z</time>
      </trkpt>
      <trkpt lat="43.3664" lon="6.18551">
        <ele>351</ele>
        <time>2010-01-01T00:33:15Z</time>
      </trkpt>
      <trkpt lat="43.36638" lon="6.18549">
        <ele>351</ele>
        <time>2010-01-01T00:33:15Z</time>
      </trkpt>
      <trkpt lat="43.36636" lon="6.18546">
        <ele>351</ele>
        <time>2010-01-01T00:33:17Z</time>
      </trkpt>
      <trkpt lat="43.36634" lon="6.18543">
        <ele>351</ele>
        <time>2010-01-01T00:33:18Z</time>
      </trkpt>
      <trkpt lat="43.36631" lon="6.18541">
        <ele>352</ele>
        <time>2010-01-01T00:33:19Z</time>
      </trkpt>
      <trkpt lat="43.36626" lon="6.18538">
        <ele>352</ele>
        <time>2010-01-01T00:33:21Z</time>
      </trkpt>
      <trkpt lat="43.36624" lon="6.18536">
        <ele>352</ele>
        <time>2010-01-01T00:33:22Z</time>
      </trkpt>
      <trkpt lat="43.36621" lon="6.18534">
        <ele>352</ele>
        <time>2010-01-01T00:33:24Z</time>
      </trkpt>
      <trkpt lat="43.36619" lon="6.18533">
        <ele>352</ele>
        <time>2010-01-01T00:33:24Z</time>
      </trkpt>
      <trkpt lat="43.36618" lon="6.18533">
        <ele>352</ele>
        <time>2010-01-01T00:33:25Z</time>
      </trkpt>
      <trkpt lat="43.36606" lon="6.18532">
        <ele>353</ele>
        <time>2010-01-01T00:33:30Z</time>
      </trkpt>
      <trkpt lat="43.36603" lon="6.18531">
        <ele>353</ele>
        <time>2010-01-01T00:33:31Z</time>
      </trkpt>
      <trkpt lat="43.366" lon="6.18531">
        <ele>353</ele>
        <time>2010-01-01T00:33:32Z</time>
      </trkpt>
      <trkpt lat="43.36597" lon="6.18531">
        <ele>353</ele>
        <time>2010-01-01T00:33:33Z</time>
      </trkpt>
      <trkpt lat="43.36594" lon="6.1853">
        <ele>353</ele>
        <time>2010-01-01T00:33:34Z</time>
      </trkpt>
      <trkpt lat="43.36592" lon="6.1853">
        <ele>353</ele>
        <time>2010-01-01T00:33:35Z</time>
      </trkpt>
      <trkpt lat="43.36584" lon="6.18529">
        <ele>354</ele>
        <time>2010-01-01T00:33:39Z</time>
      </trkpt>
      <trkpt lat="43.36581" lon="6.18529">
        <ele>354</ele>
        <time>2010-01-01T00:33:40Z</time>
      </trkpt>
      <trkpt lat="43.36579" lon="6.1853">
        <ele>354</ele>
        <time>2010-01-01T00:33:41Z</time>
      </trkpt>
      <trkpt lat="43.36576" lon="6.18529">
        <ele>354</ele>
        <time>2010-01-01T00:33:42Z</time>
      </trkpt>
      <trkpt lat="43.36573" lon="6.18529">
        <ele>354</ele>
        <time>2010-01-01T00:33:43Z</time>
      </trkpt>
      <trkpt lat="43.36566" lon="6.18527">
        <ele>355</ele>
        <time>2010-01-01T00:33:46Z</time>
      </trkpt>
      <trkpt lat="43.36563" lon="6.18526">
        <ele>355</ele>
        <time>2010-01-01T00:33:47Z</time>
      </trkpt>
      <trkpt lat="43.3656" lon="6.18526">
        <ele>355</ele>
        <time>2010-01-01T00:33:48Z</time>
      </trkpt>
      <trkpt lat="43.36559" lon="6.18526">
        <ele>355</ele>
        <time>2010-01-01T00:33:49Z</time>
      </trkpt>
      <trkpt lat="43.36557" lon="6.18526">
        <ele>354</ele>
        <time>2010-01-01T00:33:50Z</time>
      </trkpt>
      <trkpt lat="43.36554" lon="6.18526">
        <ele>354</ele>
        <time>2010-01-01T00:33:51Z</time>
      </trkpt>
      <trkpt lat="43.36543" lon="6.18523">
        <ele>355</ele>
        <time>2010-01-01T00:33:55Z</time>
      </trkpt>
      <trkpt lat="43.36534" lon="6.1852">
        <ele>355</ele>
        <time>2010-01-01T00:33:59Z</time>
      </trkpt>
      <trkpt lat="43.36531" lon="6.18519">
        <ele>356</ele>
        <time>2010-01-01T00:34:00Z</time>
      </trkpt>
      <trkpt lat="43.36529" lon="6.18519">
        <ele>356</ele>
        <time>2010-01-01T00:34:01Z</time>
      </trkpt>
      <trkpt lat="43.36526" lon="6.18519">
        <ele>356</ele>
        <time>2010-01-01T00:34:02Z</time>
      </trkpt>
      <trkpt lat="43.36523" lon="6.18518">
        <ele>357</ele>
        <time>2010-01-01T00:34:04Z</time>
      </trkpt>
      <trkpt lat="43.36514" lon="6.18517">
        <ele>358</ele>
        <time>2010-01-01T00:34:07Z</time>
      </trkpt>
      <trkpt lat="43.3651" lon="6.18517">
        <ele>358</ele>
        <time>2010-01-01T00:34:09Z</time>
      </trkpt>
      <trkpt lat="43.36506" lon="6.18517">
        <ele>358</ele>
        <time>2010-01-01T00:34:10Z</time>
      </trkpt>
      <trkpt lat="43.36504" lon="6.18519">
        <ele>358</ele>
        <time>2010-01-01T00:34:11Z</time>
      </trkpt>
      <trkpt lat="43.365" lon="6.18521">
        <ele>358</ele>
        <time>2010-01-01T00:34:13Z</time>
      </trkpt>
      <trkpt lat="43.36487" lon="6.1853">
        <ele>360</ele>
        <time>2010-01-01T00:34:19Z</time>
      </trkpt>
      <trkpt lat="43.36485" lon="6.1853">
        <ele>360</ele>
        <time>2010-01-01T00:34:20Z</time>
      </trkpt>
      <trkpt lat="43.36481" lon="6.18531">
        <ele>359</ele>
        <time>2010-01-01T00:34:21Z</time>
      </trkpt>
      <trkpt lat="43.36477" lon="6.18531">
        <ele>359</ele>
        <time>2010-01-01T00:34:23Z</time>
      </trkpt>
      <trkpt lat="43.36472" lon="6.18533">
        <ele>359</ele>
        <time>2010-01-01T00:34:25Z</time>
      </trkpt>
      <trkpt lat="43.36469" lon="6.18533">
        <ele>360</ele>
        <time>2010-01-01T00:34:26Z</time>
      </trkpt>
      <trkpt lat="43.36459" lon="6.18536">
        <ele>360</ele>
        <time>2010-01-01T00:34:30Z</time>
      </trkpt>
      <trkpt lat="43.36455" lon="6.18538">
        <ele>360</ele>
        <time>2010-01-01T00:34:32Z</time>
      </trkpt>
      <trkpt lat="43.36451" lon="6.18539">
        <ele>360</ele>
        <time>2010-01-01T00:34:33Z</time>
      </trkpt>
      <trkpt lat="43.36449" lon="6.1854">
        <ele>360</ele>
        <time>2010-01-01T00:34:34Z</time>
      </trkpt>
      <trkpt lat="43.36445" lon="6.18541">
        <ele>360</ele>
        <time>2010-01-01T00:34:36Z</time>
      </trkpt>
      <trkpt lat="43.36433" lon="6.18543">
        <ele>361</ele>
        <time>2010-01-01T00:34:41Z</time>
      </trkpt>
      <trkpt lat="43.36432" lon="6.18543">
        <ele>361</ele>
        <time>2010-01-01T00:34:41Z</time>
      </trkpt>
      <trkpt lat="43.36429" lon="6.18544">
        <ele>361</ele>
        <time>2010-01-01T00:34:42Z</time>
      </trkpt>
      <trkpt lat="43.36425" lon="6.18545">
        <ele>361</ele>
        <time>2010-01-01T00:34:44Z</time>
      </trkpt>
      <trkpt lat="43.36422" lon="6.18546">
        <ele>361</ele>
        <time>2010-01-01T00:34:45Z</time>
      </trkpt>
      <trkpt lat="43.36418" lon="6.18548">
        <ele>361</ele>
        <time>2010-01-01T00:34:47Z</time>
      </trkpt>
      <trkpt lat="43.36411" lon="6.18549">
        <ele>363</ele>
        <time>2010-01-01T00:34:50Z</time>
      </trkpt>
      <trkpt lat="43.36406" lon="6.1855">
        <ele>362</ele>
        <time>2010-01-01T00:34:52Z</time>
      </trkpt>
      <trkpt lat="43.36403" lon="6.18552">
        <ele>362</ele>
        <time>2010-01-01T00:34:53Z</time>
      </trkpt>
      <trkpt lat="43.36399" lon="6.18553">
        <ele>362</ele>
        <time>2010-01-01T00:34:55Z</time>
      </trkpt>
      <trkpt lat="43.36395" lon="6.18554">
        <ele>362</ele>
        <time>2010-01-01T00:34:56Z</time>
      </trkpt>
      <trkpt lat="43.3639" lon="6.18555">
        <ele>362</ele>
        <time>2010-01-01T00:34:59Z</time>
      </trkpt>
      <trkpt lat="43.36377" lon="6.18547">
        <ele>362</ele>
        <time>2010-01-01T00:35:04Z</time>
      </trkpt>
      <trkpt lat="43.36374" lon="6.18544">
        <ele>362</ele>
        <time>2010-01-01T00:35:06Z</time>
      </trkpt>
      <trkpt lat="43.36374" lon="6.18543">
        <ele>362</ele>
        <time>2010-01-01T00:35:06Z</time>
      </trkpt>
      <trkpt lat="43.36372" lon="6.18538">
        <ele>362</ele>
        <time>2010-01-01T00:35:08Z</time>
      </trkpt>
      <trkpt lat="43.3637" lon="6.18533">
        <ele>362</ele>
        <time>2010-01-01T00:35:09Z</time>
      </trkpt>
      <trkpt lat="43.36368" lon="6.18506">
        <ele>361</ele>
        <time>2010-01-01T00:35:17Z</time>
      </trkpt>
      <trkpt lat="43.36368" lon="6.18492">
        <ele>360</ele>
        <time>2010-01-01T00:35:21Z</time>
      </trkpt>
      <trkpt lat="43.36369" lon="6.18487">
        <ele>360</ele>
        <time>2010-01-01T00:35:23Z</time>
      </trkpt>
      <trkpt lat="43.36369" lon="6.18481">
        <ele>360</ele>
        <time>2010-01-01T00:35:24Z</time>
      </trkpt>
      <trkpt lat="43.3637" lon="6.18477">
        <ele>360</ele>
        <time>2010-01-01T00:35:26Z</time>
      </trkpt>
      <trkpt lat="43.3637" lon="6.18473">
        <ele>360</ele>
        <time>2010-01-01T00:35:27Z</time>
      </trkpt>
      <trkpt lat="43.36371" lon="6.18471">
        <ele>360</ele>
        <time>2010-01-01T00:35:27Z</time>
      </trkpt>
      <trkpt lat="43.36372" lon="6.18466">
        <ele>360</ele>
        <time>2010-01-01T00:35:29Z</time>
      </trkpt>
      <trkpt lat="43.36373" lon="6.18462">
        <ele>360</ele>
        <time>2010-01-01T00:35:30Z</time>
      </trkpt>
      <trkpt lat="43.36374" lon="6.18457">
        <ele>361</ele>
        <time>2010-01-01T00:35:32Z</time>
      </trkpt>
      <trkpt lat="43.36375" lon="6.18455">
        <ele>361</ele>
        <time>2010-01-01T00:35:32Z</time>
      </trkpt>
      <trkpt lat="43.3638" lon="6.18444">
        <ele>361</ele>
        <time>2010-01-01T00:35:36Z</time>
      </trkpt>
      <trkpt lat="43.36391" lon="6.1843">
        <ele>364</ele>
        <time>2010-01-01T00:35:42Z</time>
      </trkpt>
      <trkpt lat="43.36394" lon="6.18428">
        <ele>365</ele>
        <time>2010-01-01T00:35:43Z</time>
      </trkpt>
      <trkpt lat="43.36397" lon="6.18427">
        <ele>366</ele>
        <time>2010-01-01T00:35:45Z</time>
      </trkpt>
      <trkpt lat="43.364" lon="6.18425">
        <ele>367</ele>
        <time>2010-01-01T00:35:46Z</time>
      </trkpt>
      <trkpt lat="43.36404" lon="6.18424">
        <ele>368</ele>
        <time>2010-01-01T00:35:48Z</time>
      </trkpt>
      <trkpt lat="43.36407" lon="6.18422">
        <ele>370</ele>
        <time>2010-01-01T00:35:49Z</time>
      </trkpt>
      <trkpt lat="43.36411" lon="6.1842">
        <ele>372</ele>
        <time>2010-01-01T00:35:51Z</time>
      </trkpt>
      <trkpt lat="43.36414" lon="6.18418">
        <ele>374</ele>
        <time>2010-01-01T00:35:52Z</time>
      </trkpt>
      <trkpt lat="43.36417" lon="6.18416">
        <ele>375</ele>
        <time>2010-01-01T00:35:54Z</time>
      </trkpt>
      <trkpt lat="43.3642" lon="6.18414">
        <ele>376</ele>
        <time>2010-01-01T00:35:55Z</time>
      </trkpt>
      <trkpt lat="43.36423" lon="6.18412">
        <ele>378</ele>
        <time>2010-01-01T00:35:56Z</time>
      </trkpt>
      <trkpt lat="43.36433" lon="6.18399">
        <ele>381</ele>
        <time>2010-01-01T00:36:02Z</time>
      </trkpt>
      <trkpt lat="43.36435" lon="6.18395">
        <ele>382</ele>
        <time>2010-01-01T00:36:03Z</time>
      </trkpt>
      <trkpt lat="43.36438" lon="6.18391">
        <ele>382</ele>
        <time>2010-01-01T00:36:05Z</time>
      </trkpt>
      <trkpt lat="43.3644" lon="6.18387">
        <ele>383</ele>
        <time>2010-01-01T00:36:06Z</time>
      </trkpt>
      <trkpt lat="43.36441" lon="6.18384">
        <ele>383</ele>
        <time>2010-01-01T00:36:07Z</time>
      </trkpt>
      <trkpt lat="43.36444" lon="6.1838">
        <ele>384</ele>
        <time>2010-01-01T00:36:09Z</time>
      </trkpt>
      <trkpt lat="43.36448" lon="6.18373">
        <ele>384</ele>
        <time>2010-01-01T00:36:11Z</time>
      </trkpt>
      <trkpt lat="43.3645" lon="6.18369">
        <ele>385</ele>
        <time>2010-01-01T00:36:13Z</time>
      </trkpt>
      <trkpt lat="43.36451" lon="6.18365">
        <ele>385</ele>
        <time>2010-01-01T00:36:14Z</time>
      </trkpt>
      <trkpt lat="43.36452" lon="6.18363">
        <ele>385</ele>
        <time>2010-01-01T00:36:15Z</time>
      </trkpt>
      <trkpt lat="43.36453" lon="6.18357">
        <ele>385</ele>
        <time>2010-01-01T00:36:16Z</time>
      </trkpt>
      <trkpt lat="43.36454" lon="6.18348">
        <ele>386</ele>
        <time>2010-01-01T00:36:19Z</time>
      </trkpt>
      <trkpt lat="43.36454" lon="6.18344">
        <ele>386</ele>
        <time>2010-01-01T00:36:20Z</time>
      </trkpt>
      <trkpt lat="43.36455" lon="6.1834">
        <ele>386</ele>
        <time>2010-01-01T00:36:21Z</time>
      </trkpt>
      <trkpt lat="43.36455" lon="6.18335">
        <ele>386</ele>
        <time>2010-01-01T00:36:23Z</time>
      </trkpt>
      <trkpt lat="43.36455" lon="6.18331">
        <ele>387</ele>
        <time>2010-01-01T00:36:24Z</time>
      </trkpt>
      <trkpt lat="43.36453" lon="6.18312">
        <ele>386</ele>
        <time>2010-01-01T00:36:30Z</time>
      </trkpt>
      <trkpt lat="43.36453" lon="6.18307">
        <ele>386</ele>
        <time>2010-01-01T00:36:31Z</time>
      </trkpt>
      <trkpt lat="43.36453" lon="6.18302">
        <ele>386</ele>
        <time>2010-01-01T00:36:32Z</time>
      </trkpt>
      <trkpt lat="43.36453" lon="6.18298">
        <ele>386</ele>
        <time>2010-01-01T00:36:34Z</time>
      </trkpt>
      <trkpt lat="43.36453" lon="6.18293">
        <ele>386</ele>
        <time>2010-01-01T00:36:35Z</time>
      </trkpt>
      <trkpt lat="43.36455" lon="6.18278">
        <ele>387</ele>
        <time>2010-01-01T00:36:40Z</time>
      </trkpt>
      <trkpt lat="43.36455" lon="6.18268">
        <ele>386</ele>
        <time>2010-01-01T00:36:42Z</time>
      </trkpt>
      <trkpt lat="43.36455" lon="6.18264">
        <ele>386</ele>
        <time>2010-01-01T00:36:44Z</time>
      </trkpt>
      <trkpt lat="43.36456" lon="6.1826">
        <ele>386</ele>
        <time>2010-01-01T00:36:45Z</time>
      </trkpt>
      <trkpt lat="43.36457" lon="6.18255">
        <ele>387</ele>
        <time>2010-01-01T00:36:46Z</time>
      </trkpt>
      <trkpt lat="43.36458" lon="6.1825">
        <ele>387</ele>
        <time>2010-01-01T00:36:48Z</time>
      </trkpt>
      <trkpt lat="43.36459" lon="6.18233">
        <ele>386</ele>
        <time>2010-01-01T00:36:53Z</time>
      </trkpt>
      <trkpt lat="43.36459" lon="6.18228">
        <ele>386</ele>
        <time>2010-01-01T00:36:54Z</time>
      </trkpt>
      <trkpt lat="43.36459" lon="6.18223">
        <ele>386</ele>
        <time>2010-01-01T00:36:56Z</time>
      </trkpt>
      <trkpt lat="43.3646" lon="6.18217">
        <ele>386</ele>
        <time>2010-01-01T00:36:57Z</time>
      </trkpt>
      <trkpt lat="43.3646" lon="6.18212">
        <ele>386</ele>
        <time>2010-01-01T00:36:59Z</time>
      </trkpt>
      <trkpt lat="43.36469" lon="6.18189">
        <ele>388</ele>
        <time>2010-01-01T00:37:06Z</time>
      </trkpt>
      <trkpt lat="43.36472" lon="6.18186">
        <ele>389</ele>
        <time>2010-01-01T00:37:08Z</time>
      </trkpt>
      <trkpt lat="43.36475" lon="6.18183">
        <ele>390</ele>
        <time>2010-01-01T00:37:09Z</time>
      </trkpt>
      <trkpt lat="43.36478" lon="6.18178">
        <ele>391</ele>
        <time>2010-01-01T00:37:11Z</time>
      </trkpt>
      <trkpt lat="43.3648" lon="6.18172">
        <ele>392</ele>
        <time>2010-01-01T00:37:13Z</time>
      </trkpt>
      <trkpt lat="43.3648" lon="6.18151">
        <ele>390</ele>
        <time>2010-01-01T00:37:19Z</time>
      </trkpt>
      <trkpt lat="43.36479" lon="6.18142">
        <ele>388</ele>
        <time>2010-01-01T00:37:22Z</time>
      </trkpt>
      <trkpt lat="43.36479" lon="6.18137">
        <ele>388</ele>
        <time>2010-01-01T00:37:23Z</time>
      </trkpt>
      <trkpt lat="43.3648" lon="6.18132">
        <ele>388</ele>
        <time>2010-01-01T00:37:25Z</time>
      </trkpt>
      <trkpt lat="43.3648" lon="6.18127">
        <ele>388</ele>
        <time>2010-01-01T00:37:26Z</time>
      </trkpt>
      <trkpt lat="43.36481" lon="6.18122">
        <ele>388</ele>
        <time>2010-01-01T00:37:28Z</time>
      </trkpt>
      <trkpt lat="43.36482" lon="6.18119">
        <ele>388</ele>
        <time>2010-01-01T00:37:29Z</time>
      </trkpt>
      <trkpt lat="43.36483" lon="6.18114">
        <ele>388</ele>
        <time>2010-01-01T00:37:30Z</time>
      </trkpt>
      <trkpt lat="43.36485" lon="6.1811">
        <ele>389</ele>
        <time>2010-01-01T00:37:31Z</time>
      </trkpt>
      <trkpt lat="43.36486" lon="6.18107">
        <ele>390</ele>
        <time>2010-01-01T00:37:32Z</time>
      </trkpt>
      <trkpt lat="43.36487" lon="6.18103">
        <ele>390</ele>
        <time>2010-01-01T00:37:34Z</time>
      </trkpt>
      <trkpt lat="43.36494" lon="6.18089">
        <ele>396</ele>
        <time>2010-01-01T00:37:39Z</time>
      </trkpt>
      <trkpt lat="43.36496" lon="6.18084">
        <ele>399</ele>
        <time>2010-01-01T00:37:41Z</time>
      </trkpt>
      <trkpt lat="43.36496" lon="6.18078">
        <ele>397</ele>
        <time>2010-01-01T00:37:42Z</time>
      </trkpt>
      <trkpt lat="43.36496" lon="6.18073">
        <ele>395</ele>
        <time>2010-01-01T00:37:44Z</time>
      </trkpt>
      <trkpt lat="43.36495" lon="6.18067">
        <ele>394</ele>
        <time>2010-01-01T00:37:45Z</time>
      </trkpt>
      <trkpt lat="43.36493" lon="6.18047">
        <ele>391</ele>
        <time>2010-01-01T00:37:51Z</time>
      </trkpt>
      <trkpt lat="43.36493" lon="6.18045">
        <ele>391</ele>
        <time>2010-01-01T00:37:52Z</time>
      </trkpt>
      <trkpt lat="43.36491" lon="6.1804">
        <ele>391</ele>
        <time>2010-01-01T00:37:54Z</time>
      </trkpt>
      <trkpt lat="43.36489" lon="6.18036">
        <ele>391</ele>
        <time>2010-01-01T00:37:55Z</time>
      </trkpt>
      <trkpt lat="43.36488" lon="6.18032">
        <ele>391</ele>
        <time>2010-01-01T00:37:56Z</time>
      </trkpt>
      <trkpt lat="43.36487" lon="6.18027">
        <ele>392</ele>
        <time>2010-01-01T00:37:58Z</time>
      </trkpt>
      <trkpt lat="43.36484" lon="6.18014">
        <ele>393</ele>
        <time>2010-01-01T00:38:02Z</time>
      </trkpt>
      <trkpt lat="43.36483" lon="6.1801">
        <ele>393</ele>
        <time>2010-01-01T00:38:03Z</time>
      </trkpt>
      <trkpt lat="43.36483" lon="6.18005">
        <ele>394</ele>
        <time>2010-01-01T00:38:04Z</time>
      </trkpt>
      <trkpt lat="43.36482" lon="6.18">
        <ele>394</ele>
        <time>2010-01-01T00:38:06Z</time>
      </trkpt>
      <trkpt lat="43.36482" lon="6.17996">
        <ele>392</ele>
        <time>2010-01-01T00:38:07Z</time>
      </trkpt>
      <trkpt lat="43.36482" lon="6.17992">
        <ele>392</ele>
        <time>2010-01-01T00:38:08Z</time>
      </trkpt>
      <trkpt lat="43.36483" lon="6.17988">
        <ele>391</ele>
        <time>2010-01-01T00:38:09Z</time>
      </trkpt>
      <trkpt lat="43.36484" lon="6.17984">
        <ele>391</ele>
        <time>2010-01-01T00:38:11Z</time>
      </trkpt>
      <trkpt lat="43.36485" lon="6.17982">
        <ele>391</ele>
        <time>2010-01-01T00:38:11Z</time>
      </trkpt>
      <trkpt lat="43.36486" lon="6.1798">
        <ele>391</ele>
        <time>2010-01-01T00:38:12Z</time>
      </trkpt>
      <trkpt lat="43.36488" lon="6.17977">
        <ele>390</ele>
        <time>2010-01-01T00:38:13Z</time>
      </trkpt>
      <trkpt lat="43.36499" lon="6.17965">
        <ele>390</ele>
        <time>2010-01-01T00:38:19Z</time>
      </trkpt>
      <trkpt lat="43.36513" lon="6.1795">
        <ele>409</ele>
        <time>2010-01-01T00:38:26Z</time>
      </trkpt>
      <trkpt lat="43.36515" lon="6.17949">
        <ele>409</ele>
        <time>2010-01-01T00:38:27Z</time>
      </trkpt>
      <trkpt lat="43.36518" lon="6.17946">
        <ele>410</ele>
        <time>2010-01-01T00:38:28Z</time>
      </trkpt>
      <trkpt lat="43.3652" lon="6.17943">
        <ele>410</ele>
        <time>2010-01-01T00:38:30Z</time>
      </trkpt>
      <trkpt lat="43.36523" lon="6.1794">
        <ele>410</ele>
        <time>2010-01-01T00:38:31Z</time>
      </trkpt>
      <trkpt lat="43.36525" lon="6.17936">
        <ele>410</ele>
        <time>2010-01-01T00:38:33Z</time>
      </trkpt>
      <trkpt lat="43.36528" lon="6.17918">
        <ele>409</ele>
        <time>2010-01-01T00:38:38Z</time>
      </trkpt>
      <trkpt lat="43.36525" lon="6.17897">
        <ele>403</ele>
        <time>2010-01-01T00:38:44Z</time>
      </trkpt>
      <trkpt lat="43.36524" lon="6.1789">
        <ele>402</ele>
        <time>2010-01-01T00:38:46Z</time>
      </trkpt>
      <trkpt lat="43.36523" lon="6.17884">
        <ele>402</ele>
        <time>2010-01-01T00:38:48Z</time>
      </trkpt>
      <trkpt lat="43.36525" lon="6.17878">
        <ele>402</ele>
        <time>2010-01-01T00:38:50Z</time>
      </trkpt>
      <trkpt lat="43.36525" lon="6.17875">
        <ele>402</ele>
        <time>2010-01-01T00:38:51Z</time>
      </trkpt>
      <trkpt lat="43.36538" lon="6.17849">
        <ele>402</ele>
        <time>2010-01-01T00:39:00Z</time>
      </trkpt>
      <trkpt lat="43.36548" lon="6.17832">
        <ele>394</ele>
        <time>2010-01-01T00:39:06Z</time>
      </trkpt>
      <trkpt lat="43.36568" lon="6.17818">
        <ele>399</ele>
        <time>2010-01-01T00:39:15Z</time>
      </trkpt>
      <trkpt lat="43.36586" lon="6.17802">
        <ele>414</ele>
        <time>2010-01-01T00:39:24Z</time>
      </trkpt>
      <trkpt lat="43.366" lon="6.17782">
        <ele>412</ele>
        <time>2010-01-01T00:39:32Z</time>
      </trkpt>
      <trkpt lat="43.36606" lon="6.17761">
        <ele>409</ele>
        <time>2010-01-01T00:39:39Z</time>
      </trkpt>
      <trkpt lat="43.3661" lon="6.1773">
        <ele>398</ele>
        <time>2010-01-01T00:39:48Z</time>
      </trkpt>
      <trkpt lat="43.36621" lon="6.17707">
        <ele>397</ele>
        <time>2010-01-01T00:39:56Z</time>
      </trkpt>
      <trkpt lat="43.36638" lon="6.17698">
        <ele>398</ele>
        <time>2010-01-01T00:40:03Z</time>
      </trkpt>
      <trkpt lat="43.36655" lon="6.1769">
        <ele>399</ele>
        <time>2010-01-01T00:40:10Z</time>
      </trkpt>
      <trkpt lat="43.36675" lon="6.17685">
        <ele>411</ele>
        <time>2010-01-01T00:40:18Z</time>
      </trkpt>
      <trkpt lat="43.36698" lon="6.17674">
        <ele>416</ele>
        <time>2010-01-01T00:40:28Z</time>
      </trkpt>
      <trkpt lat="43.36712" lon="6.17652">
        <ele>407</ele>
        <time>2010-01-01T00:40:37Z</time>
      </trkpt>
      <trkpt lat="43.36726" lon="6.17627">
        <ele>408</ele>
        <time>2010-01-01T00:40:46Z</time>
      </trkpt>
      <trkpt lat="43.36731" lon="6.17603">
        <ele>408</ele>
        <time>2010-01-01T00:40:53Z</time>
      </trkpt>
      <trkpt lat="43.36728" lon="6.17584">
        <ele>408</ele>
        <time>2010-01-01T00:40:59Z</time>
      </trkpt>
      <trkpt lat="43.36727" lon="6.17564">
        <ele>400</ele>
        <time>2010-01-01T00:41:04Z</time>
      </trkpt>
      <trkpt lat="43.36739" lon="6.1753">
        <ele>400</ele>
        <time>2010-01-01T00:41:16Z</time>
      </trkpt>
      <trkpt lat="43.36751" lon="6.17489">
        <ele>415</ele>
        <time>2010-01-01T00:41:28Z</time>
      </trkpt>
      <trkpt lat="43.36756" lon="6.17456">
        <ele>419</ele>
        <time>2010-01-01T00:41:38Z</time>
      </trkpt>
      <trkpt lat="43.36754" lon="6.17427">
        <ele>412</ele>
        <time>2010-01-01T00:41:47Z</time>
      </trkpt>
      <trkpt lat="43.36751" lon="6.17391">
        <ele>411</ele>
        <time>2010-01-01T00:41:57Z</time>
      </trkpt>
      <trkpt lat="43.36759" lon="6.17368">
        <ele>412</ele>
        <time>2010-01-01T00:42:05Z</time>
      </trkpt>
      <trkpt lat="43.36775" lon="6.17334">
        <ele>411</ele>
        <time>2010-01-01T00:42:17Z</time>
      </trkpt>
      <trkpt lat="43.36786" lon="6.17313">
        <ele>406</ele>
        <time>2010-01-01T00:42:24Z</time>
      </trkpt>
      <trkpt lat="43.36804" lon="6.17282">
        <ele>407</ele>
        <time>2010-01-01T00:42:36Z</time>
      </trkpt>
      <trkpt lat="43.36827" lon="6.17246">
        <ele>408</ele>
        <time>2010-01-01T00:42:49Z</time>
      </trkpt>
      <trkpt lat="43.36839" lon="6.17222">
        <ele>422</ele>
        <time>2010-01-01T00:42:58Z</time>
      </trkpt>
      <trkpt lat="43.36843" lon="6.17203">
        <ele>423</ele>
        <time>2010-01-01T00:43:04Z</time>
      </trkpt>
      <trkpt lat="43.36843" lon="6.17191">
        <ele>422</ele>
        <time>2010-01-01T00:43:07Z</time>
      </trkpt>
      <trkpt lat="43.36839" lon="6.17179">
        <ele>418</ele>
        <time>2010-01-01T00:43:11Z</time>
      </trkpt>
      <trkpt lat="43.36833" lon="6.17166">
        <ele>411</ele>
        <time>2010-01-01T00:43:15Z</time>
      </trkpt>
      <trkpt lat="43.36831" lon="6.17164">
        <ele>410</ele>
        <time>2010-01-01T00:43:16Z</time>
      </trkpt>
      <trkpt lat="43.36823" lon="6.17138">
        <ele>406</ele>
        <time>2010-01-01T00:43:25Z</time>
      </trkpt>
      <trkpt lat="43.36815" lon="6.17099">
        <ele>409</ele>
        <time>2010-01-01T00:43:36Z</time>
      </trkpt>
      <trkpt lat="43.36814" lon="6.17077">
        <ele>413</ele>
        <time>2010-01-01T00:43:43Z</time>
      </trkpt>
      <trkpt lat="43.36812" lon="6.17057">
        <ele>411</ele>
        <time>2010-01-01T00:43:49Z</time>
      </trkpt>
      <trkpt lat="43.36811" lon="6.17026">
        <ele>411</ele>
        <time>2010-01-01T00:43:58Z</time>
      </trkpt>
      <trkpt lat="43.3681" lon="6.16991">
        <ele>411</ele>
        <time>2010-01-01T00:44:08Z</time>
      </trkpt>
      <trkpt lat="43.36812" lon="6.16972">
        <ele>410</ele>
        <time>2010-01-01T00:44:14Z</time>
      </trkpt>
      <trkpt lat="43.36815" lon="6.16954">
        <ele>409</ele>
        <time>2010-01-01T00:44:19Z</time>
      </trkpt>
      <trkpt lat="43.36817" lon="6.16947">
        <ele>409</ele>
        <time>2010-01-01T00:44:21Z</time>
      </trkpt>
      <trkpt lat="43.36819" lon="6.16939">
        <ele>410</ele>
        <time>2010-01-01T00:44:24Z</time>
      </trkpt>
      <trkpt lat="43.36822" lon="6.16931">
        <ele>411</ele>
        <time>2010-01-01T00:44:26Z</time>
      </trkpt>
      <trkpt lat="43.36823" lon="6.16924">
        <ele>413</ele>
        <time>2010-01-01T00:44:28Z</time>
      </trkpt>
      <trkpt lat="43.36827" lon="6.16901">
        <ele>409</ele>
        <time>2010-01-01T00:44:35Z</time>
      </trkpt>
      <trkpt lat="43.36829" lon="6.16883">
        <ele>405</ele>
        <time>2010-01-01T00:44:41Z</time>
      </trkpt>
      <trkpt lat="43.36833" lon="6.16861">
        <ele>404</ele>
        <time>2010-01-01T00:44:47Z</time>
      </trkpt>
      <trkpt lat="43.36839" lon="6.16849">
        <ele>418</ele>
        <time>2010-01-01T00:44:51Z</time>
      </trkpt>
      <trkpt lat="43.3685" lon="6.16817">
        <ele>415</ele>
        <time>2010-01-01T00:45:02Z</time>
      </trkpt>
      <trkpt lat="43.36861" lon="6.16788">
        <ele>417</ele>
        <time>2010-01-01T00:45:11Z</time>
      </trkpt>
      <trkpt lat="43.36878" lon="6.16752">
        <ele>419</ele>
        <time>2010-01-01T00:45:24Z</time>
      </trkpt>
      <trkpt lat="43.3689" lon="6.16725">
        <ele>416</ele>
        <time>2010-01-01T00:45:33Z</time>
      </trkpt>
      <trkpt lat="43.36892" lon="6.16698">
        <ele>415</ele>
        <time>2010-01-01T00:45:41Z</time>
      </trkpt>
      <trkpt lat="43.36893" lon="6.1668">
        <ele>416</ele>
        <time>2010-01-01T00:45:46Z</time>
      </trkpt>
      <trkpt lat="43.36893" lon="6.1667">
        <ele>416</ele>
        <time>2010-01-01T00:45:49Z</time>
      </trkpt>
      <trkpt lat="43.36892" lon="6.16661">
        <ele>415</ele>
        <time>2010-01-01T00:45:51Z</time>
      </trkpt>
      <trkpt lat="43.36893" lon="6.16651">
        <ele>414</ele>
        <time>2010-01-01T00:45:54Z</time>
      </trkpt>
      <trkpt lat="43.36893" lon="6.16641">
        <ele>414</ele>
        <time>2010-01-01T00:45:57Z</time>
      </trkpt>
      <trkpt lat="43.36895" lon="6.16591">
        <ele>416</ele>
        <time>2010-01-01T00:46:12Z</time>
      </trkpt>
      <trkpt lat="43.36899" lon="6.16546">
        <ele>418</ele>
        <time>2010-01-01T00:46:25Z</time>
      </trkpt>
      <trkpt lat="43.36893" lon="6.16518">
        <ele>419</ele>
        <time>2010-01-01T00:46:34Z</time>
      </trkpt>
      <trkpt lat="43.36873" lon="6.16506">
        <ele>416</ele>
        <time>2010-01-01T00:46:42Z</time>
      </trkpt>
      <trkpt lat="43.36852" lon="6.16496">
        <ele>416</ele>
        <time>2010-01-01T00:46:51Z</time>
      </trkpt>
      <trkpt lat="43.36848" lon="6.16494">
        <ele>415</ele>
        <time>2010-01-01T00:46:53Z</time>
      </trkpt>
      <trkpt lat="43.36842" lon="6.1649">
        <ele>414</ele>
        <time>2010-01-01T00:46:56Z</time>
      </trkpt>
      <trkpt lat="43.36835" lon="6.16484">
        <ele>415</ele>
        <time>2010-01-01T00:46:59Z</time>
      </trkpt>
      <trkpt lat="43.36831" lon="6.16477">
        <ele>407</ele>
        <time>2010-01-01T00:47:01Z</time>
      </trkpt>
      <trkpt lat="43.36829" lon="6.16469">
        <ele>406</ele>
        <time>2010-01-01T00:47:04Z</time>
      </trkpt>
      <trkpt lat="43.36829" lon="6.16441">
        <ele>408</ele>
        <time>2010-01-01T00:47:12Z</time>
      </trkpt>
      <trkpt lat="43.36835" lon="6.16409">
        <ele>415</ele>
        <time>2010-01-01T00:47:22Z</time>
      </trkpt>
      <trkpt lat="43.36845" lon="6.16378">
        <ele>419</ele>
        <time>2010-01-01T00:47:31Z</time>
      </trkpt>
      <trkpt lat="43.36853" lon="6.16348">
        <ele>418</ele>
        <time>2010-01-01T00:47:41Z</time>
      </trkpt>
      <trkpt lat="43.36856" lon="6.16313">
        <ele>417</ele>
        <time>2010-01-01T00:47:51Z</time>
      </trkpt>
      <trkpt lat="43.36856" lon="6.16291">
        <ele>417</ele>
        <time>2010-01-01T00:47:57Z</time>
      </trkpt>
      <trkpt lat="43.36859" lon="6.16263">
        <ele>417</ele>
        <time>2010-01-01T00:48:06Z</time>
      </trkpt>
      <trkpt lat="43.3686" lon="6.16257">
        <ele>417</ele>
        <time>2010-01-01T00:48:08Z</time>
      </trkpt>
      <trkpt lat="43.36861" lon="6.1625">
        <ele>417</ele>
        <time>2010-01-01T00:48:09Z</time>
      </trkpt>
      <trkpt lat="43.36862" lon="6.16246">
        <ele>415</ele>
        <time>2010-01-01T00:48:11Z</time>
      </trkpt>
      <trkpt lat="43.36862" lon="6.16241">
        <ele>416</ele>
        <time>2010-01-01T00:48:12Z</time>
      </trkpt>
      <trkpt lat="43.36845" lon="6.16204">
        <ele>416</ele>
        <time>2010-01-01T00:48:25Z</time>
      </trkpt>
      <trkpt lat="43.36832" lon="6.16185">
        <ele>413</ele>
        <time>2010-01-01T00:48:33Z</time>
      </trkpt>
      <trkpt lat="43.36821" lon="6.16157">
        <ele>414</ele>
        <time>2010-01-01T00:48:42Z</time>
      </trkpt>
      <trkpt lat="43.36818" lon="6.16125">
        <ele>412</ele>
        <time>2010-01-01T00:48:51Z</time>
      </trkpt>
      <trkpt lat="43.36818" lon="6.16088">
        <ele>414</ele>
        <time>2010-01-01T00:49:02Z</time>
      </trkpt>
      <trkpt lat="43.36816" lon="6.16045">
        <ele>413</ele>
        <time>2010-01-01T00:49:14Z</time>
      </trkpt>
      <trkpt lat="43.36818" lon="6.16001">
        <ele>416</ele>
        <time>2010-01-01T00:49:27Z</time>
      </trkpt>
      <trkpt lat="43.36813" lon="6.1594">
        <ele>416</ele>
        <time>2010-01-01T00:49:45Z</time>
      </trkpt>
      <trkpt lat="43.36809" lon="6.15892">
        <ele>419</ele>
        <time>2010-01-01T00:49:59Z</time>
      </trkpt>
      <trkpt lat="43.36807" lon="6.15861">
        <ele>419</ele>
        <time>2010-01-01T00:50:08Z</time>
      </trkpt>
      <trkpt lat="43.36804" lon="6.15841">
        <ele>419</ele>
        <time>2010-01-01T00:50:14Z</time>
      </trkpt>
      <trkpt lat="43.36797" lon="6.15821">
        <ele>423</ele>
        <time>2010-01-01T00:50:21Z</time>
      </trkpt>
      <trkpt lat="43.36792" lon="6.15799">
        <ele>424</ele>
        <time>2010-01-01T00:50:27Z</time>
      </trkpt>
      <trkpt lat="43.36783" lon="6.15787">
        <ele>425</ele>
        <time>2010-01-01T00:50:32Z</time>
      </trkpt>
      <trkpt lat="43.36775" lon="6.15781">
        <ele>426</ele>
        <time>2010-01-01T00:50:36Z</time>
      </trkpt>
      <trkpt lat="43.36765" lon="6.15787">
        <ele>426</ele>
        <time>2010-01-01T00:50:40Z</time>
      </trkpt>
      <trkpt lat="43.36763" lon="6.158">
        <ele>425</ele>
        <time>2010-01-01T00:50:44Z</time>
      </trkpt>
      <trkpt lat="43.36744" lon="6.15822">
        <ele>427</ele>
        <time>2010-01-01T00:50:54Z</time>
      </trkpt>
      <trkpt lat="43.36727" lon="6.15848">
        <ele>422</ele>
        <time>2010-01-01T00:51:04Z</time>
      </trkpt>
      <trkpt lat="43.36695" lon="6.15883">
        <ele>421</ele>
        <time>2010-01-01T00:51:21Z</time>
      </trkpt>
      <trkpt lat="43.36689" lon="6.15865">
        <ele>422</ele>
        <time>2010-01-01T00:51:27Z</time>
      </trkpt>
      <trkpt lat="43.36679" lon="6.15844">
        <ele>425</ele>
        <time>2010-01-01T00:51:34Z</time>
      </trkpt>
      <trkpt lat="43.36677" lon="6.15834">
        <ele>426</ele>
        <time>2010-01-01T00:51:37Z</time>
      </trkpt>
      <trkpt lat="43.36663" lon="6.15807">
        <ele>431</ele>
        <time>2010-01-01T00:51:47Z</time>
      </trkpt>
      <trkpt lat="43.36656" lon="6.15792">
        <ele>432</ele>
        <time>2010-01-01T00:51:52Z</time>
      </trkpt>
      <trkpt lat="43.36644" lon="6.15777">
        <ele>433</ele>
        <time>2010-01-01T00:51:58Z</time>
      </trkpt>
      <trkpt lat="43.36643" lon="6.15776">
        <ele>433</ele>
        <time>2010-01-01T00:51:59Z</time>
      </trkpt>
      <trkpt lat="43.36637" lon="6.15771">
        <ele>434</ele>
        <time>2010-01-01T00:52:02Z</time>
      </trkpt>
      <trkpt lat="43.36625" lon="6.15759">
        <ele>434</ele>
        <time>2010-01-01T00:52:07Z</time>
      </trkpt>
      <trkpt lat="43.36611" lon="6.15746">
        <ele>442</ele>
        <time>2010-01-01T00:52:14Z</time>
      </trkpt>
      <trkpt lat="43.36598" lon="6.15736">
        <ele>441</ele>
        <time>2010-01-01T00:52:20Z</time>
      </trkpt>
      <trkpt lat="43.36588" lon="6.1573">
        <ele>441</ele>
        <time>2010-01-01T00:52:24Z</time>
      </trkpt>
      <trkpt lat="43.36578" lon="6.15723">
        <ele>436</ele>
        <time>2010-01-01T00:52:29Z</time>
      </trkpt>
      <trkpt lat="43.36566" lon="6.15702">
        <ele>437</ele>
        <time>2010-01-01T00:52:37Z</time>
      </trkpt>
      <trkpt lat="43.36558" lon="6.1568">
        <ele>438</ele>
        <time>2010-01-01T00:52:44Z</time>
      </trkpt>
      <trkpt lat="43.36558" lon="6.15668">
        <ele>439</ele>
        <time>2010-01-01T00:52:48Z</time>
      </trkpt>
      <trkpt lat="43.36558" lon="6.15651">
        <ele>442</ele>
        <time>2010-01-01T00:52:52Z</time>
      </trkpt>
      <trkpt lat="43.36555" lon="6.15625">
        <ele>442</ele>
        <time>2010-01-01T00:53:00Z</time>
      </trkpt>
      <trkpt lat="43.3655" lon="6.15606">
        <ele>442</ele>
        <time>2010-01-01T00:53:06Z</time>
      </trkpt>
      <trkpt lat="43.36545" lon="6.15589">
        <ele>441</ele>
        <time>2010-01-01T00:53:11Z</time>
      </trkpt>
      <trkpt lat="43.3654" lon="6.15572">
        <ele>442</ele>
        <time>2010-01-01T00:53:17Z</time>
      </trkpt>
      <trkpt lat="43.3654" lon="6.15571">
        <ele>442</ele>
        <time>2010-01-01T00:53:17Z</time>
      </trkpt>
      <trkpt lat="43.36538" lon="6.15561">
        <ele>442</ele>
        <time>2010-01-01T00:53:20Z</time>
      </trkpt>
      <trkpt lat="43.36533" lon="6.15535">
        <ele>442</ele>
        <time>2010-01-01T00:53:28Z</time>
      </trkpt>
      <trkpt lat="43.3653" lon="6.15517">
        <ele>441</ele>
        <time>2010-01-01T00:53:33Z</time>
      </trkpt>
      <trkpt lat="43.36521" lon="6.15492">
        <ele>440</ele>
        <time>2010-01-01T00:53:41Z</time>
      </trkpt>
      <trkpt lat="43.36518" lon="6.1547">
        <ele>440</ele>
        <time>2010-01-01T00:53:48Z</time>
      </trkpt>
      <trkpt lat="43.36516" lon="6.15454">
        <ele>441</ele>
        <time>2010-01-01T00:53:53Z</time>
      </trkpt>
      <trkpt lat="43.36513" lon="6.15435">
        <ele>441</ele>
        <time>2010-01-01T00:53:58Z</time>
      </trkpt>
      <trkpt lat="43.3651" lon="6.15403">
        <ele>440</ele>
        <time>2010-01-01T00:54:08Z</time>
      </trkpt>
      <trkpt lat="43.36509" lon="6.15381">
        <ele>440</ele>
        <time>2010-01-01T00:54:14Z</time>
      </trkpt>
      <trkpt lat="43.36502" lon="6.15365">
        <ele>439</ele>
        <time>2010-01-01T00:54:19Z</time>
      </trkpt>
      <trkpt lat="43.36493" lon="6.15351">
        <ele>440</ele>
        <time>2010-01-01T00:54:25Z</time>
      </trkpt>
      <trkpt lat="43.36482" lon="6.15342">
        <ele>440</ele>
        <time>2010-01-01T00:54:30Z</time>
      </trkpt>
      <trkpt lat="43.36478" lon="6.15322">
        <ele>443</ele>
        <time>2010-01-01T00:54:36Z</time>
      </trkpt>
      <trkpt lat="43.36489" lon="6.15292">
        <ele>444</ele>
        <time>2010-01-01T00:54:46Z</time>
      </trkpt>
      <trkpt lat="43.36498" lon="6.15267">
        <ele>443</ele>
        <time>2010-01-01T00:54:54Z</time>
      </trkpt>
      <trkpt lat="43.36509" lon="6.15247">
        <ele>440</ele>
        <time>2010-01-01T00:55:01Z</time>
      </trkpt>
      <trkpt lat="43.36527" lon="6.15232">
        <ele>440</ele>
        <time>2010-01-01T00:55:09Z</time>
      </trkpt>
      <trkpt lat="43.36548" lon="6.15215">
        <ele>439</ele>
        <time>2010-01-01T00:55:19Z</time>
      </trkpt>
      <trkpt lat="43.36551" lon="6.15188">
        <ele>439</ele>
        <time>2010-01-01T00:55:27Z</time>
      </trkpt>
      <trkpt lat="43.36554" lon="6.15162">
        <ele>439</ele>
        <time>2010-01-01T00:55:35Z</time>
      </trkpt>
      <trkpt lat="43.36555" lon="6.15139">
        <ele>440</ele>
        <time>2010-01-01T00:55:42Z</time>
      </trkpt>
      <trkpt lat="43.36553" lon="6.1512">
        <ele>440</ele>
        <time>2010-01-01T00:55:47Z</time>
      </trkpt>
      <trkpt lat="43.36551" lon="6.15109">
        <ele>441</ele>
        <time>2010-01-01T00:55:51Z</time>
      </trkpt>
      <trkpt lat="43.36549" lon="6.15094">
        <ele>441</ele>
        <time>2010-01-01T00:55:55Z</time>
      </trkpt>
      <trkpt lat="43.3655" lon="6.15077">
        <ele>442</ele>
        <time>2010-01-01T00:56:00Z</time>
      </trkpt>
      <trkpt lat="43.36551" lon="6.15059">
        <ele>443</ele>
        <time>2010-01-01T00:56:05Z</time>
      </trkpt>
      <trkpt lat="43.36552" lon="6.15043">
        <ele>443</ele>
        <time>2010-01-01T00:56:10Z</time>
      </trkpt>
      <trkpt lat="43.36554" lon="6.15008">
        <ele>442</ele>
        <time>2010-01-01T00:56:20Z</time>
      </trkpt>
      <trkpt lat="43.36553" lon="6.14984">
        <ele>442</ele>
        <time>2010-01-01T00:56:27Z</time>
      </trkpt>
      <trkpt lat="43.36549" lon="6.14962">
        <ele>442</ele>
        <time>2010-01-01T00:56:33Z</time>
      </trkpt>
      <trkpt lat="43.36544" lon="6.14935">
        <ele>442</ele>
        <time>2010-01-01T00:56:42Z</time>
      </trkpt>
      <trkpt lat="43.3654" lon="6.14919">
        <ele>443</ele>
        <time>2010-01-01T00:56:47Z</time>
      </trkpt>
      <trkpt lat="43.36534" lon="6.14894">
        <ele>439</ele>
        <time>2010-01-01T00:56:54Z</time>
      </trkpt>
      <trkpt lat="43.36532" lon="6.14869">
        <ele>438</ele>
        <time>2010-01-01T00:57:02Z</time>
      </trkpt>
      <trkpt lat="43.36525" lon="6.14846">
        <ele>438</ele>
        <time>2010-01-01T00:57:09Z</time>
      </trkpt>
      <trkpt lat="43.36522" lon="6.14834">
        <ele>439</ele>
        <time>2010-01-01T00:57:13Z</time>
      </trkpt>
      <trkpt lat="43.36506" lon="6.14831">
        <ele>439</ele>
        <time>2010-01-01T00:57:19Z</time>
      </trkpt>
      <trkpt lat="43.36493" lon="6.14825">
        <ele>446</ele>
        <time>2010-01-01T00:57:24Z</time>
      </trkpt>
      <trkpt lat="43.36479" lon="6.14811">
        <ele>450</ele>
        <time>2010-01-01T00:57:31Z</time>
      </trkpt>
      <trkpt lat="43.36466" lon="6.14796">
        <ele>452</ele>
        <time>2010-01-01T00:57:38Z</time>
      </trkpt>
      <trkpt lat="43.36453" lon="6.14773">
        <ele>454</ele>
        <time>2010-01-01T00:57:47Z</time>
      </trkpt>
      <trkpt lat="43.36445" lon="6.14757">
        <ele>456</ele>
        <time>2010-01-01T00:57:52Z</time>
      </trkpt>
      <trkpt lat="43.36433" lon="6.14741">
        <ele>456</ele>
        <time>2010-01-01T00:57:59Z</time>
      </trkpt>
      <trkpt lat="43.36421" lon="6.14716">
        <ele>453</ele>
        <time>2010-01-01T00:58:08Z</time>
      </trkpt>
      <trkpt lat="43.36415" lon="6.14694">
        <ele>475</ele>
        <time>2010-01-01T00:58:15Z</time>
      </trkpt>
      <trkpt lat="43.36407" lon="6.14672">
        <ele>470</ele>
        <time>2010-01-01T00:58:22Z</time>
      </trkpt>
      <trkpt lat="43.36407" lon="6.1466">
        <ele>468</ele>
        <time>2010-01-01T00:58:25Z</time>
      </trkpt>
      <trkpt lat="43.36398" lon="6.14647">
        <ele>473</ele>
        <time>2010-01-01T00:58:31Z</time>
      </trkpt>
      <trkpt lat="43.36394" lon="6.14636">
        <ele>475</ele>
        <time>2010-01-01T00:58:34Z</time>
      </trkpt>
      <trkpt lat="43.36391" lon="6.14626">
        <ele>475</ele>
        <time>2010-01-01T00:58:37Z</time>
      </trkpt>
      <trkpt lat="43.36385" lon="6.14613">
        <ele>476</ele>
        <time>2010-01-01T00:58:42Z</time>
      </trkpt>
      <trkpt lat="43.36379" lon="6.14603">
        <ele>477</ele>
        <time>2010-01-01T00:58:46Z</time>
      </trkpt>
      <trkpt lat="43.36372" lon="6.14608">
        <ele>479</ele>
        <time>2010-01-01T00:58:49Z</time>
      </trkpt>
      <trkpt lat="43.36367" lon="6.14626">
        <ele>481</ele>
        <time>2010-01-01T00:58:54Z</time>
      </trkpt>
      <trkpt lat="43.36366" lon="6.14643">
        <ele>482</ele>
        <time>2010-01-01T00:58:59Z</time>
      </trkpt>
      <trkpt lat="43.36361" lon="6.14672">
        <ele>488</ele>
        <time>2010-01-01T00:59:08Z</time>
      </trkpt>
      <trkpt lat="43.36361" lon="6.14707">
        <ele>487</ele>
        <time>2010-01-01T00:59:18Z</time>
      </trkpt>
      <trkpt lat="43.36357" lon="6.14735">
        <ele>491</ele>
        <time>2010-01-01T00:59:27Z</time>
      </trkpt>
      <trkpt lat="43.36354" lon="6.1475">
        <ele>493</ele>
        <time>2010-01-01T00:59:31Z</time>
      </trkpt>
      <trkpt lat="43.36345" lon="6.14768">
        <ele>497</ele>
        <time>2010-01-01T00:59:37Z</time>
      </trkpt>
      <trkpt lat="43.36329" lon="6.14798">
        <ele>521</ele>
        <time>2010-01-01T00:59:48Z</time>
      </trkpt>
      <trkpt lat="43.36307" lon="6.14828">
        <ele>524</ele>
        <time>2010-01-01T01:00:01Z</time>
      </trkpt>
      <trkpt lat="43.3629" lon="6.14861">
        <ele>529</ele>
        <time>2010-01-01T01:00:12Z</time>
      </trkpt>
      <trkpt lat="43.36284" lon="6.14881">
        <ele>530</ele>
        <time>2010-01-01T01:00:19Z</time>
      </trkpt>
      <trkpt lat="43.36277" lon="6.14893">
        <ele>531</ele>
        <time>2010-01-01T01:00:23Z</time>
      </trkpt>
      <trkpt lat="43.36273" lon="6.14915">
        <ele>534</ele>
        <time>2010-01-01T01:00:30Z</time>
      </trkpt>
      <trkpt lat="43.36271" lon="6.14937">
        <ele>532</ele>
        <time>2010-01-01T01:00:36Z</time>
      </trkpt>
      <trkpt lat="43.36262" lon="6.14951">
        <ele>533</ele>
        <time>2010-01-01T01:00:42Z</time>
      </trkpt>
      <trkpt lat="43.36249" lon="6.14974">
        <ele>555</ele>
        <time>2010-01-01T01:00:50Z</time>
      </trkpt>
      <trkpt lat="43.3624" lon="6.15001">
        <ele>547</ele>
        <time>2010-01-01T01:00:59Z</time>
      </trkpt>
      <trkpt lat="43.36229" lon="6.15017">
        <ele>550</ele>
        <time>2010-01-01T01:01:05Z</time>
      </trkpt>
      <trkpt lat="43.36219" lon="6.15028">
        <ele>551</ele>
        <time>2010-01-01T01:01:10Z</time>
      </trkpt>
      <trkpt lat="43.36212" lon="6.15039">
        <ele>551</ele>
        <time>2010-01-01T01:01:15Z</time>
      </trkpt>
      <trkpt lat="43.36204" lon="6.15049">
        <ele>552</ele>
        <time>2010-01-01T01:01:19Z</time>
      </trkpt>
      <trkpt lat="43.36198" lon="6.15054">
        <ele>552</ele>
        <time>2010-01-01T01:01:22Z</time>
      </trkpt>
      <trkpt lat="43.36189" lon="6.15054">
        <ele>553</ele>
        <time>2010-01-01T01:01:26Z</time>
      </trkpt>
      <trkpt lat="43.36178" lon="6.15052">
        <ele>554</ele>
        <time>2010-01-01T01:01:30Z</time>
      </trkpt>
      <trkpt lat="43.36169" lon="6.15055">
        <ele>555</ele>
        <time>2010-01-01T01:01:33Z</time>
      </trkpt>
      <trkpt lat="43.36158" lon="6.15054">
        <ele>559</ele>
        <time>2010-01-01T01:01:38Z</time>
      </trkpt>
      <trkpt lat="43.3615" lon="6.15054">
        <ele>559</ele>
        <time>2010-01-01T01:01:41Z</time>
      </trkpt>
      <trkpt lat="43.36143" lon="6.1505">
        <ele>560</ele>
        <time>2010-01-01T01:01:44Z</time>
      </trkpt>
      <trkpt lat="43.36137" lon="6.15045">
        <ele>560</ele>
        <time>2010-01-01T01:01:47Z</time>
      </trkpt>
      <trkpt lat="43.36127" lon="6.15035">
        <ele>561</ele>
        <time>2010-01-01T01:01:52Z</time>
      </trkpt>
      <trkpt lat="43.3612" lon="6.15031">
        <ele>561</ele>
        <time>2010-01-01T01:01:55Z</time>
      </trkpt>
      <trkpt lat="43.36114" lon="6.15021">
        <ele>563</ele>
        <time>2010-01-01T01:01:59Z</time>
      </trkpt>
      <trkpt lat="43.36109" lon="6.15025">
        <ele>562</ele>
        <time>2010-01-01T01:02:01Z</time>
      </trkpt>
      <trkpt lat="43.36094" lon="6.15024">
        <ele>562</ele>
        <time>2010-01-01T01:02:07Z</time>
      </trkpt>
      <trkpt lat="43.36086" lon="6.15016">
        <ele>564</ele>
        <time>2010-01-01T01:02:11Z</time>
      </trkpt>
      <trkpt lat="43.3608" lon="6.15005">
        <ele>562</ele>
        <time>2010-01-01T01:02:15Z</time>
      </trkpt>
      <trkpt lat="43.36074" lon="6.14996">
        <ele>565</ele>
        <time>2010-01-01T01:02:19Z</time>
      </trkpt>
      <trkpt lat="43.36069" lon="6.14985">
        <ele>563</ele>
        <time>2010-01-01T01:02:22Z</time>
      </trkpt>
      <trkpt lat="43.36061" lon="6.14972">
        <ele>561</ele>
        <time>2010-01-01T01:02:27Z</time>
      </trkpt>
      <trkpt lat="43.36056" lon="6.14967">
        <ele>560</ele>
        <time>2010-01-01T01:02:30Z</time>
      </trkpt>
      <trkpt lat="43.3605" lon="6.14954">
        <ele>561</ele>
        <time>2010-01-01T01:02:34Z</time>
      </trkpt>
      <trkpt lat="43.36043" lon="6.14945">
        <ele>560</ele>
        <time>2010-01-01T01:02:38Z</time>
      </trkpt>
      <trkpt lat="43.36037" lon="6.14941">
        <ele>559</ele>
        <time>2010-01-01T01:02:41Z</time>
      </trkpt>
      <trkpt lat="43.3603" lon="6.14935">
        <ele>557</ele>
        <time>2010-01-01T01:02:44Z</time>
      </trkpt>
      <trkpt lat="43.36021" lon="6.14923">
        <ele>555</ele>
        <time>2010-01-01T01:02:49Z</time>
      </trkpt>
      <trkpt lat="43.36014" lon="6.14911">
        <ele>559</ele>
        <time>2010-01-01T01:02:54Z</time>
      </trkpt>
      <trkpt lat="43.36004" lon="6.14897">
        <ele>562</ele>
        <time>2010-01-01T01:02:59Z</time>
      </trkpt>
      <trkpt lat="43.35996" lon="6.14883">
        <ele>543</ele>
        <time>2010-01-01T01:03:05Z</time>
      </trkpt>
      <trkpt lat="43.35983" lon="6.14861">
        <ele>544</ele>
        <time>2010-01-01T01:03:13Z</time>
      </trkpt>
      <trkpt lat="43.35973" lon="6.14846">
        <ele>545</ele>
        <time>2010-01-01T01:03:19Z</time>
      </trkpt>
      <trkpt lat="43.35963" lon="6.14829">
        <ele>551</ele>
        <time>2010-01-01T01:03:25Z</time>
      </trkpt>
      <trkpt lat="43.35954" lon="6.14814">
        <ele>548</ele>
        <time>2010-01-01T01:03:31Z</time>
      </trkpt>
      <trkpt lat="43.35946" lon="6.14802">
        <ele>547</ele>
        <time>2010-01-01T01:03:35Z</time>
      </trkpt>
      <trkpt lat="43.35937" lon="6.14789">
        <ele>546</ele>
        <time>2010-01-01T01:03:41Z</time>
      </trkpt>
      <trkpt lat="43.35929" lon="6.14776">
        <ele>544</ele>
        <time>2010-01-01T01:03:46Z</time>
      </trkpt>
      <trkpt lat="43.35916" lon="6.14762">
        <ele>524</ele>
        <time>2010-01-01T01:03:52Z</time>
      </trkpt>
      <trkpt lat="43.35907" lon="6.14743">
        <ele>527</ele>
        <time>2010-01-01T01:03:59Z</time>
      </trkpt>
      <trkpt lat="43.35901" lon="6.14724">
        <ele>522</ele>
        <time>2010-01-01T01:04:05Z</time>
      </trkpt>
      <trkpt lat="43.35893" lon="6.14707">
        <ele>521</ele>
        <time>2010-01-01T01:04:11Z</time>
      </trkpt>
      <trkpt lat="43.35885" lon="6.14685">
        <ele>520</ele>
        <time>2010-01-01T01:04:18Z</time>
      </trkpt>
      <trkpt lat="43.35881" lon="6.14671">
        <ele>520</ele>
        <time>2010-01-01T01:04:22Z</time>
      </trkpt>
      <trkpt lat="43.35877" lon="6.14652">
        <ele>521</ele>
        <time>2010-01-01T01:04:28Z</time>
      </trkpt>
      <trkpt lat="43.3587" lon="6.14639">
        <ele>519</ele>
        <time>2010-01-01T01:04:33Z</time>
      </trkpt>
      <trkpt lat="43.35865" lon="6.14632">
        <ele>518</ele>
        <time>2010-01-01T01:04:36Z</time>
      </trkpt>
      <trkpt lat="43.35859" lon="6.14637">
        <ele>516</ele>
        <time>2010-01-01T01:04:39Z</time>
      </trkpt>
      <trkpt lat="43.35853" lon="6.14634">
        <ele>515</ele>
        <time>2010-01-01T01:04:41Z</time>
      </trkpt>
      <trkpt lat="43.35846" lon="6.1463">
        <ele>514</ele>
        <time>2010-01-01T01:04:44Z</time>
      </trkpt>
      <trkpt lat="43.35838" lon="6.14631">
        <ele>513</ele>
        <time>2010-01-01T01:04:47Z</time>
      </trkpt>
      <trkpt lat="43.35835" lon="6.14634">
        <ele>512</ele>
        <time>2010-01-01T01:04:49Z</time>
      </trkpt>
      <trkpt lat="43.35828" lon="6.14645">
        <ele>491</ele>
        <time>2010-01-01T01:04:53Z</time>
      </trkpt>
      <trkpt lat="43.35818" lon="6.14645">
        <ele>490</ele>
        <time>2010-01-01T01:04:57Z</time>
      </trkpt>
      <trkpt lat="43.35811" lon="6.14661">
        <ele>489</ele>
        <time>2010-01-01T01:05:03Z</time>
      </trkpt>
      <trkpt lat="43.35801" lon="6.1467">
        <ele>485</ele>
        <time>2010-01-01T01:05:07Z</time>
      </trkpt>
      <trkpt lat="43.35794" lon="6.1467">
        <ele>483</ele>
        <time>2010-01-01T01:05:10Z</time>
      </trkpt>
      <trkpt lat="43.35784" lon="6.1467">
        <ele>481</ele>
        <time>2010-01-01T01:05:14Z</time>
      </trkpt>
      <trkpt lat="43.35783" lon="6.1467">
        <ele>480</ele>
        <time>2010-01-01T01:05:15Z</time>
      </trkpt>
      <trkpt lat="43.35779" lon="6.14672">
        <ele>480</ele>
        <time>2010-01-01T01:05:16Z</time>
      </trkpt>
      <trkpt lat="43.35768" lon="6.14678">
        <ele>477</ele>
        <time>2010-01-01T01:05:21Z</time>
      </trkpt>
      <trkpt lat="43.35762" lon="6.14686">
        <ele>477</ele>
        <time>2010-01-01T01:05:24Z</time>
      </trkpt>
      <trkpt lat="43.35753" lon="6.14692">
        <ele>477</ele>
        <time>2010-01-01T01:05:28Z</time>
      </trkpt>
      <trkpt lat="43.35748" lon="6.1469">
        <ele>465</ele>
        <time>2010-01-01T01:05:31Z</time>
      </trkpt>
      <trkpt lat="43.35739" lon="6.14691">
        <ele>464</ele>
        <time>2010-01-01T01:05:34Z</time>
      </trkpt>
      <trkpt lat="43.35735" lon="6.14693">
        <ele>464</ele>
        <time>2010-01-01T01:05:36Z</time>
      </trkpt>
      <trkpt lat="43.35718" lon="6.147">
        <ele>462</ele>
        <time>2010-01-01T01:05:43Z</time>
      </trkpt>
      <trkpt lat="43.35709" lon="6.14698">
        <ele>461</ele>
        <time>2010-01-01T01:05:47Z</time>
      </trkpt>
      <trkpt lat="43.35703" lon="6.14694">
        <ele>460</ele>
        <time>2010-01-01T01:05:49Z</time>
      </trkpt>
      <trkpt lat="43.35699" lon="6.14698">
        <ele>460</ele>
        <time>2010-01-01T01:05:51Z</time>
      </trkpt>
      <trkpt lat="43.35691" lon="6.14707">
        <ele>459</ele>
        <time>2010-01-01T01:05:55Z</time>
      </trkpt>
      <trkpt lat="43.35683" lon="6.1471">
        <ele>459</ele>
        <time>2010-01-01T01:05:59Z</time>
      </trkpt>
      <trkpt lat="43.35674" lon="6.14712">
        <ele>458</ele>
        <time>2010-01-01T01:06:02Z</time>
      </trkpt>
      <trkpt lat="43.35667" lon="6.14718">
        <ele>458</ele>
        <time>2010-01-01T01:06:05Z</time>
      </trkpt>
      <trkpt lat="43.3566" lon="6.1472">
        <ele>449</ele>
        <time>2010-01-01T01:06:08Z</time>
      </trkpt>
      <trkpt lat="43.35654" lon="6.14719">
        <ele>449</ele>
        <time>2010-01-01T01:06:11Z</time>
      </trkpt>
      <trkpt lat="43.35647" lon="6.1472">
        <ele>449</ele>
        <time>2010-01-01T01:06:14Z</time>
      </trkpt>
      <trkpt lat="43.35643" lon="6.147">
        <ele>448</ele>
        <time>2010-01-01T01:06:20Z</time>
      </trkpt>
      <trkpt lat="43.3564" lon="6.14678">
        <ele>449</ele>
        <time>2010-01-01T01:06:26Z</time>
      </trkpt>
      <trkpt lat="43.35638" lon="6.1466">
        <ele>447</ele>
        <time>2010-01-01T01:06:32Z</time>
      </trkpt>
      <trkpt lat="43.35636" lon="6.14645">
        <ele>446</ele>
        <time>2010-01-01T01:06:36Z</time>
      </trkpt>
      <trkpt lat="43.35632" lon="6.14634">
        <ele>445</ele>
        <time>2010-01-01T01:06:39Z</time>
      </trkpt>
      <trkpt lat="43.35629" lon="6.14621">
        <ele>445</ele>
        <time>2010-01-01T01:06:43Z</time>
      </trkpt>
      <trkpt lat="43.35626" lon="6.14606">
        <ele>444</ele>
        <time>2010-01-01T01:06:48Z</time>
      </trkpt>
      <trkpt lat="43.35627" lon="6.1459">
        <ele>444</ele>
        <time>2010-01-01T01:06:53Z</time>
      </trkpt>
      <trkpt lat="43.35627" lon="6.14577">
        <ele>442</ele>
        <time>2010-01-01T01:06:56Z</time>
      </trkpt>
      <trkpt lat="43.35628" lon="6.14558">
        <ele>441</ele>
        <time>2010-01-01T01:07:02Z</time>
      </trkpt>
      <trkpt lat="43.35628" lon="6.14544">
        <ele>441</ele>
        <time>2010-01-01T01:07:06Z</time>
      </trkpt>
      <trkpt lat="43.35634" lon="6.14525">
        <ele>441</ele>
        <time>2010-01-01T01:07:12Z</time>
      </trkpt>
      <trkpt lat="43.35636" lon="6.14506">
        <ele>441</ele>
        <time>2010-01-01T01:07:18Z</time>
      </trkpt>
      <trkpt lat="43.35637" lon="6.14491">
        <ele>437</ele>
        <time>2010-01-01T01:07:22Z</time>
      </trkpt>
      <trkpt lat="43.35637" lon="6.14475">
        <ele>436</ele>
        <time>2010-01-01T01:07:27Z</time>
      </trkpt>
      <trkpt lat="43.35638" lon="6.14461">
        <ele>435</ele>
        <time>2010-01-01T01:07:31Z</time>
      </trkpt>
      <trkpt lat="43.35635" lon="6.14437">
        <ele>435</ele>
        <time>2010-01-01T01:07:38Z</time>
      </trkpt>
      <trkpt lat="43.3563" lon="6.1441">
        <ele>432</ele>
        <time>2010-01-01T01:07:46Z</time>
      </trkpt>
      <trkpt lat="43.35629" lon="6.1439">
        <ele>431</ele>
        <time>2010-01-01T01:07:52Z</time>
      </trkpt>
      <trkpt lat="43.35627" lon="6.14372">
        <ele>431</ele>
        <time>2010-01-01T01:07:57Z</time>
      </trkpt>
      <trkpt lat="43.35625" lon="6.14357">
        <ele>431</ele>
        <time>2010-01-01T01:08:01Z</time>
      </trkpt>
      <trkpt lat="43.3562" lon="6.14342">
        <ele>431</ele>
        <time>2010-01-01T01:08:06Z</time>
      </trkpt>
      <trkpt lat="43.35612" lon="6.14329">
        <ele>429</ele>
        <time>2010-01-01T01:08:11Z</time>
      </trkpt>
      <trkpt lat="43.35599" lon="6.14315">
        <ele>428</ele>
        <time>2010-01-01T01:08:18Z</time>
      </trkpt>
      <trkpt lat="43.35588" lon="6.14303">
        <ele>428</ele>
        <time>2010-01-01T01:08:23Z</time>
      </trkpt>
      <trkpt lat="43.3558" lon="6.14296">
        <ele>421</ele>
        <time>2010-01-01T01:08:27Z</time>
      </trkpt>
      <trkpt lat="43.35571" lon="6.14295">
        <ele>421</ele>
        <time>2010-01-01T01:08:31Z</time>
      </trkpt>
      <trkpt lat="43.35561" lon="6.14293">
        <ele>420</ele>
        <time>2010-01-01T01:08:35Z</time>
      </trkpt>
      <trkpt lat="43.35549" lon="6.14291">
        <ele>420</ele>
        <time>2010-01-01T01:08:40Z</time>
      </trkpt>
      <trkpt lat="43.35539" lon="6.14287">
        <ele>419</ele>
        <time>2010-01-01T01:08:44Z</time>
      </trkpt>
      <trkpt lat="43.35529" lon="6.14283">
        <ele>418</ele>
        <time>2010-01-01T01:08:48Z</time>
      </trkpt>
      <trkpt lat="43.35518" lon="6.14276">
        <ele>418</ele>
        <time>2010-01-01T01:08:53Z</time>
      </trkpt>
      <trkpt lat="43.35507" lon="6.1427">
        <ele>417</ele>
        <time>2010-01-01T01:08:57Z</time>
      </trkpt>
      <trkpt lat="43.35498" lon="6.14266">
        <ele>413</ele>
        <time>2010-01-01T01:09:01Z</time>
      </trkpt>
      <trkpt lat="43.35471" lon="6.1426">
        <ele>411</ele>
        <time>2010-01-01T01:09:12Z</time>
      </trkpt>
      <trkpt lat="43.35459" lon="6.14251">
        <ele>410</ele>
        <time>2010-01-01T01:09:18Z</time>
      </trkpt>
      <trkpt lat="43.35447" lon="6.14242">
        <ele>410</ele>
        <time>2010-01-01T01:09:23Z</time>
      </trkpt>
      <trkpt lat="43.35445" lon="6.14229">
        <ele>410</ele>
        <time>2010-01-01T01:09:27Z</time>
      </trkpt>
      <trkpt lat="43.35439" lon="6.14221">
        <ele>410</ele>
        <time>2010-01-01T01:09:31Z</time>
      </trkpt>
      <trkpt lat="43.35426" lon="6.14224">
        <ele>409</ele>
        <time>2010-01-01T01:09:36Z</time>
      </trkpt>
      <trkpt lat="43.3542" lon="6.14228">
        <ele>409</ele>
        <time>2010-01-01T01:09:38Z</time>
      </trkpt>
      <trkpt lat="43.35409" lon="6.14225">
        <ele>405</ele>
        <time>2010-01-01T01:09:43Z</time>
      </trkpt>
      <trkpt lat="43.35399" lon="6.14226">
        <ele>405</ele>
        <time>2010-01-01T01:09:47Z</time>
      </trkpt>
      <trkpt lat="43.35393" lon="6.14218">
        <ele>405</ele>
        <time>2010-01-01T01:09:50Z</time>
      </trkpt>
      <trkpt lat="43.35381" lon="6.14203">
        <ele>404</ele>
        <time>2010-01-01T01:09:57Z</time>
      </trkpt>
      <trkpt lat="43.35368" lon="6.14196">
        <ele>404</ele>
        <time>2010-01-01T01:10:02Z</time>
      </trkpt>
      <trkpt lat="43.35361" lon="6.14196">
        <ele>403</ele>
        <time>2010-01-01T01:10:05Z</time>
      </trkpt>
      <trkpt lat="43.3535" lon="6.14195">
        <ele>403</ele>
        <time>2010-01-01T01:10:10Z</time>
      </trkpt>
      <trkpt lat="43.35335" lon="6.14192">
        <ele>403</ele>
        <time>2010-01-01T01:10:16Z</time>
      </trkpt>
      <trkpt lat="43.35324" lon="6.14195">
        <ele>397</ele>
        <time>2010-01-01T01:10:20Z</time>
      </trkpt>
      <trkpt lat="43.35314" lon="6.14196">
        <ele>396</ele>
        <time>2010-01-01T01:10:24Z</time>
      </trkpt>
      <trkpt lat="43.35304" lon="6.14198">
        <ele>396</ele>
        <time>2010-01-01T01:10:28Z</time>
      </trkpt>
      <trkpt lat="43.35301" lon="6.14209">
        <ele>395</ele>
        <time>2010-01-01T01:10:32Z</time>
      </trkpt>
      <trkpt lat="43.35298" lon="6.14219">
        <ele>395</ele>
        <time>2010-01-01T01:10:35Z</time>
      </trkpt>
      <trkpt lat="43.35293" lon="6.14235">
        <ele>394</ele>
        <time>2010-01-01T01:10:40Z</time>
      </trkpt>
      <trkpt lat="43.35291" lon="6.1425">
        <ele>394</ele>
        <time>2010-01-01T01:10:44Z</time>
      </trkpt>
      <trkpt lat="43.35289" lon="6.14265">
        <ele>391</ele>
        <time>2010-01-01T01:10:49Z</time>
      </trkpt>
      <trkpt lat="43.3529" lon="6.14267">
        <ele>391</ele>
        <time>2010-01-01T01:10:49Z</time>
      </trkpt>
      <trkpt lat="43.35292" lon="6.14281">
        <ele>391</ele>
        <time>2010-01-01T01:10:54Z</time>
      </trkpt>
      <trkpt lat="43.35287" lon="6.14284">
        <ele>391</ele>
        <time>2010-01-01T01:10:56Z</time>
      </trkpt>
      <trkpt lat="43.35277" lon="6.14286">
        <ele>390</ele>
        <time>2010-01-01T01:11:00Z</time>
      </trkpt>
      <trkpt lat="43.35271" lon="6.14292">
        <ele>390</ele>
        <time>2010-01-01T01:11:03Z</time>
      </trkpt>
      <trkpt lat="43.35259" lon="6.14292">
        <ele>389</ele>
        <time>2010-01-01T01:11:08Z</time>
      </trkpt>
      <trkpt lat="43.35258" lon="6.1429">
        <ele>389</ele>
        <time>2010-01-01T01:11:08Z</time>
      </trkpt>
      <trkpt lat="43.35253" lon="6.14286">
        <ele>389</ele>
        <time>2010-01-01T01:11:11Z</time>
      </trkpt>
      <trkpt lat="43.35243" lon="6.14281">
        <ele>383</ele>
        <time>2010-01-01T01:11:15Z</time>
      </trkpt>
      <trkpt lat="43.35234" lon="6.14276">
        <ele>382</ele>
        <time>2010-01-01T01:11:19Z</time>
      </trkpt>
      <trkpt lat="43.35227" lon="6.14258">
        <ele>382</ele>
        <time>2010-01-01T01:11:25Z</time>
      </trkpt>
      <trkpt lat="43.35216" lon="6.14245">
        <ele>381</ele>
        <time>2010-01-01T01:11:30Z</time>
      </trkpt>
      <trkpt lat="43.35208" lon="6.14237">
        <ele>379</ele>
        <time>2010-01-01T01:11:35Z</time>
      </trkpt>
      <trkpt lat="43.35192" lon="6.14221">
        <ele>378</ele>
        <time>2010-01-01T01:11:43Z</time>
      </trkpt>
      <trkpt lat="43.35173" lon="6.14209">
        <ele>377</ele>
        <time>2010-01-01T01:11:51Z</time>
      </trkpt>
      <trkpt lat="43.35151" lon="6.14211">
        <ele>369</ele>
        <time>2010-01-01T01:12:00Z</time>
      </trkpt>
      <trkpt lat="43.35137" lon="6.1421">
        <ele>368</ele>
        <time>2010-01-01T01:12:05Z</time>
      </trkpt>
      <trkpt lat="43.35125" lon="6.14208">
        <ele>368</ele>
        <time>2010-01-01T01:12:10Z</time>
      </trkpt>
      <trkpt lat="43.35107" lon="6.14195">
        <ele>367</ele>
        <time>2010-01-01T01:12:18Z</time>
      </trkpt>
      <trkpt lat="43.3509" lon="6.14183">
        <ele>365</ele>
        <time>2010-01-01T01:12:26Z</time>
      </trkpt>
      <trkpt lat="43.35089" lon="6.14183">
        <ele>365</ele>
        <time>2010-01-01T01:12:26Z</time>
      </trkpt>
      <trkpt lat="43.35071" lon="6.14183">
        <ele>362</ele>
        <time>2010-01-01T01:12:33Z</time>
      </trkpt>
      <trkpt lat="43.35052" lon="6.14185">
        <ele>362</ele>
        <time>2010-01-01T01:12:41Z</time>
      </trkpt>
      <trkpt lat="43.35037" lon="6.14177">
        <ele>361</ele>
        <time>2010-01-01T01:12:48Z</time>
      </trkpt>
      <trkpt lat="43.3502" lon="6.14161">
        <ele>358</ele>
        <time>2010-01-01T01:12:56Z</time>
      </trkpt>
      <trkpt lat="43.34993" lon="6.14136">
        <ele>356</ele>
        <time>2010-01-01T01:13:09Z</time>
      </trkpt>
      <trkpt lat="43.34981" lon="6.14119">
        <ele>356</ele>
        <time>2010-01-01T01:13:16Z</time>
      </trkpt>
      <trkpt lat="43.3497" lon="6.14102">
        <ele>355</ele>
        <time>2010-01-01T01:13:22Z</time>
      </trkpt>
      <trkpt lat="43.34958" lon="6.14077">
        <ele>349</ele>
        <time>2010-01-01T01:13:31Z</time>
      </trkpt>
      <trkpt lat="43.34948" lon="6.14056">
        <ele>348</ele>
        <time>2010-01-01T01:13:38Z</time>
      </trkpt>
      <trkpt lat="43.3494" lon="6.14046">
        <ele>348</ele>
        <time>2010-01-01T01:13:43Z</time>
      </trkpt>
      <trkpt lat="43.34929" lon="6.14027">
        <ele>345</ele>
        <time>2010-01-01T01:13:50Z</time>
      </trkpt>
      <trkpt lat="43.34916" lon="6.14012">
        <ele>342</ele>
        <time>2010-01-01T01:13:57Z</time>
      </trkpt>
      <trkpt lat="43.34898" lon="6.14003">
        <ele>343</ele>
        <time>2010-01-01T01:14:04Z</time>
      </trkpt>
      <trkpt lat="43.34883" lon="6.14001">
        <ele>344</ele>
        <time>2010-01-01T01:14:10Z</time>
      </trkpt>
      <trkpt lat="43.34866" lon="6.13993">
        <ele>340</ele>
        <time>2010-01-01T01:14:17Z</time>
      </trkpt>
      <trkpt lat="43.34848" lon="6.13984">
        <ele>340</ele>
        <time>2010-01-01T01:14:25Z</time>
      </trkpt>
      <trkpt lat="43.34829" lon="6.13973">
        <ele>339</ele>
        <time>2010-01-01T01:14:33Z</time>
      </trkpt>
      <trkpt lat="43.34818" lon="6.1395">
        <ele>338</ele>
        <time>2010-01-01T01:14:41Z</time>
      </trkpt>
      <trkpt lat="43.34808" lon="6.13932">
        <ele>338</ele>
        <time>2010-01-01T01:14:48Z</time>
      </trkpt>
      <trkpt lat="43.34798" lon="6.13913">
        <ele>334</ele>
        <time>2010-01-01T01:14:55Z</time>
      </trkpt>
      <trkpt lat="43.3479" lon="6.13897">
        <ele>334</ele>
        <time>2010-01-01T01:15:00Z</time>
      </trkpt>
      <trkpt lat="43.34787" lon="6.13893">
        <ele>334</ele>
        <time>2010-01-01T01:15:02Z</time>
      </trkpt>
      <trkpt lat="43.34785" lon="6.13891">
        <ele>334</ele>
        <time>2010-01-01T01:15:03Z</time>
      </trkpt>
      <trkpt lat="43.34783" lon="6.13882">
        <ele>334</ele>
        <time>2010-01-01T01:15:06Z</time>
      </trkpt>
      <trkpt lat="43.34782" lon="6.1388">
        <ele>334</ele>
        <time>2010-01-01T01:15:06Z</time>
      </trkpt>
      <trkpt lat="43.34781" lon="6.13874">
        <ele>333</ele>
        <time>2010-01-01T01:15:08Z</time>
      </trkpt>
      <trkpt lat="43.3478" lon="6.13872">
        <ele>333</ele>
        <time>2010-01-01T01:15:09Z</time>
      </trkpt>
      <trkpt lat="43.34774" lon="6.13856">
        <ele>332</ele>
        <time>2010-01-01T01:15:14Z</time>
      </trkpt>
      <trkpt lat="43.34768" lon="6.13841">
        <ele>331</ele>
        <time>2010-01-01T01:15:19Z</time>
      </trkpt>
      <trkpt lat="43.34763" lon="6.13831">
        <ele>331</ele>
        <time>2010-01-01T01:15:23Z</time>
      </trkpt>
      <trkpt lat="43.34749" lon="6.13827">
        <ele>326</ele>
        <time>2010-01-01T01:15:28Z</time>
      </trkpt>
      <trkpt lat="43.3474" lon="6.13827">
        <ele>326</ele>
        <time>2010-01-01T01:15:32Z</time>
      </trkpt>
      <trkpt lat="43.3474" lon="6.13827">
        <ele>326</ele>
        <time>2010-01-01T01:15:32Z</time>
      </trkpt>
      <trkpt lat="43.34732" lon="6.13828">
        <ele>326</ele>
        <time>2010-01-01T01:15:35Z</time>
      </trkpt>
      <trkpt lat="43.34722" lon="6.13829">
        <ele>326</ele>
        <time>2010-01-01T01:15:39Z</time>
      </trkpt>
      <trkpt lat="43.3469" lon="6.13823">
        <ele>324</ele>
        <time>2010-01-01T01:15:52Z</time>
      </trkpt>
      <trkpt lat="43.34675" lon="6.13818">
        <ele>323</ele>
        <time>2010-01-01T01:15:58Z</time>
      </trkpt>
      <trkpt lat="43.34664" lon="6.13814">
        <ele>320</ele>
        <time>2010-01-01T01:16:03Z</time>
      </trkpt>
      <trkpt lat="43.34648" lon="6.13804">
        <ele>319</ele>
        <time>2010-01-01T01:16:10Z</time>
      </trkpt>
      <trkpt lat="43.34635" lon="6.138">
        <ele>319</ele>
        <time>2010-01-01T01:16:15Z</time>
      </trkpt>
      <trkpt lat="43.34634" lon="6.138">
        <ele>319</ele>
        <time>2010-01-01T01:16:16Z</time>
      </trkpt>
      <trkpt lat="43.3462" lon="6.13798">
        <ele>319</ele>
        <time>2010-01-01T01:16:21Z</time>
      </trkpt>
      <trkpt lat="43.34602" lon="6.13795">
        <ele>318</ele>
        <time>2010-01-01T01:16:29Z</time>
      </trkpt>
      <trkpt lat="43.34584" lon="6.13796">
        <ele>318</ele>
        <time>2010-01-01T01:16:36Z</time>
      </trkpt>
      <trkpt lat="43.34571" lon="6.13792">
        <ele>313</ele>
        <time>2010-01-01T01:16:41Z</time>
      </trkpt>
      <trkpt lat="43.34558" lon="6.13791">
        <ele>313</ele>
        <time>2010-01-01T01:16:46Z</time>
      </trkpt>
      <trkpt lat="43.34544" lon="6.13787">
        <ele>312</ele>
        <time>2010-01-01T01:16:52Z</time>
      </trkpt>
      <trkpt lat="43.34529" lon="6.13787">
        <ele>311</ele>
        <time>2010-01-01T01:16:58Z</time>
      </trkpt>
      <trkpt lat="43.34511" lon="6.13789">
        <ele>310</ele>
        <time>2010-01-01T01:17:05Z</time>
      </trkpt>
      <trkpt lat="43.34496" lon="6.13789">
        <ele>306</ele>
        <time>2010-01-01T01:17:11Z</time>
      </trkpt>
      <trkpt lat="43.34483" lon="6.13791">
        <ele>305</ele>
        <time>2010-01-01T01:17:17Z</time>
      </trkpt>
      <trkpt lat="43.34467" lon="6.13799">
        <ele>305</ele>
        <time>2010-01-01T01:17:23Z</time>
      </trkpt>
      <trkpt lat="43.34466" lon="6.13799">
        <ele>305</ele>
        <time>2010-01-01T01:17:24Z</time>
      </trkpt>
      <trkpt lat="43.34459" lon="6.13827">
        <ele>306</ele>
        <time>2010-01-01T01:17:32Z</time>
      </trkpt>
      <trkpt lat="43.3444" lon="6.13869">
        <ele>307</ele>
        <time>2010-01-01T01:17:47Z</time>
      </trkpt>
      <trkpt lat="43.34431" lon="6.13891">
        <ele>307</ele>
        <time>2010-01-01T01:17:54Z</time>
      </trkpt>
      <trkpt lat="43.34421" lon="6.13901">
        <ele>306</ele>
        <time>2010-01-01T01:17:59Z</time>
      </trkpt>
      <trkpt lat="43.34405" lon="6.13891">
        <ele>302</ele>
        <time>2010-01-01T01:18:06Z</time>
      </trkpt>
      <trkpt lat="43.34391" lon="6.1391">
        <ele>303</ele>
        <time>2010-01-01T01:18:13Z</time>
      </trkpt>
      <trkpt lat="43.34373" lon="6.13933">
        <ele>308</ele>
        <time>2010-01-01T01:18:24Z</time>
      </trkpt>
      <trkpt lat="43.34354" lon="6.13921">
        <ele>307</ele>
        <time>2010-01-01T01:18:32Z</time>
      </trkpt>
      <trkpt lat="43.3434" lon="6.13904">
        <ele>303</ele>
        <time>2010-01-01T01:18:40Z</time>
      </trkpt>
      <trkpt lat="43.34318" lon="6.13883">
        <ele>304</ele>
        <time>2010-01-01T01:18:50Z</time>
      </trkpt>
      <trkpt lat="43.34301" lon="6.13862">
        <ele>303</ele>
        <time>2010-01-01T01:18:59Z</time>
      </trkpt>
      <trkpt lat="43.34284" lon="6.1384">
        <ele>303</ele>
        <time>2010-01-01T01:19:09Z</time>
      </trkpt>
      <trkpt lat="43.34269" lon="6.13824">
        <ele>298</ele>
        <time>2010-01-01T01:19:16Z</time>
      </trkpt>
      <trkpt lat="43.3425" lon="6.13804">
        <ele>297</ele>
        <time>2010-01-01T01:19:26Z</time>
      </trkpt>
      <trkpt lat="43.3423" lon="6.13781">
        <ele>295</ele>
        <time>2010-01-01T01:19:36Z</time>
      </trkpt>
      <trkpt lat="43.34209" lon="6.13767">
        <ele>295</ele>
        <time>2010-01-01T01:19:46Z</time>
      </trkpt>
      <trkpt lat="43.34208" lon="6.13766">
        <ele>295</ele>
        <time>2010-01-01T01:19:46Z</time>
      </trkpt>
      <trkpt lat="43.34188" lon="6.13743">
        <ele>288</ele>
        <time>2010-01-01T01:19:56Z</time>
      </trkpt>
      <trkpt lat="43.34166" lon="6.13731">
        <ele>286</ele>
        <time>2010-01-01T01:20:06Z</time>
      </trkpt>
      <trkpt lat="43.34136" lon="6.1371">
        <ele>283</ele>
        <time>2010-01-01T01:20:19Z</time>
      </trkpt>
      <trkpt lat="43.34111" lon="6.1371">
        <ele>282</ele>
        <time>2010-01-01T01:20:30Z</time>
      </trkpt>
      <trkpt lat="43.34095" lon="6.13708">
        <ele>282</ele>
        <time>2010-01-01T01:20:36Z</time>
      </trkpt>
      <trkpt lat="43.34064" lon="6.13712">
        <ele>277</ele>
        <time>2010-01-01T01:20:49Z</time>
      </trkpt>
      <trkpt lat="43.34054" lon="6.13671">
        <ele>276</ele>
        <time>2010-01-01T01:21:01Z</time>
      </trkpt>
      <trkpt lat="43.34059" lon="6.13635">
        <ele>273</ele>
        <time>2010-01-01T01:21:12Z</time>
      </trkpt>
      <trkpt lat="43.34069" lon="6.1359">
        <ele>273</ele>
        <time>2010-01-01T01:21:25Z</time>
      </trkpt>
      <trkpt lat="43.34072" lon="6.13565">
        <ele>273</ele>
        <time>2010-01-01T01:21:33Z</time>
      </trkpt>
      <trkpt lat="43.34088" lon="6.13516">
        <ele>275</ele>
        <time>2010-01-01T01:21:48Z</time>
      </trkpt>
      <trkpt lat="43.34097" lon="6.13488">
        <ele>275</ele>
        <time>2010-01-01T01:21:57Z</time>
      </trkpt>
      <trkpt lat="43.34106" lon="6.13457">
        <ele>276</ele>
        <time>2010-01-01T01:22:07Z</time>
      </trkpt>
      <trkpt lat="43.34117" lon="6.13425">
        <ele>276</ele>
        <time>2010-01-01T01:22:17Z</time>
      </trkpt>
      <trkpt lat="43.34127" lon="6.13389">
        <ele>277</ele>
        <time>2010-01-01T01:22:29Z</time>
      </trkpt>
      <trkpt lat="43.34137" lon="6.13343">
        <ele>278</ele>
        <time>2010-01-01T01:22:43Z</time>
      </trkpt>
      <trkpt lat="43.34143" lon="6.13319">
        <ele>278</ele>
        <time>2010-01-01T01:22:50Z</time>
      </trkpt>
      <trkpt lat="43.34158" lon="6.13286">
        <ele>278</ele>
        <time>2010-01-01T01:23:01Z</time>
      </trkpt>
      <trkpt lat="43.34169" lon="6.13255">
        <ele>281</ele>
        <time>2010-01-01T01:23:11Z</time>
      </trkpt>
      <trkpt lat="43.34184" lon="6.13231">
        <ele>282</ele>
        <time>2010-01-01T01:23:20Z</time>
      </trkpt>
      <trkpt lat="43.34201" lon="6.13206">
        <ele>283</ele>
        <time>2010-01-01T01:23:31Z</time>
      </trkpt>
      <trkpt lat="43.34216" lon="6.13175">
        <ele>283</ele>
        <time>2010-01-01T01:23:41Z</time>
      </trkpt>
      <trkpt lat="43.34227" lon="6.13148">
        <ele>280</ele>
        <time>2010-01-01T01:23:50Z</time>
      </trkpt>
      <trkpt lat="43.34236" lon="6.13116">
        <ele>280</ele>
        <time>2010-01-01T01:24:00Z</time>
      </trkpt>
      <trkpt lat="43.34246" lon="6.13091">
        <ele>281</ele>
        <time>2010-01-01T01:24:09Z</time>
      </trkpt>
      <trkpt lat="43.34255" lon="6.13065">
        <ele>282</ele>
        <time>2010-01-01T01:24:17Z</time>
      </trkpt>
      <trkpt lat="43.34259" lon="6.13042">
        <ele>282</ele>
        <time>2010-01-01T01:24:24Z</time>
      </trkpt>
      <trkpt lat="43.34263" lon="6.13018">
        <ele>282</ele>
        <time>2010-01-01T01:24:31Z</time>
      </trkpt>
      <trkpt lat="43.34275" lon="6.1299">
        <ele>281</ele>
        <time>2010-01-01T01:24:41Z</time>
      </trkpt>
      <trkpt lat="43.3429" lon="6.1296">
        <ele>281</ele>
        <time>2010-01-01T01:24:51Z</time>
      </trkpt>
      <trkpt lat="43.34294" lon="6.1294">
        <ele>280</ele>
        <time>2010-01-01T01:24:57Z</time>
      </trkpt>
      <trkpt lat="43.34273" lon="6.12917">
        <ele>279</ele>
        <time>2010-01-01T01:25:08Z</time>
      </trkpt>
      <trkpt lat="43.34263" lon="6.129">
        <ele>277</ele>
        <time>2010-01-01T01:25:14Z</time>
      </trkpt>
      <trkpt lat="43.34251" lon="6.12899">
        <ele>277</ele>
        <time>2010-01-01T01:25:19Z</time>
      </trkpt>
      <trkpt lat="43.34238" lon="6.12923">
        <ele>276</ele>
        <time>2010-01-01T01:25:28Z</time>
      </trkpt>
      <trkpt lat="43.34211" lon="6.12935">
        <ele>276</ele>
        <time>2010-01-01T01:25:40Z</time>
      </trkpt>
      <trkpt lat="43.34209" lon="6.12935">
        <ele>276</ele>
        <time>2010-01-01T01:25:40Z</time>
      </trkpt>
      <trkpt lat="43.34198" lon="6.12938">
        <ele>276</ele>
        <time>2010-01-01T01:25:45Z</time>
      </trkpt>
      <trkpt lat="43.3416" lon="6.12948">
        <ele>274</ele>
        <time>2010-01-01T01:26:00Z</time>
      </trkpt>
      <trkpt lat="43.34157" lon="6.1298">
        <ele>275</ele>
        <time>2010-01-01T01:26:10Z</time>
      </trkpt>
      <trkpt lat="43.34149" lon="6.13025">
        <ele>275</ele>
        <time>2010-01-01T01:26:23Z</time>
      </trkpt>
      <trkpt lat="43.34127" lon="6.13094">
        <ele>275</ele>
        <time>2010-01-01T01:26:45Z</time>
      </trkpt>
      <trkpt lat="43.34119" lon="6.13142">
        <ele>275</ele>
        <time>2010-01-01T01:26:59Z</time>
      </trkpt>
      <trkpt lat="43.34105" lon="6.13213">
        <ele>275</ele>
        <time>2010-01-01T01:27:21Z</time>
      </trkpt>
      <trkpt lat="43.34102" lon="6.13218">
        <ele>275</ele>
        <time>2010-01-01T01:27:22Z</time>
      </trkpt>
      <trkpt lat="43.34082" lon="6.13249">
        <ele>273</ele>
        <time>2010-01-01T01:27:35Z</time>
      </trkpt>
      <trkpt lat="43.34074" lon="6.13273">
        <ele>273</ele>
        <time>2010-01-01T01:27:42Z</time>
      </trkpt>
      <trkpt lat="43.34052" lon="6.133">
        <ele>273</ele>
        <time>2010-01-01T01:27:54Z</time>
      </trkpt>
      <trkpt lat="43.34034" lon="6.13325">
        <ele>273</ele>
        <time>2010-01-01T01:28:04Z</time>
      </trkpt>
      <trkpt lat="43.33997" lon="6.13371">
        <ele>278</ele>
        <time>2010-01-01T01:28:24Z</time>
      </trkpt>
      <trkpt lat="43.33962" lon="6.13404">
        <ele>280</ele>
        <time>2010-01-01T01:28:41Z</time>
      </trkpt>
      <trkpt lat="43.3396" lon="6.13453">
        <ele>276</ele>
        <time>2010-01-01T01:28:55Z</time>
      </trkpt>
      <trkpt lat="43.33948" lon="6.13527">
        <ele>272</ele>
        <time>2010-01-01T01:29:18Z</time>
      </trkpt>
      <trkpt lat="43.33946" lon="6.13578">
        <ele>271</ele>
        <time>2010-01-01T01:29:33Z</time>
      </trkpt>
      <trkpt lat="43.33931" lon="6.13603">
        <ele>271</ele>
        <time>2010-01-01T01:29:42Z</time>
      </trkpt>
      <trkpt lat="43.33913" lon="6.13651">
        <ele>270</ele>
        <time>2010-01-01T01:29:58Z</time>
      </trkpt>
      <trkpt lat="43.3389" lon="6.13705">
        <ele>269</ele>
        <time>2010-01-01T01:30:16Z</time>
      </trkpt>
      <trkpt lat="43.33866" lon="6.13753">
        <ele>268</ele>
        <time>2010-01-01T01:30:33Z</time>
      </trkpt>
      <trkpt lat="43.33854" lon="6.13797">
        <ele>268</ele>
        <time>2010-01-01T01:30:46Z</time>
      </trkpt>
      <trkpt lat="43.33854" lon="6.13836">
        <ele>267</ele>
        <time>2010-01-01T01:30:58Z</time>
      </trkpt>
      <trkpt lat="43.33855" lon="6.13881">
        <ele>267</ele>
        <time>2010-01-01T01:31:11Z</time>
      </trkpt>
      <trkpt lat="43.33855" lon="6.13922">
        <ele>268</ele>
        <time>2010-01-01T01:31:23Z</time>
      </trkpt>
      <trkpt lat="43.33846" lon="6.13932">
        <ele>268</ele>
        <time>2010-01-01T01:31:28Z</time>
      </trkpt>
      <trkpt lat="43.33845" lon="6.13932">
        <ele>268</ele>
        <time>2010-01-01T01:31:28Z</time>
      </trkpt>
      <trkpt lat="43.33824" lon="6.13929">
        <ele>268</ele>
        <time>2010-01-01T01:31:37Z</time>
      </trkpt>
      <trkpt lat="43.33794" lon="6.13931">
        <ele>268</ele>
        <time>2010-01-01T01:31:48Z</time>
      </trkpt>
      <trkpt lat="43.33761" lon="6.13939">
        <ele>269</ele>
        <time>2010-01-01T01:32:02Z</time>
      </trkpt>
      <trkpt lat="43.33724" lon="6.13954">
        <ele>272</ele>
        <time>2010-01-01T01:32:18Z</time>
      </trkpt>
      <trkpt lat="43.33693" lon="6.13947">
        <ele>273</ele>
        <time>2010-01-01T01:32:30Z</time>
      </trkpt>
      <trkpt lat="43.33665" lon="6.13949">
        <ele>281</ele>
        <time>2010-01-01T01:32:41Z</time>
      </trkpt>
      <trkpt lat="43.33635" lon="6.13952">
        <ele>284</ele>
        <time>2010-01-01T01:32:53Z</time>
      </trkpt>
      <trkpt lat="43.33604" lon="6.13986">
        <ele>284</ele>
        <time>2010-01-01T01:33:09Z</time>
      </trkpt>
      <trkpt lat="43.33568" lon="6.13984">
        <ele>294</ele>
        <time>2010-01-01T01:33:24Z</time>
      </trkpt>
      <trkpt lat="43.33539" lon="6.1399">
        <ele>297</ele>
        <time>2010-01-01T01:33:35Z</time>
      </trkpt>
      <trkpt lat="43.33518" lon="6.14007">
        <ele>294</ele>
        <time>2010-01-01T01:33:45Z</time>
      </trkpt>
      <trkpt lat="43.33485" lon="6.14024">
        <ele>297</ele>
        <time>2010-01-01T01:33:59Z</time>
      </trkpt>
      <trkpt lat="43.33468" lon="6.14033">
        <ele>297</ele>
        <time>2010-01-01T01:34:07Z</time>
      </trkpt>
      <trkpt lat="43.33446" lon="6.14045">
        <ele>297</ele>
        <time>2010-01-01T01:34:16Z</time>
      </trkpt>
      <trkpt lat="43.33427" lon="6.14059">
        <ele>296</ele>
        <time>2010-01-01T01:34:25Z</time>
      </trkpt>
      <trkpt lat="43.33426" lon="6.1406">
        <ele>296</ele>
        <time>2010-01-01T01:34:25Z</time>
      </trkpt>
      <trkpt lat="43.33415" lon="6.1409">
        <ele>297</ele>
        <time>2010-01-01T01:34:35Z</time>
      </trkpt>
      <trkpt lat="43.33394" lon="6.14115">
        <ele>300</ele>
        <time>2010-01-01T01:34:46Z</time>
      </trkpt>
      <trkpt lat="43.3338" lon="6.14136">
        <ele>302</ele>
        <time>2010-01-01T01:34:54Z</time>
      </trkpt>
      <trkpt lat="43.33362" lon="6.14165">
        <ele>302</ele>
        <time>2010-01-01T01:35:06Z</time>
      </trkpt>
      <trkpt lat="43.33348" lon="6.14181">
        <ele>308</ele>
        <time>2010-01-01T01:35:13Z</time>
      </trkpt>
      <trkpt lat="43.33328" lon="6.14194">
        <ele>307</ele>
        <time>2010-01-01T01:35:22Z</time>
      </trkpt>
      <trkpt lat="43.33308" lon="6.14212">
        <ele>309</ele>
        <time>2010-01-01T01:35:31Z</time>
      </trkpt>
      <trkpt lat="43.33286" lon="6.14224">
        <ele>310</ele>
        <time>2010-01-01T01:35:41Z</time>
      </trkpt>
      <trkpt lat="43.33259" lon="6.14252">
        <ele>311</ele>
        <time>2010-01-01T01:35:54Z</time>
      </trkpt>
      <trkpt lat="43.33235" lon="6.14268">
        <ele>308</ele>
        <time>2010-01-01T01:36:05Z</time>
      </trkpt>
      <trkpt lat="43.33208" lon="6.14272">
        <ele>307</ele>
        <time>2010-01-01T01:36:15Z</time>
      </trkpt>
      <trkpt lat="43.33183" lon="6.14283">
        <ele>307</ele>
        <time>2010-01-01T01:36:26Z</time>
      </trkpt>
      <trkpt lat="43.33149" lon="6.14283">
        <ele>303</ele>
        <time>2010-01-01T01:36:40Z</time>
      </trkpt>
      <trkpt lat="43.33125" lon="6.14269">
        <ele>303</ele>
        <time>2010-01-01T01:36:50Z</time>
      </trkpt>
      <trkpt lat="43.33125" lon="6.14268">
        <ele>303</ele>
        <time>2010-01-01T01:36:50Z</time>
      </trkpt>
      <trkpt lat="43.33103" lon="6.14258">
        <ele>303</ele>
        <time>2010-01-01T01:37:00Z</time>
      </trkpt>
      <trkpt lat="43.33101" lon="6.14257">
        <ele>303</ele>
        <time>2010-01-01T01:37:00Z</time>
      </trkpt>
      <trkpt lat="43.33084" lon="6.14246">
        <ele>304</ele>
        <time>2010-01-01T01:37:08Z</time>
      </trkpt>
      <trkpt lat="43.33067" lon="6.14277">
        <ele>306</ele>
        <time>2010-01-01T01:37:19Z</time>
      </trkpt>
      <trkpt lat="43.33061" lon="6.14314">
        <ele>304</ele>
        <time>2010-01-01T01:37:30Z</time>
      </trkpt>
      <trkpt lat="43.33053" lon="6.14353">
        <ele>301</ele>
        <time>2010-01-01T01:37:42Z</time>
      </trkpt>
      <trkpt lat="43.33054" lon="6.14385">
        <ele>301</ele>
        <time>2010-01-01T01:37:51Z</time>
      </trkpt>
      <trkpt lat="43.33047" lon="6.14426">
        <ele>299</ele>
        <time>2010-01-01T01:38:04Z</time>
      </trkpt>
      <trkpt lat="43.3304" lon="6.14501">
        <ele>297</ele>
        <time>2010-01-01T01:38:25Z</time>
      </trkpt>
      <trkpt lat="43.33042" lon="6.14557">
        <ele>297</ele>
        <time>2010-01-01T01:38:42Z</time>
      </trkpt>
      <trkpt lat="43.33044" lon="6.14561">
        <ele>297</ele>
        <time>2010-01-01T01:38:43Z</time>
      </trkpt>
      <trkpt lat="43.33044" lon="6.14565">
        <ele>296</ele>
        <time>2010-01-01T01:38:44Z</time>
      </trkpt>
      <trkpt lat="43.33049" lon="6.14631">
        <ele>295</ele>
        <time>2010-01-01T01:39:04Z</time>
      </trkpt>
      <trkpt lat="43.33058" lon="6.14687">
        <ele>294</ele>
        <time>2010-01-01T01:39:20Z</time>
      </trkpt>
      <trkpt lat="43.33076" lon="6.14735">
        <ele>293</ele>
        <time>2010-01-01T01:39:36Z</time>
      </trkpt>
      <trkpt lat="43.33082" lon="6.14791">
        <ele>293</ele>
        <time>2010-01-01T01:39:53Z</time>
      </trkpt>
      <trkpt lat="43.33082" lon="6.14792">
        <ele>293</ele>
        <time>2010-01-01T01:39:53Z</time>
      </trkpt>
      <trkpt lat="43.33083" lon="6.14829">
        <ele>292</ele>
        <time>2010-01-01T01:40:04Z</time>
      </trkpt>
      <trkpt lat="43.33084" lon="6.14881">
        <ele>289</ele>
        <time>2010-01-01T01:40:19Z</time>
      </trkpt>
      <trkpt lat="43.33085" lon="6.14932">
        <ele>289</ele>
        <time>2010-01-01T01:40:34Z</time>
      </trkpt>
      <trkpt lat="43.33091" lon="6.14986">
        <ele>289</ele>
        <time>2010-01-01T01:40:49Z</time>
      </trkpt>
      <trkpt lat="43.33101" lon="6.15026">
        <ele>288</ele>
        <time>2010-01-01T01:41:02Z</time>
      </trkpt>
      <trkpt lat="43.33108" lon="6.15069">
        <ele>287</ele>
        <time>2010-01-01T01:41:15Z</time>
      </trkpt>
      <trkpt lat="43.33115" lon="6.15113">
        <ele>286</ele>
        <time>2010-01-01T01:41:28Z</time>
      </trkpt>
      <trkpt lat="43.33125" lon="6.15161">
        <ele>285</ele>
        <time>2010-01-01T01:41:42Z</time>
      </trkpt>
      <trkpt lat="43.33119" lon="6.15225">
        <ele>283</ele>
        <time>2010-01-01T01:42:01Z</time>
      </trkpt>
      <trkpt lat="43.33116" lon="6.15273">
        <ele>282</ele>
        <time>2010-01-01T01:42:15Z</time>
      </trkpt>
      <trkpt lat="43.33116" lon="6.15307">
        <ele>282</ele>
        <time>2010-01-01T01:42:25Z</time>
      </trkpt>
      <trkpt lat="43.33116" lon="6.15308">
        <ele>282</ele>
        <time>2010-01-01T01:42:25Z</time>
      </trkpt>
      <trkpt lat="43.33117" lon="6.15349">
        <ele>280</ele>
        <time>2010-01-01T01:42:37Z</time>
      </trkpt>
      <trkpt lat="43.33112" lon="6.15403">
        <ele>279</ele>
        <time>2010-01-01T01:42:53Z</time>
      </trkpt>
      <trkpt lat="43.33107" lon="6.15456">
        <ele>277</ele>
        <time>2010-01-01T01:43:09Z</time>
      </trkpt>
      <trkpt lat="43.33097" lon="6.15489">
        <ele>277</ele>
        <time>2010-01-01T01:43:19Z</time>
      </trkpt>
      <trkpt lat="43.33076" lon="6.15536">
        <ele>279</ele>
        <time>2010-01-01T01:43:35Z</time>
      </trkpt>
      <trkpt lat="43.3306" lon="6.15572">
        <ele>279</ele>
        <time>2010-01-01T01:43:48Z</time>
      </trkpt>
      <trkpt lat="43.33046" lon="6.15596">
        <ele>281</ele>
        <time>2010-01-01T01:43:56Z</time>
      </trkpt>
      <trkpt lat="43.33031" lon="6.15612">
        <ele>281</ele>
        <time>2010-01-01T01:44:04Z</time>
      </trkpt>
      <trkpt lat="43.33013" lon="6.15661">
        <ele>284</ele>
        <time>2010-01-01T01:44:20Z</time>
      </trkpt>
      <trkpt lat="43.32995" lon="6.15712">
        <ele>291</ele>
        <time>2010-01-01T01:44:36Z</time>
      </trkpt>
      <trkpt lat="43.3298" lon="6.15753">
        <ele>294</ele>
        <time>2010-01-01T01:44:50Z</time>
      </trkpt>
      <trkpt lat="43.32965" lon="6.15786">
        <ele>297</ele>
        <time>2010-01-01T01:45:01Z</time>
      </trkpt>
      <trkpt lat="43.32964" lon="6.1581">
        <ele>297</ele>
        <time>2010-01-01T01:45:08Z</time>
      </trkpt>
      <trkpt lat="43.3298" lon="6.15834">
        <ele>297</ele>
        <time>2010-01-01T01:45:18Z</time>
      </trkpt>
      <trkpt lat="43.32991" lon="6.15865">
        <ele>298</ele>
        <time>2010-01-01T01:45:28Z</time>
      </trkpt>
      <trkpt lat="43.32991" lon="6.15866">
        <ele>298</ele>
        <time>2010-01-01T01:45:28Z</time>
      </trkpt>
      <trkpt lat="43.32995" lon="6.15891">
        <ele>298</ele>
        <time>2010-01-01T01:45:35Z</time>
      </trkpt>
      <trkpt lat="43.33011" lon="6.15904">
        <ele>289</ele>
        <time>2010-01-01T01:45:43Z</time>
      </trkpt>
      <trkpt lat="43.33034" lon="6.1593">
        <ele>287</ele>
        <time>2010-01-01T01:45:55Z</time>
      </trkpt>
      <trkpt lat="43.33047" lon="6.15956">
        <ele>286</ele>
        <time>2010-01-01T01:46:04Z</time>
      </trkpt>
      <trkpt lat="43.33049" lon="6.15982">
        <ele>285</ele>
        <time>2010-01-01T01:46:12Z</time>
      </trkpt>
      <trkpt lat="43.33054" lon="6.16035">
        <ele>284</ele>
        <time>2010-01-01T01:46:27Z</time>
      </trkpt>
      <trkpt lat="43.33039" lon="6.16077">
        <ele>286</ele>
        <time>2010-01-01T01:46:41Z</time>
      </trkpt>
      <trkpt lat="43.33023" lon="6.16121">
        <ele>285</ele>
        <time>2010-01-01T01:46:55Z</time>
      </trkpt>
      <trkpt lat="43.33013" lon="6.16158">
        <ele>286</ele>
        <time>2010-01-01T01:47:07Z</time>
      </trkpt>
      <trkpt lat="43.33002" lon="6.16191">
        <ele>284</ele>
        <time>2010-01-01T01:47:17Z</time>
      </trkpt>
      <trkpt lat="43.32989" lon="6.1622">
        <ele>289</ele>
        <time>2010-01-01T01:47:27Z</time>
      </trkpt>
      <trkpt lat="43.32971" lon="6.1624">
        <ele>289</ele>
        <time>2010-01-01T01:47:36Z</time>
      </trkpt>
      <trkpt lat="43.32957" lon="6.16264">
        <ele>286</ele>
        <time>2010-01-01T01:47:45Z</time>
      </trkpt>
      <trkpt lat="43.32936" lon="6.16283">
        <ele>287</ele>
        <time>2010-01-01T01:47:55Z</time>
      </trkpt>
      <trkpt lat="43.32917" lon="6.16312">
        <ele>286</ele>
        <time>2010-01-01T01:48:07Z</time>
      </trkpt>
      <trkpt lat="43.32883" lon="6.1634">
        <ele>289</ele>
        <time>2010-01-01T01:48:23Z</time>
      </trkpt>
      <trkpt lat="43.32849" lon="6.16366">
        <ele>290</ele>
        <time>2010-01-01T01:48:38Z</time>
      </trkpt>
      <trkpt lat="43.32818" lon="6.16398">
        <ele>295</ele>
        <time>2010-01-01T01:48:54Z</time>
      </trkpt>
      <trkpt lat="43.32785" lon="6.1642">
        <ele>294</ele>
        <time>2010-01-01T01:49:08Z</time>
      </trkpt>
      <trkpt lat="43.32745" lon="6.16455">
        <ele>300</ele>
        <time>2010-01-01T01:49:27Z</time>
      </trkpt>
      <trkpt lat="43.32717" lon="6.16487">
        <ele>300</ele>
        <time>2010-01-01T01:49:42Z</time>
      </trkpt>
      <trkpt lat="43.32702" lon="6.1651">
        <ele>299</ele>
        <time>2010-01-01T01:49:51Z</time>
      </trkpt>
      <trkpt lat="43.32682" lon="6.16541">
        <ele>299</ele>
        <time>2010-01-01T01:50:03Z</time>
      </trkpt>
      <trkpt lat="43.32672" lon="6.16571">
        <ele>301</ele>
        <time>2010-01-01T01:50:13Z</time>
      </trkpt>
      <trkpt lat="43.3266" lon="6.16604">
        <ele>303</ele>
        <time>2010-01-01T01:50:23Z</time>
      </trkpt>
      <trkpt lat="43.32648" lon="6.16622">
        <ele>303</ele>
        <time>2010-01-01T01:50:30Z</time>
      </trkpt>
      <trkpt lat="43.32621" lon="6.16611">
        <ele>304</ele>
        <time>2010-01-01T01:50:42Z</time>
      </trkpt>
      <trkpt lat="43.32593" lon="6.16602">
        <ele>305</ele>
        <time>2010-01-01T01:50:53Z</time>
      </trkpt>
      <trkpt lat="43.3257" lon="6.1659">
        <ele>308</ele>
        <time>2010-01-01T01:51:03Z</time>
      </trkpt>
      <trkpt lat="43.32528" lon="6.16562">
        <ele>312</ele>
        <time>2010-01-01T01:51:22Z</time>
      </trkpt>
      <trkpt lat="43.32506" lon="6.16553">
        <ele>313</ele>
        <time>2010-01-01T01:51:31Z</time>
      </trkpt>
      <trkpt lat="43.3248" lon="6.16541">
        <ele>318</ele>
        <time>2010-01-01T01:51:42Z</time>
      </trkpt>
      <trkpt lat="43.32458" lon="6.16522">
        <ele>320</ele>
        <time>2010-01-01T01:51:52Z</time>
      </trkpt>
      <trkpt lat="43.3244" lon="6.16496">
        <ele>326</ele>
        <time>2010-01-01T01:52:03Z</time>
      </trkpt>
      <trkpt lat="43.32415" lon="6.1647">
        <ele>331</ele>
        <time>2010-01-01T01:52:15Z</time>
      </trkpt>
      <trkpt lat="43.32401" lon="6.16456">
        <ele>332</ele>
        <time>2010-01-01T01:52:22Z</time>
      </trkpt>
      <trkpt lat="43.32383" lon="6.16451">
        <ele>333</ele>
        <time>2010-01-01T01:52:30Z</time>
      </trkpt>
      <trkpt lat="43.32359" lon="6.1644">
        <ele>334</ele>
        <time>2010-01-01T01:52:40Z</time>
      </trkpt>
      <trkpt lat="43.32338" lon="6.16434">
        <ele>336</ele>
        <time>2010-01-01T01:52:48Z</time>
      </trkpt>
      <trkpt lat="43.32321" lon="6.16429">
        <ele>341</ele>
        <time>2010-01-01T01:52:55Z</time>
      </trkpt>
      <trkpt lat="43.32319" lon="6.16428">
        <ele>341</ele>
        <time>2010-01-01T01:52:56Z</time>
      </trkpt>
      <trkpt lat="43.32305" lon="6.16437">
        <ele>343</ele>
        <time>2010-01-01T01:53:02Z</time>
      </trkpt>
      <trkpt lat="43.32283" lon="6.16439">
        <ele>345</ele>
        <time>2010-01-01T01:53:11Z</time>
      </trkpt>
      <trkpt lat="43.32281" lon="6.16439">
        <ele>345</ele>
        <time>2010-01-01T01:53:12Z</time>
      </trkpt>
      <trkpt lat="43.32273" lon="6.16438">
        <ele>346</ele>
        <time>2010-01-01T01:53:15Z</time>
      </trkpt>
      <trkpt lat="43.32267" lon="6.16423">
        <ele>347</ele>
        <time>2010-01-01T01:53:20Z</time>
      </trkpt>
      <trkpt lat="43.32268" lon="6.16421">
        <ele>347</ele>
        <time>2010-01-01T01:53:21Z</time>
      </trkpt>
      <trkpt lat="43.32278" lon="6.16406">
        <ele>348</ele>
        <time>2010-01-01T01:53:27Z</time>
      </trkpt>
      <trkpt lat="43.32292" lon="6.16386">
        <ele>347</ele>
        <time>2010-01-01T01:53:35Z</time>
      </trkpt>
      <trkpt lat="43.32296" lon="6.16374">
        <ele>348</ele>
        <time>2010-01-01T01:53:39Z</time>
      </trkpt>
      <trkpt lat="43.32302" lon="6.16356">
        <ele>349</ele>
        <time>2010-01-01T01:53:45Z</time>
      </trkpt>
      <trkpt lat="43.32311" lon="6.16349">
        <ele>348</ele>
        <time>2010-01-01T01:53:48Z</time>
      </trkpt>
      <trkpt lat="43.32327" lon="6.16336">
        <ele>347</ele>
        <time>2010-01-01T01:53:56Z</time>
      </trkpt>
      <trkpt lat="43.32342" lon="6.16322">
        <ele>349</ele>
        <time>2010-01-01T01:54:03Z</time>
      </trkpt>
      <trkpt lat="43.32345" lon="6.16302">
        <ele>350</ele>
        <time>2010-01-01T01:54:09Z</time>
      </trkpt>
      <trkpt lat="43.32346" lon="6.16282">
        <ele>352</ele>
        <time>2010-01-01T01:54:15Z</time>
      </trkpt>
      <trkpt lat="43.32345" lon="6.16254">
        <ele>356</ele>
        <time>2010-01-01T01:54:23Z</time>
      </trkpt>
      <trkpt lat="43.32357" lon="6.16219">
        <ele>362</ele>
        <time>2010-01-01T01:54:35Z</time>
      </trkpt>
      <trkpt lat="43.32368" lon="6.16193">
        <ele>364</ele>
        <time>2010-01-01T01:54:43Z</time>
      </trkpt>
      <trkpt lat="43.3238" lon="6.16165">
        <ele>371</ele>
        <time>2010-01-01T01:54:53Z</time>
      </trkpt>
      <trkpt lat="43.32393" lon="6.1613">
        <ele>371</ele>
        <time>2010-01-01T01:55:04Z</time>
      </trkpt>
      <trkpt lat="43.32402" lon="6.16105">
        <ele>372</ele>
        <time>2010-01-01T01:55:12Z</time>
      </trkpt>
      <trkpt lat="43.32413" lon="6.16083">
        <ele>370</ele>
        <time>2010-01-01T01:55:20Z</time>
      </trkpt>
      <trkpt lat="43.3242" lon="6.16062">
        <ele>372</ele>
        <time>2010-01-01T01:55:27Z</time>
      </trkpt>
      <trkpt lat="43.32424" lon="6.16031">
        <ele>373</ele>
        <time>2010-01-01T01:55:36Z</time>
      </trkpt>
      <trkpt lat="43.32416" lon="6.16009">
        <ele>376</ele>
        <time>2010-01-01T01:55:43Z</time>
      </trkpt>
      <trkpt lat="43.32409" lon="6.15985">
        <ele>380</ele>
        <time>2010-01-01T01:55:51Z</time>
      </trkpt>
      <trkpt lat="43.32401" lon="6.15958">
        <ele>383</ele>
        <time>2010-01-01T01:55:59Z</time>
      </trkpt>
      <trkpt lat="43.32401" lon="6.15936">
        <ele>382</ele>
        <time>2010-01-01T01:56:06Z</time>
      </trkpt>
      <trkpt lat="43.32399" lon="6.15917">
        <ele>381</ele>
        <time>2010-01-01T01:56:11Z</time>
      </trkpt>
      <trkpt lat="43.32396" lon="6.15899">
        <ele>383</ele>
        <time>2010-01-01T01:56:16Z</time>
      </trkpt>
      <trkpt lat="43.32395" lon="6.15878">
        <ele>385</ele>
        <time>2010-01-01T01:56:23Z</time>
      </trkpt>
      <trkpt lat="43.32388" lon="6.15848">
        <ele>385</ele>
        <time>2010-01-01T01:56:32Z</time>
      </trkpt>
      <trkpt lat="43.32388" lon="6.15819">
        <ele>385</ele>
        <time>2010-01-01T01:56:40Z</time>
      </trkpt>
      <trkpt lat="43.32387" lon="6.15801">
        <ele>386</ele>
        <time>2010-01-01T01:56:46Z</time>
      </trkpt>
      <trkpt lat="43.32385" lon="6.15783">
        <ele>386</ele>
        <time>2010-01-01T01:56:51Z</time>
      </trkpt>
      <trkpt lat="43.32382" lon="6.1576">
        <ele>386</ele>
        <time>2010-01-01T01:56:58Z</time>
      </trkpt>
      <trkpt lat="43.32371" lon="6.15757">
        <ele>390</ele>
        <time>2010-01-01T01:57:02Z</time>
      </trkpt>
      <trkpt lat="43.32365" lon="6.1582">
        <ele>392</ele>
        <time>2010-01-01T01:57:21Z</time>
      </trkpt>
      <trkpt lat="43.32354" lon="6.15873">
        <ele>394</ele>
        <time>2010-01-01T01:57:37Z</time>
      </trkpt>
      <trkpt lat="43.32339" lon="6.15921">
        <ele>401</ele>
        <time>2010-01-01T01:57:52Z</time>
      </trkpt>
      <trkpt lat="43.32328" lon="6.15959">
        <ele>413</ele>
        <time>2010-01-01T01:58:04Z</time>
      </trkpt>
      <trkpt lat="43.32317" lon="6.15995">
        <ele>409</ele>
        <time>2010-01-01T01:58:15Z</time>
      </trkpt>
      <trkpt lat="43.32299" lon="6.16023">
        <ele>407</ele>
        <time>2010-01-01T01:58:26Z</time>
      </trkpt>
      <trkpt lat="43.3228" lon="6.16051">
        <ele>408</ele>
        <time>2010-01-01T01:58:37Z</time>
      </trkpt>
      <trkpt lat="43.32261" lon="6.16067">
        <ele>410</ele>
        <time>2010-01-01T01:58:46Z</time>
      </trkpt>
      <trkpt lat="43.32238" lon="6.16084">
        <ele>414</ele>
        <time>2010-01-01T01:58:57Z</time>
      </trkpt>
      <trkpt lat="43.32218" lon="6.16114">
        <ele>416</ele>
        <time>2010-01-01T01:59:09Z</time>
      </trkpt>
      <trkpt lat="43.32195" lon="6.1613">
        <ele>417</ele>
        <time>2010-01-01T01:59:19Z</time>
      </trkpt>
      <trkpt lat="43.32131" lon="6.16184">
        <ele>418</ele>
        <time>2010-01-01T01:59:49Z</time>
      </trkpt>
      <trkpt lat="43.32104" lon="6.16212">
        <ele>416</ele>
        <time>2010-01-01T02:00:02Z</time>
      </trkpt>
      <trkpt lat="43.32083" lon="6.16216">
        <ele>421</ele>
        <time>2010-01-01T02:00:11Z</time>
      </trkpt>
      <trkpt lat="43.32069" lon="6.16205">
        <ele>423</ele>
        <time>2010-01-01T02:00:17Z</time>
      </trkpt>
      <trkpt lat="43.32057" lon="6.16166">
        <ele>436</ele>
        <time>2010-01-01T02:00:30Z</time>
      </trkpt>
      <trkpt lat="43.32047" lon="6.1613">
        <ele>437</ele>
        <time>2010-01-01T02:00:41Z</time>
      </trkpt>
      <trkpt lat="43.32033" lon="6.16097">
        <ele>439</ele>
        <time>2010-01-01T02:00:52Z</time>
      </trkpt>
      <trkpt lat="43.32019" lon="6.16068">
        <ele>445</ele>
        <time>2010-01-01T02:01:02Z</time>
      </trkpt>
      <trkpt lat="43.32002" lon="6.16049">
        <ele>445</ele>
        <time>2010-01-01T02:01:11Z</time>
      </trkpt>
      <trkpt lat="43.31978" lon="6.16019">
        <ele>446</ele>
        <time>2010-01-01T02:01:24Z</time>
      </trkpt>
      <trkpt lat="43.31961" lon="6.1599">
        <ele>449</ele>
        <time>2010-01-01T02:01:35Z</time>
      </trkpt>
      <trkpt lat="43.31927" lon="6.15946">
        <ele>451</ele>
        <time>2010-01-01T02:01:54Z</time>
      </trkpt>
      <trkpt lat="43.31901" lon="6.1592">
        <ele>452</ele>
        <time>2010-01-01T02:02:06Z</time>
      </trkpt>
      <trkpt lat="43.31887" lon="6.15903">
        <ele>454</ele>
        <time>2010-01-01T02:02:14Z</time>
      </trkpt>
      <trkpt lat="43.31867" lon="6.15884">
        <ele>454</ele>
        <time>2010-01-01T02:02:24Z</time>
      </trkpt>
      <trkpt lat="43.3185" lon="6.15862">
        <ele>454</ele>
        <time>2010-01-01T02:02:33Z</time>
      </trkpt>
      <trkpt lat="43.31832" lon="6.15836">
        <ele>454</ele>
        <time>2010-01-01T02:02:43Z</time>
      </trkpt>
      <trkpt lat="43.31821" lon="6.15808">
        <ele>456</ele>
        <time>2010-01-01T02:02:53Z</time>
      </trkpt>
      <trkpt lat="43.31816" lon="6.15785">
        <ele>457</ele>
        <time>2010-01-01T02:03:00Z</time>
      </trkpt>
      <trkpt lat="43.31802" lon="6.15754">
        <ele>457</ele>
        <time>2010-01-01T02:03:10Z</time>
      </trkpt>
      <trkpt lat="43.31793" lon="6.15713">
        <ele>459</ele>
        <time>2010-01-01T02:03:23Z</time>
      </trkpt>
      <trkpt lat="43.31801" lon="6.15675">
        <ele>460</ele>
        <time>2010-01-01T02:03:34Z</time>
      </trkpt>
      <trkpt lat="43.31801" lon="6.15656">
        <ele>462</ele>
        <time>2010-01-01T02:03:40Z</time>
      </trkpt>
      <trkpt lat="43.31804" lon="6.15632">
        <ele>462</ele>
        <time>2010-01-01T02:03:47Z</time>
      </trkpt>
      <trkpt lat="43.31798" lon="6.15603">
        <ele>462</ele>
        <time>2010-01-01T02:03:56Z</time>
      </trkpt>
      <trkpt lat="43.31792" lon="6.15574">
        <ele>463</ele>
        <time>2010-01-01T02:04:04Z</time>
      </trkpt>
      <trkpt lat="43.3179" lon="6.15549">
        <ele>463</ele>
        <time>2010-01-01T02:04:12Z</time>
      </trkpt>
      <trkpt lat="43.31784" lon="6.15513">
        <ele>463</ele>
        <time>2010-01-01T02:04:22Z</time>
      </trkpt>
      <trkpt lat="43.31781" lon="6.15484">
        <ele>462</ele>
        <time>2010-01-01T02:04:31Z</time>
      </trkpt>
      <trkpt lat="43.31773" lon="6.15455">
        <ele>462</ele>
        <time>2010-01-01T02:04:40Z</time>
      </trkpt>
      <trkpt lat="43.31764" lon="6.15431">
        <ele>463</ele>
        <time>2010-01-01T02:04:48Z</time>
      </trkpt>
      <trkpt lat="43.31757" lon="6.15409">
        <ele>463</ele>
        <time>2010-01-01T02:04:55Z</time>
      </trkpt>
      <trkpt lat="43.31755" lon="6.15389">
        <ele>461</ele>
        <time>2010-01-01T02:05:01Z</time>
      </trkpt>
      <trkpt lat="43.31749" lon="6.1536">
        <ele>468</ele>
        <time>2010-01-01T02:05:10Z</time>
      </trkpt>
      <trkpt lat="43.31745" lon="6.15337">
        <ele>465</ele>
        <time>2010-01-01T02:05:17Z</time>
      </trkpt>
      <trkpt lat="43.31741" lon="6.15313">
        <ele>467</ele>
        <time>2010-01-01T02:05:24Z</time>
      </trkpt>
      <trkpt lat="43.31745" lon="6.1529">
        <ele>467</ele>
        <time>2010-01-01T02:05:31Z</time>
      </trkpt>
      <trkpt lat="43.3175" lon="6.15265">
        <ele>462</ele>
        <time>2010-01-01T02:05:38Z</time>
      </trkpt>
      <trkpt lat="43.31759" lon="6.15244">
        <ele>461</ele>
        <time>2010-01-01T02:05:45Z</time>
      </trkpt>
      <trkpt lat="43.31768" lon="6.15221">
        <ele>459</ele>
        <time>2010-01-01T02:05:53Z</time>
      </trkpt>
      <trkpt lat="43.31774" lon="6.152">
        <ele>458</ele>
        <time>2010-01-01T02:05:59Z</time>
      </trkpt>
      <trkpt lat="43.31782" lon="6.15182">
        <ele>458</ele>
        <time>2010-01-01T02:06:06Z</time>
      </trkpt>
      <trkpt lat="43.31787" lon="6.15167">
        <ele>457</ele>
        <time>2010-01-01T02:06:10Z</time>
      </trkpt>
      <trkpt lat="43.31792" lon="6.15159">
        <ele>456</ele>
        <time>2010-01-01T02:06:14Z</time>
      </trkpt>
      <trkpt lat="43.318" lon="6.15165">
        <ele>456</ele>
        <time>2010-01-01T02:06:17Z</time>
      </trkpt>
      <trkpt lat="43.31808" lon="6.15174">
        <ele>457</ele>
        <time>2010-01-01T02:06:21Z</time>
      </trkpt>
      <trkpt lat="43.3181" lon="6.15175">
        <ele>457</ele>
        <time>2010-01-01T02:06:22Z</time>
      </trkpt>
      <trkpt lat="43.31815" lon="6.15177">
        <ele>456</ele>
        <time>2010-01-01T02:06:24Z</time>
      </trkpt>
      <trkpt lat="43.31825" lon="6.15179">
        <ele>456</ele>
        <time>2010-01-01T02:06:29Z</time>
      </trkpt>
      <trkpt lat="43.31832" lon="6.15179">
        <ele>456</ele>
        <time>2010-01-01T02:06:31Z</time>
      </trkpt>
      <trkpt lat="43.31843" lon="6.15173">
        <ele>452</ele>
        <time>2010-01-01T02:06:36Z</time>
      </trkpt>
      <trkpt lat="43.3186" lon="6.15165">
        <ele>452</ele>
        <time>2010-01-01T02:06:43Z</time>
      </trkpt>
      <trkpt lat="43.31872" lon="6.15161">
        <ele>451</ele>
        <time>2010-01-01T02:06:48Z</time>
      </trkpt>
      <trkpt lat="43.31881" lon="6.15151">
        <ele>450</ele>
        <time>2010-01-01T02:06:53Z</time>
      </trkpt>
      <trkpt lat="43.31886" lon="6.1515">
        <ele>450</ele>
        <time>2010-01-01T02:06:55Z</time>
      </trkpt>
      <trkpt lat="43.31896" lon="6.15156">
        <ele>449</ele>
        <time>2010-01-01T02:06:59Z</time>
      </trkpt>
      <trkpt lat="43.31907" lon="6.15166">
        <ele>447</ele>
        <time>2010-01-01T02:07:04Z</time>
      </trkpt>
      <trkpt lat="43.31911" lon="6.15176">
        <ele>445</ele>
        <time>2010-01-01T02:07:07Z</time>
      </trkpt>
      <trkpt lat="43.31912" lon="6.15192">
        <ele>446</ele>
        <time>2010-01-01T02:07:12Z</time>
      </trkpt>
      <trkpt lat="43.31914" lon="6.15206">
        <ele>446</ele>
        <time>2010-01-01T02:07:16Z</time>
      </trkpt>
      <trkpt lat="43.31915" lon="6.15215">
        <ele>445</ele>
        <time>2010-01-01T02:07:19Z</time>
      </trkpt>
      <trkpt lat="43.31924" lon="6.15223">
        <ele>434</ele>
        <time>2010-01-01T02:07:23Z</time>
      </trkpt>
      <trkpt lat="43.31932" lon="6.15222">
        <ele>433</ele>
        <time>2010-01-01T02:07:27Z</time>
      </trkpt>
      <trkpt lat="43.31939" lon="6.15235">
        <ele>433</ele>
        <time>2010-01-01T02:07:31Z</time>
      </trkpt>
      <trkpt lat="43.31951" lon="6.1525">
        <ele>430</ele>
        <time>2010-01-01T02:07:37Z</time>
      </trkpt>
      <trkpt lat="43.31962" lon="6.15262">
        <ele>424</ele>
        <time>2010-01-01T02:07:43Z</time>
      </trkpt>
      <trkpt lat="43.31969" lon="6.15275">
        <ele>423</ele>
        <time>2010-01-01T02:07:48Z</time>
      </trkpt>
      <trkpt lat="43.31977" lon="6.15283">
        <ele>422</ele>
        <time>2010-01-01T02:07:52Z</time>
      </trkpt>
      <trkpt lat="43.31991" lon="6.15275">
        <ele>419</ele>
        <time>2010-01-01T02:07:58Z</time>
      </trkpt>
      <trkpt lat="43.32005" lon="6.15271">
        <ele>405</ele>
        <time>2010-01-01T02:08:03Z</time>
      </trkpt>
      <trkpt lat="43.32022" lon="6.15267">
        <ele>403</ele>
        <time>2010-01-01T02:08:10Z</time>
      </trkpt>
      <trkpt lat="43.32038" lon="6.15266">
        <ele>400</ele>
        <time>2010-01-01T02:08:17Z</time>
      </trkpt>
      <trkpt lat="43.32055" lon="6.15267">
        <ele>397</ele>
        <time>2010-01-01T02:08:23Z</time>
      </trkpt>
      <trkpt lat="43.3207" lon="6.15267">
        <ele>395</ele>
        <time>2010-01-01T02:08:30Z</time>
      </trkpt>
      <trkpt lat="43.32087" lon="6.15274">
        <ele>382</ele>
        <time>2010-01-01T02:08:37Z</time>
      </trkpt>
      <trkpt lat="43.32098" lon="6.15285">
        <ele>380</ele>
        <time>2010-01-01T02:08:42Z</time>
      </trkpt>
      <trkpt lat="43.32112" lon="6.15275">
        <ele>378</ele>
        <time>2010-01-01T02:08:48Z</time>
      </trkpt>
      <trkpt lat="43.32136" lon="6.15284">
        <ele>375</ele>
        <time>2010-01-01T02:08:58Z</time>
      </trkpt>
      <trkpt lat="43.32152" lon="6.15293">
        <ele>373</ele>
        <time>2010-01-01T02:09:05Z</time>
      </trkpt>
      <trkpt lat="43.32176" lon="6.15306">
        <ele>358</ele>
        <time>2010-01-01T02:09:16Z</time>
      </trkpt>
      <trkpt lat="43.32196" lon="6.15314">
        <ele>356</ele>
        <time>2010-01-01T02:09:24Z</time>
      </trkpt>
      <trkpt lat="43.3221" lon="6.15319">
        <ele>354</ele>
        <time>2010-01-01T02:09:30Z</time>
      </trkpt>
      <trkpt lat="43.32213" lon="6.15325">
        <ele>353</ele>
        <time>2010-01-01T02:09:32Z</time>
      </trkpt>
      <trkpt lat="43.32216" lon="6.15333">
        <ele>352</ele>
        <time>2010-01-01T02:09:34Z</time>
      </trkpt>
      <trkpt lat="43.32227" lon="6.15316">
        <ele>351</ele>
        <time>2010-01-01T02:09:41Z</time>
      </trkpt>
      <trkpt lat="43.32259" lon="6.15326">
        <ele>341</ele>
        <time>2010-01-01T02:09:54Z</time>
      </trkpt>
      <trkpt lat="43.32271" lon="6.15338">
        <ele>337</ele>
        <time>2010-01-01T02:10:00Z</time>
      </trkpt>
      <trkpt lat="43.32291" lon="6.1535">
        <ele>335</ele>
        <time>2010-01-01T02:10:09Z</time>
      </trkpt>
      <trkpt lat="43.32304" lon="6.15356">
        <ele>334</ele>
        <time>2010-01-01T02:10:14Z</time>
      </trkpt>
      <trkpt lat="43.32334" lon="6.15359">
        <ele>327</ele>
        <time>2010-01-01T02:10:26Z</time>
      </trkpt>
      <trkpt lat="43.32366" lon="6.15363">
        <ele>326</ele>
        <time>2010-01-01T02:10:39Z</time>
      </trkpt>
      <trkpt lat="43.32398" lon="6.15381">
        <ele>324</ele>
        <time>2010-01-01T02:10:53Z</time>
      </trkpt>
      <trkpt lat="43.32424" lon="6.15368">
        <ele>320</ele>
        <time>2010-01-01T02:11:04Z</time>
      </trkpt>
      <trkpt lat="43.32443" lon="6.15376">
        <ele>319</ele>
        <time>2010-01-01T02:11:12Z</time>
      </trkpt>
      <trkpt lat="43.32468" lon="6.15376">
        <ele>318</ele>
        <time>2010-01-01T02:11:22Z</time>
      </trkpt>
      <trkpt lat="43.32489" lon="6.15383">
        <ele>317</ele>
        <time>2010-01-01T02:11:31Z</time>
      </trkpt>
      <trkpt lat="43.32514" lon="6.15386">
        <ele>313</ele>
        <time>2010-01-01T02:11:41Z</time>
      </trkpt>
      <trkpt lat="43.32533" lon="6.15393">
        <ele>313</ele>
        <time>2010-01-01T02:11:49Z</time>
      </trkpt>
      <trkpt lat="43.32546" lon="6.15408">
        <ele>311</ele>
        <time>2010-01-01T02:11:56Z</time>
      </trkpt>
      <trkpt lat="43.3257" lon="6.15397">
        <ele>311</ele>
        <time>2010-01-01T02:12:06Z</time>
      </trkpt>
      <trkpt lat="43.32597" lon="6.15393">
        <ele>308</ele>
        <time>2010-01-01T02:12:17Z</time>
      </trkpt>
      <trkpt lat="43.32634" lon="6.15392">
        <ele>307</ele>
        <time>2010-01-01T02:12:31Z</time>
      </trkpt>
      <trkpt lat="43.32658" lon="6.15392">
        <ele>305</ele>
        <time>2010-01-01T02:12:41Z</time>
      </trkpt>
      <trkpt lat="43.3268" lon="6.15391">
        <ele>302</ele>
        <time>2010-01-01T02:12:50Z</time>
      </trkpt>
      <trkpt lat="43.32707" lon="6.15397">
        <ele>301</ele>
        <time>2010-01-01T02:13:01Z</time>
      </trkpt>
      <trkpt lat="43.32724" lon="6.15404">
        <ele>299</ele>
        <time>2010-01-01T02:13:08Z</time>
      </trkpt>
      <trkpt lat="43.32736" lon="6.1541">
        <ele>298</ele>
        <time>2010-01-01T02:13:13Z</time>
      </trkpt>
      <trkpt lat="43.32767" lon="6.15429">
        <ele>293</ele>
        <time>2010-01-01T02:13:26Z</time>
      </trkpt>
      <trkpt lat="43.32783" lon="6.15458">
        <ele>292</ele>
        <time>2010-01-01T02:13:37Z</time>
      </trkpt>
      <trkpt lat="43.32807" lon="6.15477">
        <ele>291</ele>
        <time>2010-01-01T02:13:48Z</time>
      </trkpt>
      <trkpt lat="43.32827" lon="6.15496">
        <ele>290</ele>
        <time>2010-01-01T02:13:58Z</time>
      </trkpt>
      <trkpt lat="43.32856" lon="6.15517">
        <ele>289</ele>
        <time>2010-01-01T02:14:11Z</time>
      </trkpt>
      <trkpt lat="43.32884" lon="6.15529">
        <ele>288</ele>
        <time>2010-01-01T02:14:23Z</time>
      </trkpt>
      <trkpt lat="43.32917" lon="6.15541">
        <ele>285</ele>
        <time>2010-01-01T02:14:36Z</time>
      </trkpt>
      <trkpt lat="43.32967" lon="6.15566">
        <ele>284</ele>
        <time>2010-01-01T02:14:58Z</time>
      </trkpt>
      <trkpt lat="43.32995" lon="6.15589">
        <ele>283</ele>
        <time>2010-01-01T02:15:11Z</time>
      </trkpt>
      <trkpt lat="43.33019" lon="6.15599">
        <ele>282</ele>
        <time>2010-01-01T02:15:21Z</time>
      </trkpt>
      <trkpt lat="43.33056" lon="6.15585">
        <ele>280</ele>
        <time>2010-01-01T02:15:36Z</time>
      </trkpt>
      <trkpt lat="43.33068" lon="6.15552">
        <ele>279</ele>
        <time>2010-01-01T02:15:47Z</time>
      </trkpt>
      <trkpt lat="43.33087" lon="6.15513">
        <ele>277</ele>
        <time>2010-01-01T02:16:00Z</time>
      </trkpt>
      <trkpt lat="43.331" lon="6.15474">
        <ele>277</ele>
        <time>2010-01-01T02:16:13Z</time>
      </trkpt>
      <trkpt lat="43.33107" lon="6.15435">
        <ele>277</ele>
        <time>2010-01-01T02:16:25Z</time>
      </trkpt>
      <trkpt lat="43.33114" lon="6.15394">
        <ele>279</ele>
        <time>2010-01-01T02:16:37Z</time>
      </trkpt>
      <trkpt lat="43.33115" lon="6.1536">
        <ele>280</ele>
        <time>2010-01-01T02:16:47Z</time>
      </trkpt>
      <trkpt lat="43.33145" lon="6.15355">
        <ele>280</ele>
        <time>2010-01-01T02:16:59Z</time>
      </trkpt>
      <trkpt lat="43.33192" lon="6.15381">
        <ele>279</ele>
        <time>2010-01-01T02:17:19Z</time>
      </trkpt>
      <trkpt lat="43.33241" lon="6.15409">
        <ele>279</ele>
        <time>2010-01-01T02:17:40Z</time>
      </trkpt>
      <trkpt lat="43.33278" lon="6.15446">
        <ele>277</ele>
        <time>2010-01-01T02:17:59Z</time>
      </trkpt>
      <trkpt lat="43.33312" lon="6.15479">
        <ele>276</ele>
        <time>2010-01-01T02:18:15Z</time>
      </trkpt>
      <trkpt lat="43.33337" lon="6.15504">
        <ele>275</ele>
        <time>2010-01-01T02:18:27Z</time>
      </trkpt>
      <trkpt lat="43.33364" lon="6.15536">
        <ele>273</ele>
        <time>2010-01-01T02:18:42Z</time>
      </trkpt>
      <trkpt lat="43.33386" lon="6.15562">
        <ele>273</ele>
        <time>2010-01-01T02:18:53Z</time>
      </trkpt>
      <trkpt lat="43.3342" lon="6.15603">
        <ele>270</ele>
        <time>2010-01-01T02:19:12Z</time>
      </trkpt>
      <trkpt lat="43.3348" lon="6.15659">
        <ele>268</ele>
        <time>2010-01-01T02:19:41Z</time>
      </trkpt>
      <trkpt lat="43.33505" lon="6.15679">
        <ele>265</ele>
        <time>2010-01-01T02:19:52Z</time>
      </trkpt>
      <trkpt lat="43.33526" lon="6.15708">
        <ele>263</ele>
        <time>2010-01-01T02:20:04Z</time>
      </trkpt>
      <trkpt lat="43.33543" lon="6.1573">
        <ele>263</ele>
        <time>2010-01-01T02:20:13Z</time>
      </trkpt>
      <trkpt lat="43.33568" lon="6.15763">
        <ele>261</ele>
        <time>2010-01-01T02:20:27Z</time>
      </trkpt>
      <trkpt lat="43.33606" lon="6.15802">
        <ele>260</ele>
        <time>2010-01-01T02:20:46Z</time>
      </trkpt>
      <trkpt lat="43.33601" lon="6.15828">
        <ele>261</ele>
        <time>2010-01-01T02:20:54Z</time>
      </trkpt>
      <trkpt lat="43.33585" lon="6.15861">
        <ele>261</ele>
        <time>2010-01-01T02:21:05Z</time>
      </trkpt>
      <trkpt lat="43.3359" lon="6.1589">
        <ele>261</ele>
        <time>2010-01-01T02:21:14Z</time>
      </trkpt>
      <trkpt lat="43.33605" lon="6.15933">
        <ele>261</ele>
        <time>2010-01-01T02:21:28Z</time>
      </trkpt>
      <trkpt lat="43.33626" lon="6.15982">
        <ele>260</ele>
        <time>2010-01-01T02:21:45Z</time>
      </trkpt>
      <trkpt lat="43.33627" lon="6.16027">
        <ele>259</ele>
        <time>2010-01-01T02:21:58Z</time>
      </trkpt>
      <trkpt lat="43.33627" lon="6.1608">
        <ele>258</ele>
        <time>2010-01-01T02:22:13Z</time>
      </trkpt>
      <trkpt lat="43.33631" lon="6.16127">
        <ele>258</ele>
        <time>2010-01-01T02:22:27Z</time>
      </trkpt>
      <trkpt lat="43.33632" lon="6.16172">
        <ele>257</ele>
        <time>2010-01-01T02:22:40Z</time>
      </trkpt>
      <trkpt lat="43.33639" lon="6.16217">
        <ele>257</ele>
        <time>2010-01-01T02:22:53Z</time>
      </trkpt>
      <trkpt lat="43.33644" lon="6.16271">
        <ele>258</ele>
        <time>2010-01-01T02:23:09Z</time>
      </trkpt>
      <trkpt lat="43.3365" lon="6.16314">
        <ele>258</ele>
        <time>2010-01-01T02:23:22Z</time>
      </trkpt>
      <trkpt lat="43.33657" lon="6.16361">
        <ele>259</ele>
        <time>2010-01-01T02:23:36Z</time>
      </trkpt>
      <trkpt lat="43.33662" lon="6.1639">
        <ele>259</ele>
        <time>2010-01-01T02:23:45Z</time>
      </trkpt>
      <trkpt lat="43.33666" lon="6.16416">
        <ele>259</ele>
        <time>2010-01-01T02:23:52Z</time>
      </trkpt>
      <trkpt lat="43.33666" lon="6.16426">
        <ele>260</ele>
        <time>2010-01-01T02:23:55Z</time>
      </trkpt>
      <trkpt lat="43.3365" lon="6.16436">
        <ele>260</ele>
        <time>2010-01-01T02:24:02Z</time>
      </trkpt>
      <trkpt lat="43.33631" lon="6.16449">
        <ele>261</ele>
        <time>2010-01-01T02:24:11Z</time>
      </trkpt>
      <trkpt lat="43.33628" lon="6.16468">
        <ele>262</ele>
        <time>2010-01-01T02:24:17Z</time>
      </trkpt>
      <trkpt lat="43.33634" lon="6.16522">
        <ele>265</ele>
        <time>2010-01-01T02:24:33Z</time>
      </trkpt>
      <trkpt lat="43.33638" lon="6.16562">
        <ele>266</ele>
        <time>2010-01-01T02:24:44Z</time>
      </trkpt>
      <trkpt lat="43.33655" lon="6.16607">
        <ele>269</ele>
        <time>2010-01-01T02:24:59Z</time>
      </trkpt>
      <trkpt lat="43.33675" lon="6.16655">
        <ele>265</ele>
        <time>2010-01-01T02:25:15Z</time>
      </trkpt>
      <trkpt lat="43.33699" lon="6.16695">
        <ele>267</ele>
        <time>2010-01-01T02:25:30Z</time>
      </trkpt>
      <trkpt lat="43.33713" lon="6.1672">
        <ele>267</ele>
        <time>2010-01-01T02:25:39Z</time>
      </trkpt>
      <trkpt lat="43.33725" lon="6.16741">
        <ele>266</ele>
        <time>2010-01-01T02:25:47Z</time>
      </trkpt>
      <trkpt lat="43.33739" lon="6.16756">
        <ele>270</ele>
        <time>2010-01-01T02:25:54Z</time>
      </trkpt>
      <trkpt lat="43.33761" lon="6.16769">
        <ele>267</ele>
        <time>2010-01-01T02:26:04Z</time>
      </trkpt>
      <trkpt lat="43.33803" lon="6.16787">
        <ele>270</ele>
        <time>2010-01-01T02:26:21Z</time>
      </trkpt>
      <trkpt lat="43.33841" lon="6.16798">
        <ele>267</ele>
        <time>2010-01-01T02:26:37Z</time>
      </trkpt>
      <trkpt lat="43.33866" lon="6.16794">
        <ele>266</ele>
        <time>2010-01-01T02:26:47Z</time>
      </trkpt>
      <trkpt lat="43.33889" lon="6.16795">
        <ele>265</ele>
        <time>2010-01-01T02:26:56Z</time>
      </trkpt>
      <trkpt lat="43.33914" lon="6.16796">
        <ele>265</ele>
        <time>2010-01-01T02:27:06Z</time>
      </trkpt>
      <trkpt lat="43.33948" lon="6.16803">
        <ele>260</ele>
        <time>2010-01-01T02:27:20Z</time>
      </trkpt>
      <trkpt lat="43.33977" lon="6.16806">
        <ele>259</ele>
        <time>2010-01-01T02:27:32Z</time>
      </trkpt>
      <trkpt lat="43.33994" lon="6.16804">
        <ele>259</ele>
        <time>2010-01-01T02:27:39Z</time>
      </trkpt>
      <trkpt lat="43.34011" lon="6.16823">
        <ele>256</ele>
        <time>2010-01-01T02:27:47Z</time>
      </trkpt>
      <trkpt lat="43.34033" lon="6.16843">
        <ele>256</ele>
        <time>2010-01-01T02:27:58Z</time>
      </trkpt>
      <trkpt lat="43.3406" lon="6.16859">
        <ele>254</ele>
        <time>2010-01-01T02:28:10Z</time>
      </trkpt>
      <trkpt lat="43.34087" lon="6.16876">
        <ele>252</ele>
        <time>2010-01-01T02:28:21Z</time>
      </trkpt>
      <trkpt lat="43.34098" lon="6.16915">
        <ele>251</ele>
        <time>2010-01-01T02:28:34Z</time>
      </trkpt>
      <trkpt lat="43.34116" lon="6.16971">
        <ele>251</ele>
        <time>2010-01-01T02:28:52Z</time>
      </trkpt>
      <trkpt lat="43.34126" lon="6.17003">
        <ele>251</ele>
        <time>2010-01-01T02:29:02Z</time>
      </trkpt>
      <trkpt lat="43.34155" lon="6.17055">
        <ele>251</ele>
        <time>2010-01-01T02:29:21Z</time>
      </trkpt>
      <trkpt lat="43.3418" lon="6.17103">
        <ele>250</ele>
        <time>2010-01-01T02:29:38Z</time>
      </trkpt>
      <trkpt lat="43.34199" lon="6.17151">
        <ele>249</ele>
        <time>2010-01-01T02:29:54Z</time>
      </trkpt>
      <trkpt lat="43.34219" lon="6.17191">
        <ele>249</ele>
        <time>2010-01-01T02:30:08Z</time>
      </trkpt>
      <trkpt lat="43.34231" lon="6.17221">
        <ele>249</ele>
        <time>2010-01-01T02:30:18Z</time>
      </trkpt>
      <trkpt lat="43.34249" lon="6.17263">
        <ele>250</ele>
        <time>2010-01-01T02:30:32Z</time>
      </trkpt>
      <trkpt lat="43.34258" lon="6.1729">
        <ele>250</ele>
        <time>2010-01-01T02:30:41Z</time>
      </trkpt>
      <trkpt lat="43.34266" lon="6.17307">
        <ele>250</ele>
        <time>2010-01-01T02:30:47Z</time>
      </trkpt>
      <trkpt lat="43.34282" lon="6.17338">
        <ele>251</ele>
        <time>2010-01-01T02:30:58Z</time>
      </trkpt>
      <trkpt lat="43.34299" lon="6.17342">
        <ele>251</ele>
        <time>2010-01-01T02:31:05Z</time>
      </trkpt>
      <trkpt lat="43.34329" lon="6.17335">
        <ele>249</ele>
        <time>2010-01-01T02:31:17Z</time>
      </trkpt>
      <trkpt lat="43.34355" lon="6.17323">
        <ele>249</ele>
        <time>2010-01-01T02:31:28Z</time>
      </trkpt>
      <trkpt lat="43.34375" lon="6.17322">
        <ele>250</ele>
        <time>2010-01-01T02:31:36Z</time>
      </trkpt>
      <trkpt lat="43.34393" lon="6.17318">
        <ele>250</ele>
        <time>2010-01-01T02:31:43Z</time>
      </trkpt>
      <trkpt lat="43.34419" lon="6.17313">
        <ele>250</ele>
        <time>2010-01-01T02:31:54Z</time>
      </trkpt>
      <trkpt lat="43.34438" lon="6.17313">
        <ele>250</ele>
        <time>2010-01-01T02:32:01Z</time>
      </trkpt>
      <trkpt lat="43.34461" lon="6.17346">
        <ele>249</ele>
        <time>2010-01-01T02:32:14Z</time>
      </trkpt>
      <trkpt lat="43.34474" lon="6.17401">
        <ele>248</ele>
        <time>2010-01-01T02:32:31Z</time>
      </trkpt>
      <trkpt lat="43.34483" lon="6.1745">
        <ele>248</ele>
        <time>2010-01-01T02:32:46Z</time>
      </trkpt>
      <trkpt lat="43.34496" lon="6.17495">
        <ele>247</ele>
        <time>2010-01-01T02:33:00Z</time>
      </trkpt>
      <trkpt lat="43.34506" lon="6.17539">
        <ele>247</ele>
        <time>2010-01-01T02:33:13Z</time>
      </trkpt>
      <trkpt lat="43.34519" lon="6.17586">
        <ele>248</ele>
        <time>2010-01-01T02:33:28Z</time>
      </trkpt>
      <trkpt lat="43.34522" lon="6.17623">
        <ele>248</ele>
        <time>2010-01-01T02:33:39Z</time>
      </trkpt>
      <trkpt lat="43.34526" lon="6.17664">
        <ele>248</ele>
        <time>2010-01-01T02:33:51Z</time>
      </trkpt>
      <trkpt lat="43.3454" lon="6.17712">
        <ele>248</ele>
        <time>2010-01-01T02:34:06Z</time>
      </trkpt>
      <trkpt lat="43.34544" lon="6.17759">
        <ele>248</ele>
        <time>2010-01-01T02:34:20Z</time>
      </trkpt>
      <trkpt lat="43.34552" lon="6.17806">
        <ele>248</ele>
        <time>2010-01-01T02:34:34Z</time>
      </trkpt>
      <trkpt lat="43.3456" lon="6.17846">
        <ele>248</ele>
        <time>2010-01-01T02:34:46Z</time>
      </trkpt>
      <trkpt lat="43.34574" lon="6.17877">
        <ele>247</ele>
        <time>2010-01-01T02:34:56Z</time>
      </trkpt>
      <trkpt lat="43.34576" lon="6.17907">
        <ele>247</ele>
        <time>2010-01-01T02:35:05Z</time>
      </trkpt>
      <trkpt lat="43.34587" lon="6.17932">
        <ele>247</ele>
        <time>2010-01-01T02:35:14Z</time>
      </trkpt>
      <trkpt lat="43.34589" lon="6.17954">
        <ele>247</ele>
        <time>2010-01-01T02:35:20Z</time>
      </trkpt>
      <trkpt lat="43.34574" lon="6.17965">
        <ele>246</ele>
        <time>2010-01-01T02:35:27Z</time>
      </trkpt>
      <trkpt lat="43.34557" lon="6.17981">
        <ele>246</ele>
        <time>2010-01-01T02:35:35Z</time>
      </trkpt>
      <trkpt lat="43.34542" lon="6.17988">
        <ele>246</ele>
        <time>2010-01-01T02:35:41Z</time>
      </trkpt>
      <trkpt lat="43.3453" lon="6.17996">
        <ele>246</ele>
        <time>2010-01-01T02:35:47Z</time>
      </trkpt>
      <trkpt lat="43.34516" lon="6.18009">
        <ele>246</ele>
        <time>2010-01-01T02:35:53Z</time>
      </trkpt>
      <trkpt lat="43.34518" lon="6.18035">
        <ele>245</ele>
        <time>2010-01-01T02:36:01Z</time>
      </trkpt>
      <trkpt lat="43.34524" lon="6.1806">
        <ele>245</ele>
        <time>2010-01-01T02:36:08Z</time>
      </trkpt>
      <trkpt lat="43.34532" lon="6.18091">
        <ele>246</ele>
        <time>2010-01-01T02:36:18Z</time>
      </trkpt>
      <trkpt lat="43.34539" lon="6.18119">
        <ele>246</ele>
        <time>2010-01-01T02:36:27Z</time>
      </trkpt>
      <trkpt lat="43.34548" lon="6.1815">
        <ele>247</ele>
        <time>2010-01-01T02:36:36Z</time>
      </trkpt>
      <trkpt lat="43.34551" lon="6.18163">
        <ele>247</ele>
        <time>2010-01-01T02:36:41Z</time>
      </trkpt>
      <trkpt lat="43.34557" lon="6.18174">
        <ele>248</ele>
        <time>2010-01-01T02:36:44Z</time>
      </trkpt>
      <trkpt lat="43.34567" lon="6.18178">
        <ele>248</ele>
        <time>2010-01-01T02:36:49Z</time>
      </trkpt>
      <trkpt lat="43.34578" lon="6.18186">
        <ele>248</ele>
        <time>2010-01-01T02:36:54Z</time>
      </trkpt>
      <trkpt lat="43.34578" lon="6.18187">
        <ele>248</ele>
        <time>2010-01-01T02:36:54Z</time>
      </trkpt>
      <trkpt lat="43.34585" lon="6.18213">
        <ele>247</ele>
        <time>2010-01-01T02:37:02Z</time>
      </trkpt>
      <trkpt lat="43.34603" lon="6.18261">
        <ele>247</ele>
        <time>2010-01-01T02:37:18Z</time>
      </trkpt>
      <trkpt lat="43.34616" lon="6.18301">
        <ele>247</ele>
        <time>2010-01-01T02:37:31Z</time>
      </trkpt>
      <trkpt lat="43.34625" lon="6.18326">
        <ele>248</ele>
        <time>2010-01-01T02:37:39Z</time>
      </trkpt>
      <trkpt lat="43.34626" lon="6.18328">
        <ele>248</ele>
        <time>2010-01-01T02:37:39Z</time>
      </trkpt>
      <trkpt lat="43.34631" lon="6.18344">
        <ele>248</ele>
        <time>2010-01-01T02:37:44Z</time>
      </trkpt>
      <trkpt lat="43.34631" lon="6.18346">
        <ele>248</ele>
        <time>2010-01-01T02:37:45Z</time>
      </trkpt>
      <trkpt lat="43.34641" lon="6.18369">
        <ele>248</ele>
        <time>2010-01-01T02:37:53Z</time>
      </trkpt>
      <trkpt lat="43.34651" lon="6.18398">
        <ele>248</ele>
        <time>2010-01-01T02:38:02Z</time>
      </trkpt>
      <trkpt lat="43.34672" lon="6.18405">
        <ele>247</ele>
        <time>2010-01-01T02:38:11Z</time>
      </trkpt>
      <trkpt lat="43.34695" lon="6.18398">
        <ele>247</ele>
        <time>2010-01-01T02:38:20Z</time>
      </trkpt>
      <trkpt lat="43.34722" lon="6.18397">
        <ele>247</ele>
        <time>2010-01-01T02:38:31Z</time>
      </trkpt>
      <trkpt lat="43.34746" lon="6.18399">
        <ele>247</ele>
        <time>2010-01-01T02:38:41Z</time>
      </trkpt>
      <trkpt lat="43.34756" lon="6.184">
        <ele>247</ele>
        <time>2010-01-01T02:38:45Z</time>
      </trkpt>
      <trkpt lat="43.34747" lon="6.18445">
        <ele>247</ele>
        <time>2010-01-01T02:38:58Z</time>
      </trkpt>
      <trkpt lat="43.34744" lon="6.18479">
        <ele>246</ele>
        <time>2010-01-01T02:39:08Z</time>
      </trkpt>
      <trkpt lat="43.34737" lon="6.18522">
        <ele>246</ele>
        <time>2010-01-01T02:39:21Z</time>
      </trkpt>
      <trkpt lat="43.34726" lon="6.18544">
        <ele>246</ele>
        <time>2010-01-01T02:39:29Z</time>
      </trkpt>
      <trkpt lat="43.34711" lon="6.18549">
        <ele>246</ele>
        <time>2010-01-01T02:39:35Z</time>
      </trkpt>
      <trkpt lat="43.34701" lon="6.18555">
        <ele>246</ele>
        <time>2010-01-01T02:39:39Z</time>
      </trkpt>
      <trkpt lat="43.3468" lon="6.18558">
        <ele>246</ele>
        <time>2010-01-01T02:39:48Z</time>
      </trkpt>
      <trkpt lat="43.34657" lon="6.1856">
        <ele>247</ele>
        <time>2010-01-01T02:39:57Z</time>
      </trkpt>
      <trkpt lat="43.34635" lon="6.18566">
        <ele>247</ele>
        <time>2010-01-01T02:40:06Z</time>
      </trkpt>
      <trkpt lat="43.34618" lon="6.18572">
        <ele>247</ele>
        <time>2010-01-01T02:40:13Z</time>
      </trkpt>
      <trkpt lat="43.34604" lon="6.18578">
        <ele>247</ele>
        <time>2010-01-01T02:40:19Z</time>
      </trkpt>
      <trkpt lat="43.34598" lon="6.18593">
        <ele>247</ele>
        <time>2010-01-01T02:40:24Z</time>
      </trkpt>
      <trkpt lat="43.34606" lon="6.18624">
        <ele>246</ele>
        <time>2010-01-01T02:40:34Z</time>
      </trkpt>
      <trkpt lat="43.34615" lon="6.1865">
        <ele>246</ele>
        <time>2010-01-01T02:40:42Z</time>
      </trkpt>
      <trkpt lat="43.34614" lon="6.18682">
        <ele>245</ele>
        <time>2010-01-01T02:40:51Z</time>
      </trkpt>
      <trkpt lat="43.34613" lon="6.18715">
        <ele>245</ele>
        <time>2010-01-01T02:41:01Z</time>
      </trkpt>
      <trkpt lat="43.34618" lon="6.18745">
        <ele>245</ele>
        <time>2010-01-01T02:41:10Z</time>
      </trkpt>
      <trkpt lat="43.34624" lon="6.18786">
        <ele>245</ele>
        <time>2010-01-01T02:41:22Z</time>
      </trkpt>
      <trkpt lat="43.34625" lon="6.18789">
        <ele>245</ele>
        <time>2010-01-01T02:41:23Z</time>
      </trkpt>
      <trkpt lat="43.34626" lon="6.18794">
        <ele>245</ele>
        <time>2010-01-01T02:41:24Z</time>
      </trkpt>
      <trkpt lat="43.34628" lon="6.188">
        <ele>245</ele>
        <time>2010-01-01T02:41:27Z</time>
      </trkpt>
      <trkpt lat="43.34629" lon="6.18802">
        <ele>245</ele>
        <time>2010-01-01T02:41:27Z</time>
      </trkpt>
      <trkpt lat="43.3466" lon="6.18834">
        <ele>245</ele>
        <time>2010-01-01T02:41:43Z</time>
      </trkpt>
      <trkpt lat="43.34674" lon="6.18873">
        <ele>246</ele>
        <time>2010-01-01T02:41:55Z</time>
      </trkpt>
      <trkpt lat="43.34686" lon="6.18902">
        <ele>245</ele>
        <time>2010-01-01T02:42:05Z</time>
      </trkpt>
      <trkpt lat="43.34691" lon="6.18925">
        <ele>245</ele>
        <time>2010-01-01T02:42:12Z</time>
      </trkpt>
      <trkpt lat="43.34703" lon="6.18964">
        <ele>246</ele>
        <time>2010-01-01T02:42:24Z</time>
      </trkpt>
      <trkpt lat="43.34712" lon="6.18997">
        <ele>246</ele>
        <time>2010-01-01T02:42:35Z</time>
      </trkpt>
      <trkpt lat="43.34722" lon="6.19039">
        <ele>250</ele>
        <time>2010-01-01T02:42:47Z</time>
      </trkpt>
      <trkpt lat="43.34727" lon="6.19065">
        <ele>250</ele>
        <time>2010-01-01T02:42:55Z</time>
      </trkpt>
      <trkpt lat="43.34728" lon="6.19068">
        <ele>250</ele>
        <time>2010-01-01T02:42:56Z</time>
      </trkpt>
      <trkpt lat="43.34741" lon="6.191">
        <ele>253</ele>
        <time>2010-01-01T02:43:07Z</time>
      </trkpt>
      <trkpt lat="43.34752" lon="6.19137">
        <ele>250</ele>
        <time>2010-01-01T02:43:19Z</time>
      </trkpt>
      <trkpt lat="43.34762" lon="6.19168">
        <ele>253</ele>
        <time>2010-01-01T02:43:28Z</time>
      </trkpt>
      <trkpt lat="43.34778" lon="6.19206">
        <ele>251</ele>
        <time>2010-01-01T02:43:41Z</time>
      </trkpt>
      <trkpt lat="43.34778" lon="6.19233">
        <ele>251</ele>
        <time>2010-01-01T02:43:49Z</time>
      </trkpt>
      <trkpt lat="43.34777" lon="6.19267">
        <ele>251</ele>
        <time>2010-01-01T02:43:59Z</time>
      </trkpt>
      <trkpt lat="43.34778" lon="6.19294">
        <ele>251</ele>
        <time>2010-01-01T02:44:07Z</time>
      </trkpt>
      <trkpt lat="43.34781" lon="6.19325">
        <ele>251</ele>
        <time>2010-01-01T02:44:16Z</time>
      </trkpt>
      <trkpt lat="43.34782" lon="6.1933">
        <ele>250</ele>
        <time>2010-01-01T02:44:17Z</time>
      </trkpt>
      <trkpt lat="43.34784" lon="6.19334">
        <ele>252</ele>
        <time>2010-01-01T02:44:19Z</time>
      </trkpt>
      <trkpt lat="43.34788" lon="6.1937">
        <ele>252</ele>
        <time>2010-01-01T02:44:30Z</time>
      </trkpt>
      <trkpt lat="43.34795" lon="6.194">
        <ele>253</ele>
        <time>2010-01-01T02:44:39Z</time>
      </trkpt>
      <trkpt lat="43.34808" lon="6.19436">
        <ele>254</ele>
        <time>2010-01-01T02:44:50Z</time>
      </trkpt>
      <trkpt lat="43.3481" lon="6.19441">
        <ele>254</ele>
        <time>2010-01-01T02:44:52Z</time>
      </trkpt>
      <trkpt lat="43.34812" lon="6.19448">
        <ele>255</ele>
        <time>2010-01-01T02:44:54Z</time>
      </trkpt>
      <trkpt lat="43.34822" lon="6.19486">
        <ele>253</ele>
        <time>2010-01-01T02:45:06Z</time>
      </trkpt>
      <trkpt lat="43.34843" lon="6.19536">
        <ele>245</ele>
        <time>2010-01-01T02:45:23Z</time>
      </trkpt>
      <trkpt lat="43.34861" lon="6.19543">
        <ele>245</ele>
        <time>2010-01-01T02:45:30Z</time>
      </trkpt>
      <trkpt lat="43.34873" lon="6.19548">
        <ele>244</ele>
        <time>2010-01-01T02:45:35Z</time>
      </trkpt>
      <trkpt lat="43.34888" lon="6.19555">
        <ele>243</ele>
        <time>2010-01-01T02:45:42Z</time>
      </trkpt>
      <trkpt lat="43.34906" lon="6.19582">
        <ele>242</ele>
        <time>2010-01-01T02:45:52Z</time>
      </trkpt>
      <trkpt lat="43.34925" lon="6.19619">
        <ele>241</ele>
        <time>2010-01-01T02:46:05Z</time>
      </trkpt>
      <trkpt lat="43.3494" lon="6.19645">
        <ele>241</ele>
        <time>2010-01-01T02:46:15Z</time>
      </trkpt>
      <trkpt lat="43.34954" lon="6.19681">
        <ele>241</ele>
        <time>2010-01-01T02:46:27Z</time>
      </trkpt>
      <trkpt lat="43.34965" lon="6.19712">
        <ele>241</ele>
        <time>2010-01-01T02:46:37Z</time>
      </trkpt>
      <trkpt lat="43.3497" lon="6.19729">
        <ele>241</ele>
        <time>2010-01-01T02:46:43Z</time>
      </trkpt>
      <trkpt lat="43.34974" lon="6.19756">
        <ele>241</ele>
        <time>2010-01-01T02:46:50Z</time>
      </trkpt>
      <trkpt lat="43.34976" lon="6.19783">
        <ele>241</ele>
        <time>2010-01-01T02:46:58Z</time>
      </trkpt>
      <trkpt lat="43.3498" lon="6.19811">
        <ele>242</ele>
        <time>2010-01-01T02:47:07Z</time>
      </trkpt>
      <trkpt lat="43.34982" lon="6.19817">
        <ele>242</ele>
        <time>2010-01-01T02:47:09Z</time>
      </trkpt>
      <trkpt lat="43.34987" lon="6.19837">
        <ele>242</ele>
        <time>2010-01-01T02:47:15Z</time>
      </trkpt>
      <trkpt lat="43.35005" lon="6.19841">
        <ele>241</ele>
        <time>2010-01-01T02:47:22Z</time>
      </trkpt>
      <trkpt lat="43.35023" lon="6.19844">
        <ele>241</ele>
        <time>2010-01-01T02:47:29Z</time>
      </trkpt>
      <trkpt lat="43.35043" lon="6.19848">
        <ele>240</ele>
        <time>2010-01-01T02:47:38Z</time>
      </trkpt>
      <trkpt lat="43.35074" lon="6.1985">
        <ele>240</ele>
        <time>2010-01-01T02:47:50Z</time>
      </trkpt>
      <trkpt lat="43.35099" lon="6.19848">
        <ele>241</ele>
        <time>2010-01-01T02:48:00Z</time>
      </trkpt>
      <trkpt lat="43.35128" lon="6.1984">
        <ele>242</ele>
        <time>2010-01-01T02:48:12Z</time>
      </trkpt>
      <trkpt lat="43.35155" lon="6.19837">
        <ele>243</ele>
        <time>2010-01-01T02:48:23Z</time>
      </trkpt>
      <trkpt lat="43.3518" lon="6.19826">
        <ele>246</ele>
        <time>2010-01-01T02:48:33Z</time>
      </trkpt>
      <trkpt lat="43.35206" lon="6.19798">
        <ele>248</ele>
        <time>2010-01-01T02:48:47Z</time>
      </trkpt>
      <trkpt lat="43.3523" lon="6.19755">
        <ele>249</ele>
        <time>2010-01-01T02:49:02Z</time>
      </trkpt>
      <trkpt lat="43.35253" lon="6.19731">
        <ele>250</ele>
        <time>2010-01-01T02:49:14Z</time>
      </trkpt>
      <trkpt lat="43.35278" lon="6.19705">
        <ele>249</ele>
        <time>2010-01-01T02:49:26Z</time>
      </trkpt>
      <trkpt lat="43.35302" lon="6.1969">
        <ele>249</ele>
        <time>2010-01-01T02:49:37Z</time>
      </trkpt>
      <trkpt lat="43.35336" lon="6.19669">
        <ele>247</ele>
        <time>2010-01-01T02:49:52Z</time>
      </trkpt>
      <trkpt lat="43.3537" lon="6.1965">
        <ele>243</ele>
        <time>2010-01-01T02:50:06Z</time>
      </trkpt>
      <trkpt lat="43.35397" lon="6.19656">
        <ele>243</ele>
        <time>2010-01-01T02:50:17Z</time>
      </trkpt>
      <trkpt lat="43.35421" lon="6.19672">
        <ele>245</ele>
        <time>2010-01-01T02:50:28Z</time>
      </trkpt>
      <trkpt lat="43.35441" lon="6.19684">
        <ele>245</ele>
        <time>2010-01-01T02:50:37Z</time>
      </trkpt>
      <trkpt lat="43.35456" lon="6.19712">
        <ele>247</ele>
        <time>2010-01-01T02:50:47Z</time>
      </trkpt>
      <trkpt lat="43.35467" lon="6.19723">
        <ele>247</ele>
        <time>2010-01-01T02:50:52Z</time>
      </trkpt>
      <trkpt lat="43.35478" lon="6.19734">
        <ele>247</ele>
        <time>2010-01-01T02:50:58Z</time>
      </trkpt>
      <trkpt lat="43.35493" lon="6.19739">
        <ele>248</ele>
        <time>2010-01-01T02:51:04Z</time>
      </trkpt>
      <trkpt lat="43.35504" lon="6.19742">
        <ele>247</ele>
        <time>2010-01-01T02:51:09Z</time>
      </trkpt>
      <trkpt lat="43.35519" lon="6.19739">
        <ele>245</ele>
        <time>2010-01-01T02:51:14Z</time>
      </trkpt>
      <trkpt lat="43.35529" lon="6.19737">
        <ele>244</ele>
        <time>2010-01-01T02:51:19Z</time>
      </trkpt>
      <trkpt lat="43.35541" lon="6.19733">
        <ele>244</ele>
        <time>2010-01-01T02:51:23Z</time>
      </trkpt>
      <trkpt lat="43.35557" lon="6.19729">
        <ele>243</ele>
        <time>2010-01-01T02:51:30Z</time>
      </trkpt>
      <trkpt lat="43.35577" lon="6.19735">
        <ele>243</ele>
        <time>2010-01-01T02:51:38Z</time>
      </trkpt>
      <trkpt lat="43.35589" lon="6.19747">
        <ele>243</ele>
        <time>2010-01-01T02:51:44Z</time>
      </trkpt>
      <trkpt lat="43.35605" lon="6.19759">
        <ele>245</ele>
        <time>2010-01-01T02:51:51Z</time>
      </trkpt>
      <trkpt lat="43.35617" lon="6.19776">
        <ele>245</ele>
        <time>2010-01-01T02:51:58Z</time>
      </trkpt>
      <trkpt lat="43.35629" lon="6.19795">
        <ele>245</ele>
        <time>2010-01-01T02:52:06Z</time>
      </trkpt>
      <trkpt lat="43.35637" lon="6.19812">
        <ele>245</ele>
        <time>2010-01-01T02:52:12Z</time>
      </trkpt>
      <trkpt lat="43.35649" lon="6.19834">
        <ele>247</ele>
        <time>2010-01-01T02:52:20Z</time>
      </trkpt>
      <trkpt lat="43.35661" lon="6.19862">
        <ele>249</ele>
        <time>2010-01-01T02:52:29Z</time>
      </trkpt>
      <trkpt lat="43.35671" lon="6.19891">
        <ele>242</ele>
        <time>2010-01-01T02:52:38Z</time>
      </trkpt>
      <trkpt lat="43.35678" lon="6.19911">
        <ele>243</ele>
        <time>2010-01-01T02:52:45Z</time>
      </trkpt>
      <trkpt lat="43.35683" lon="6.19942">
        <ele>244</ele>
        <time>2010-01-01T02:52:54Z</time>
      </trkpt>
      <trkpt lat="43.35699" lon="6.19984">
        <ele>244</ele>
        <time>2010-01-01T02:53:08Z</time>
      </trkpt>
      <trkpt lat="43.35706" lon="6.2001">
        <ele>247</ele>
        <time>2010-01-01T02:53:16Z</time>
      </trkpt>
      <trkpt lat="43.35712" lon="6.20038">
        <ele>247</ele>
        <time>2010-01-01T02:53:25Z</time>
      </trkpt>
      <trkpt lat="43.35713" lon="6.20045">
        <ele>247</ele>
        <time>2010-01-01T02:53:27Z</time>
      </trkpt>
      <trkpt lat="43.3572" lon="6.20074">
        <ele>247</ele>
        <time>2010-01-01T02:53:36Z</time>
      </trkpt>
      <trkpt lat="43.35723" lon="6.20097">
        <ele>251</ele>
        <time>2010-01-01T02:53:42Z</time>
      </trkpt>
      <trkpt lat="43.35723" lon="6.201">
        <ele>251</ele>
        <time>2010-01-01T02:53:43Z</time>
      </trkpt>
      <trkpt lat="43.35728" lon="6.20118">
        <ele>252</ele>
        <time>2010-01-01T02:53:49Z</time>
      </trkpt>
      <trkpt lat="43.35737" lon="6.20135">
        <ele>252</ele>
        <time>2010-01-01T02:53:55Z</time>
      </trkpt>
      <trkpt lat="43.35754" lon="6.20163">
        <ele>243</ele>
        <time>2010-01-01T02:54:06Z</time>
      </trkpt>
      <trkpt lat="43.3577" lon="6.20193">
        <ele>243</ele>
        <time>2010-01-01T02:54:16Z</time>
      </trkpt>
      <trkpt lat="43.35773" lon="6.20215">
        <ele>244</ele>
        <time>2010-01-01T02:54:23Z</time>
      </trkpt>
      <trkpt lat="43.35778" lon="6.2024">
        <ele>245</ele>
        <time>2010-01-01T02:54:30Z</time>
      </trkpt>
      <trkpt lat="43.35779" lon="6.20245">
        <ele>245</ele>
        <time>2010-01-01T02:54:32Z</time>
      </trkpt>
      <trkpt lat="43.35782" lon="6.2025">
        <ele>247</ele>
        <time>2010-01-01T02:54:34Z</time>
      </trkpt>
      <trkpt lat="43.35797" lon="6.20282">
        <ele>245</ele>
        <time>2010-01-01T02:54:45Z</time>
      </trkpt>
      <trkpt lat="43.35799" lon="6.20286">
        <ele>245</ele>
        <time>2010-01-01T02:54:46Z</time>
      </trkpt>
      <trkpt lat="43.358" lon="6.20292">
        <ele>245</ele>
        <time>2010-01-01T02:54:48Z</time>
      </trkpt>
      <trkpt lat="43.35811" lon="6.20313">
        <ele>245</ele>
        <time>2010-01-01T02:54:56Z</time>
      </trkpt>
      <trkpt lat="43.35816" lon="6.20318">
        <ele>244</ele>
        <time>2010-01-01T02:54:58Z</time>
      </trkpt>
      <trkpt lat="43.35817" lon="6.2032">
        <ele>244</ele>
        <time>2010-01-01T02:54:59Z</time>
      </trkpt>
      <trkpt lat="43.35828" lon="6.2033">
        <ele>243</ele>
        <time>2010-01-01T02:55:04Z</time>
      </trkpt>
      <trkpt lat="43.35838" lon="6.20342">
        <ele>241</ele>
        <time>2010-01-01T02:55:09Z</time>
      </trkpt>
      <trkpt lat="43.35852" lon="6.20353">
        <ele>241</ele>
        <time>2010-01-01T02:55:16Z</time>
      </trkpt>
      <trkpt lat="43.35872" lon="6.20377">
        <ele>240</ele>
        <time>2010-01-01T02:55:26Z</time>
      </trkpt>
      <trkpt lat="43.35876" lon="6.20403">
        <ele>240</ele>
        <time>2010-01-01T02:55:34Z</time>
      </trkpt>
      <trkpt lat="43.35885" lon="6.20428">
        <ele>239</ele>
        <time>2010-01-01T02:55:42Z</time>
      </trkpt>
      <trkpt lat="43.35894" lon="6.20439">
        <ele>239</ele>
        <time>2010-01-01T02:55:47Z</time>
      </trkpt>
      <trkpt lat="43.35912" lon="6.20437">
        <ele>238</ele>
        <time>2010-01-01T02:55:55Z</time>
      </trkpt>
      <trkpt lat="43.35929" lon="6.20437">
        <ele>236</ele>
        <time>2010-01-01T02:56:01Z</time>
      </trkpt>
      <trkpt lat="43.35939" lon="6.2045">
        <ele>235</ele>
        <time>2010-01-01T02:56:07Z</time>
      </trkpt>
      <trkpt lat="43.35945" lon="6.20474">
        <ele>235</ele>
        <time>2010-01-01T02:56:14Z</time>
      </trkpt>
      <trkpt lat="43.35954" lon="6.20504">
        <ele>235</ele>
        <time>2010-01-01T02:56:24Z</time>
      </trkpt>
      <trkpt lat="43.35956" lon="6.20523">
        <ele>235</ele>
        <time>2010-01-01T02:56:29Z</time>
      </trkpt>
      <trkpt lat="43.35947" lon="6.20548">
        <ele>235</ele>
        <time>2010-01-01T02:56:37Z</time>
      </trkpt>
      <trkpt lat="43.35938" lon="6.20575">
        <ele>234</ele>
        <time>2010-01-01T02:56:46Z</time>
      </trkpt>
      <trkpt lat="43.35936" lon="6.20605">
        <ele>234</ele>
        <time>2010-01-01T02:56:55Z</time>
      </trkpt>
      <trkpt lat="43.35944" lon="6.20649">
        <ele>233</ele>
        <time>2010-01-01T02:57:08Z</time>
      </trkpt>
      <trkpt lat="43.3595" lon="6.20671">
        <ele>233</ele>
        <time>2010-01-01T02:57:15Z</time>
      </trkpt>
      <trkpt lat="43.3597" lon="6.20682">
        <ele>233</ele>
        <time>2010-01-01T02:57:23Z</time>
      </trkpt>
      <trkpt lat="43.35983" lon="6.20713">
        <ele>233</ele>
        <time>2010-01-01T02:57:34Z</time>
      </trkpt>
      <trkpt lat="43.35983" lon="6.20719">
        <ele>233</ele>
        <time>2010-01-01T02:57:35Z</time>
      </trkpt>
      <trkpt lat="43.35984" lon="6.2072">
        <ele>233</ele>
        <time>2010-01-01T02:57:36Z</time>
      </trkpt>
      <trkpt lat="43.35996" lon="6.20779">
        <ele>233</ele>
        <time>2010-01-01T02:57:54Z</time>
      </trkpt>
      <trkpt lat="43.36008" lon="6.20832">
        <ele>233</ele>
        <time>2010-01-01T02:58:10Z</time>
      </trkpt>
      <trkpt lat="43.36014" lon="6.20865">
        <ele>233</ele>
        <time>2010-01-01T02:58:20Z</time>
      </trkpt>
      <trkpt lat="43.36018" lon="6.20904">
        <ele>233</ele>
        <time>2010-01-01T02:58:31Z</time>
      </trkpt>
      <trkpt lat="43.36016" lon="6.20955">
        <ele>233</ele>
        <time>2010-01-01T02:58:46Z</time>
      </trkpt>
      <trkpt lat="43.36019" lon="6.20999">
        <ele>233</ele>
        <time>2010-01-01T02:58:59Z</time>
      </trkpt>
      <trkpt lat="43.36027" lon="6.21035">
        <ele>233</ele>
        <time>2010-01-01T02:59:10Z</time>
      </trkpt>
      <trkpt lat="43.36039" lon="6.21084">
        <ele>233</ele>
        <time>2010-01-01T02:59:25Z</time>
      </trkpt>
      <trkpt lat="43.36049" lon="6.21115">
        <ele>233</ele>
        <time>2010-01-01T02:59:35Z</time>
      </trkpt>
      <trkpt lat="43.36064" lon="6.2115">
        <ele>233</ele>
        <time>2010-01-01T02:59:46Z</time>
      </trkpt>
      <trkpt lat="43.36078" lon="6.21186">
        <ele>233</ele>
        <time>2010-01-01T02:59:59Z</time>
      </trkpt>
      <trkpt lat="43.36091" lon="6.2123">
        <ele>236</ele>
        <time>2010-01-01T03:00:12Z</time>
      </trkpt>
      <trkpt lat="43.36101" lon="6.21268">
        <ele>235</ele>
        <time>2010-01-01T03:00:24Z</time>
      </trkpt>
      <trkpt lat="43.36102" lon="6.2127">
        <ele>235</ele>
        <time>2010-01-01T03:00:25Z</time>
      </trkpt>
      <trkpt lat="43.36106" lon="6.21295">
        <ele>236</ele>
        <time>2010-01-01T03:00:32Z</time>
      </trkpt>
      <trkpt lat="43.36106" lon="6.21299">
        <ele>236</ele>
        <time>2010-01-01T03:00:33Z</time>
      </trkpt>
      <trkpt lat="43.36106" lon="6.21304">
        <ele>236</ele>
        <time>2010-01-01T03:00:35Z</time>
      </trkpt>
      <trkpt lat="43.36105" lon="6.21326">
        <ele>235</ele>
        <time>2010-01-01T03:00:41Z</time>
      </trkpt>
      <trkpt lat="43.36093" lon="6.21351">
        <ele>234</ele>
        <time>2010-01-01T03:00:50Z</time>
      </trkpt>
      <trkpt lat="43.36088" lon="6.21376">
        <ele>233</ele>
        <time>2010-01-01T03:00:58Z</time>
      </trkpt>
      <trkpt lat="43.3609" lon="6.21408">
        <ele>233</ele>
        <time>2010-01-01T03:01:07Z</time>
      </trkpt>
      <trkpt lat="43.36099" lon="6.21431">
        <ele>232</ele>
        <time>2010-01-01T03:01:14Z</time>
      </trkpt>
      <trkpt lat="43.36114" lon="6.21466">
        <ele>232</ele>
        <time>2010-01-01T03:01:26Z</time>
      </trkpt>
      <trkpt lat="43.36122" lon="6.21502">
        <ele>232</ele>
        <time>2010-01-01T03:01:37Z</time>
      </trkpt>
      <trkpt lat="43.3612" lon="6.21512">
        <ele>232</ele>
        <time>2010-01-01T03:01:40Z</time>
      </trkpt>
      <trkpt lat="43.36112" lon="6.21549">
        <ele>231</ele>
        <time>2010-01-01T03:01:51Z</time>
      </trkpt>
      <trkpt lat="43.36115" lon="6.21593">
        <ele>230</ele>
        <time>2010-01-01T03:02:04Z</time>
      </trkpt>
      <trkpt lat="43.36124" lon="6.21616">
        <ele>230</ele>
        <time>2010-01-01T03:02:12Z</time>
      </trkpt>
      <trkpt lat="43.36139" lon="6.21663">
        <ele>230</ele>
        <time>2010-01-01T03:02:27Z</time>
      </trkpt>
      <trkpt lat="43.36157" lon="6.21701">
        <ele>230</ele>
        <time>2010-01-01T03:02:40Z</time>
      </trkpt>
      <trkpt lat="43.36158" lon="6.21705">
        <ele>230</ele>
        <time>2010-01-01T03:02:41Z</time>
      </trkpt>
      <trkpt lat="43.36163" lon="6.21713">
        <ele>230</ele>
        <time>2010-01-01T03:02:45Z</time>
      </trkpt>
      <trkpt lat="43.36182" lon="6.2175">
        <ele>229</ele>
        <time>2010-01-01T03:02:58Z</time>
      </trkpt>
      <trkpt lat="43.36208" lon="6.2179">
        <ele>229</ele>
        <time>2010-01-01T03:03:13Z</time>
      </trkpt>
      <trkpt lat="43.36223" lon="6.2182">
        <ele>229</ele>
        <time>2010-01-01T03:03:24Z</time>
      </trkpt>
      <trkpt lat="43.36236" lon="6.21844">
        <ele>232</ele>
        <time>2010-01-01T03:03:32Z</time>
      </trkpt>
      <trkpt lat="43.36255" lon="6.21875">
        <ele>229</ele>
        <time>2010-01-01T03:03:44Z</time>
      </trkpt>
      <trkpt lat="43.36277" lon="6.2191">
        <ele>229</ele>
        <time>2010-01-01T03:03:58Z</time>
      </trkpt>
      <trkpt lat="43.36301" lon="6.21954">
        <ele>230</ele>
        <time>2010-01-01T03:04:14Z</time>
      </trkpt>
      <trkpt lat="43.36317" lon="6.21989">
        <ele>229</ele>
        <time>2010-01-01T03:04:26Z</time>
      </trkpt>
      <trkpt lat="43.3632" lon="6.21994">
        <ele>229</ele>
        <time>2010-01-01T03:04:28Z</time>
      </trkpt>
      <trkpt lat="43.36337" lon="6.22021">
        <ele>227</ele>
        <time>2010-01-01T03:04:38Z</time>
      </trkpt>
      <trkpt lat="43.36356" lon="6.22043">
        <ele>227</ele>
        <time>2010-01-01T03:04:48Z</time>
      </trkpt>
      <trkpt lat="43.36392" lon="6.22085">
        <ele>229</ele>
        <time>2010-01-01T03:05:07Z</time>
      </trkpt>
      <trkpt lat="43.36394" lon="6.22087">
        <ele>229</ele>
        <time>2010-01-01T03:05:08Z</time>
      </trkpt>
      <trkpt lat="43.36422" lon="6.22112">
        <ele>229</ele>
        <time>2010-01-01T03:05:21Z</time>
      </trkpt>
      <trkpt lat="43.36431" lon="6.2212">
        <ele>229</ele>
        <time>2010-01-01T03:05:25Z</time>
      </trkpt>
      <trkpt lat="43.3646" lon="6.2215">
        <ele>229</ele>
        <time>2010-01-01T03:05:40Z</time>
      </trkpt>
      <trkpt lat="43.36483" lon="6.22171">
        <ele>229</ele>
        <time>2010-01-01T03:05:51Z</time>
      </trkpt>
      <trkpt lat="43.36503" lon="6.22185">
        <ele>229</ele>
        <time>2010-01-01T03:06:00Z</time>
      </trkpt>
      <trkpt lat="43.36522" lon="6.22202">
        <ele>229</ele>
        <time>2010-01-01T03:06:09Z</time>
      </trkpt>
      <trkpt lat="43.36539" lon="6.22217">
        <ele>229</ele>
        <time>2010-01-01T03:06:17Z</time>
      </trkpt>
      <trkpt lat="43.36563" lon="6.22237">
        <ele>229</ele>
        <time>2010-01-01T03:06:29Z</time>
      </trkpt>
      <trkpt lat="43.36587" lon="6.22254">
        <ele>231</ele>
        <time>2010-01-01T03:06:39Z</time>
      </trkpt>
      <trkpt lat="43.366" lon="6.22266">
        <ele>233</ele>
        <time>2010-01-01T03:06:46Z</time>
      </trkpt>
      <trkpt lat="43.36622" lon="6.2228">
        <ele>234</ele>
        <time>2010-01-01T03:06:55Z</time>
      </trkpt>
      <trkpt lat="43.36642" lon="6.22292">
        <ele>234</ele>
        <time>2010-01-01T03:07:04Z</time>
      </trkpt>
      <trkpt lat="43.36656" lon="6.22296">
        <ele>234</ele>
        <time>2010-01-01T03:07:10Z</time>
      </trkpt>
      <trkpt lat="43.3667" lon="6.22301">
        <ele>233</ele>
        <time>2010-01-01T03:07:16Z</time>
      </trkpt>
      <trkpt lat="43.36682" lon="6.22304">
        <ele>233</ele>
        <time>2010-01-01T03:07:20Z</time>
      </trkpt>
      <trkpt lat="43.36686" lon="6.22323">
        <ele>233</ele>
        <time>2010-01-01T03:07:26Z</time>
      </trkpt>
      <trkpt lat="43.36701" lon="6.22337">
        <ele>239</ele>
        <time>2010-01-01T03:07:33Z</time>
      </trkpt>
      <trkpt lat="43.36719" lon="6.2235">
        <ele>238</ele>
        <time>2010-01-01T03:07:41Z</time>
      </trkpt>
      <trkpt lat="43.36737" lon="6.22376">
        <ele>239</ele>
        <time>2010-01-01T03:07:52Z</time>
      </trkpt>
      <trkpt lat="43.36751" lon="6.22397">
        <ele>235</ele>
        <time>2010-01-01T03:08:00Z</time>
      </trkpt>
      <trkpt lat="43.36752" lon="6.22401">
        <ele>235</ele>
        <time>2010-01-01T03:08:01Z</time>
      </trkpt>
      <trkpt lat="43.36764" lon="6.22424">
        <ele>240</ele>
        <time>2010-01-01T03:08:10Z</time>
      </trkpt>
      <trkpt lat="43.36766" lon="6.22427">
        <ele>240</ele>
        <time>2010-01-01T03:08:11Z</time>
      </trkpt>
      <trkpt lat="43.36772" lon="6.22439">
        <ele>241</ele>
        <time>2010-01-01T03:08:15Z</time>
      </trkpt>
      <trkpt lat="43.36775" lon="6.2244">
        <ele>241</ele>
        <time>2010-01-01T03:08:16Z</time>
      </trkpt>
      <trkpt lat="43.36784" lon="6.22445">
        <ele>241</ele>
        <time>2010-01-01T03:08:20Z</time>
      </trkpt>
      <trkpt lat="43.36798" lon="6.22446">
        <ele>241</ele>
        <time>2010-01-01T03:08:26Z</time>
      </trkpt>
      <trkpt lat="43.36819" lon="6.22433">
        <ele>238</ele>
        <time>2010-01-01T03:08:35Z</time>
      </trkpt>
      <trkpt lat="43.36839" lon="6.22422">
        <ele>235</ele>
        <time>2010-01-01T03:08:44Z</time>
      </trkpt>
      <trkpt lat="43.3686" lon="6.22418">
        <ele>237</ele>
        <time>2010-01-01T03:08:52Z</time>
      </trkpt>
      <trkpt lat="43.36884" lon="6.22422">
        <ele>238</ele>
        <time>2010-01-01T03:09:02Z</time>
      </trkpt>
      <trkpt lat="43.36903" lon="6.22422">
        <ele>237</ele>
        <time>2010-01-01T03:09:09Z</time>
      </trkpt>
      <trkpt lat="43.36921" lon="6.22426">
        <ele>235</ele>
        <time>2010-01-01T03:09:16Z</time>
      </trkpt>
      <trkpt lat="43.3694" lon="6.22428">
        <ele>236</ele>
        <time>2010-01-01T03:09:24Z</time>
      </trkpt>
      <trkpt lat="43.36957" lon="6.22428">
        <ele>236</ele>
        <time>2010-01-01T03:09:31Z</time>
      </trkpt>
      <trkpt lat="43.36978" lon="6.22427">
        <ele>236</ele>
        <time>2010-01-01T03:09:39Z</time>
      </trkpt>
      <trkpt lat="43.37001" lon="6.22419">
        <ele>233</ele>
        <time>2010-01-01T03:09:49Z</time>
      </trkpt>
      <trkpt lat="43.3701" lon="6.22416">
        <ele>233</ele>
        <time>2010-01-01T03:09:53Z</time>
      </trkpt>
      <trkpt lat="43.3699" lon="6.22435">
        <ele>235</ele>
        <time>2010-01-01T03:10:02Z</time>
      </trkpt>
      <trkpt lat="43.36953" lon="6.22453">
        <ele>237</ele>
        <time>2010-01-01T03:10:18Z</time>
      </trkpt>
      <trkpt lat="43.36922" lon="6.22473">
        <ele>240</ele>
        <time>2010-01-01T03:10:32Z</time>
      </trkpt>
      <trkpt lat="43.36906" lon="6.22493">
        <ele>244</ele>
        <time>2010-01-01T03:10:41Z</time>
      </trkpt>
      <trkpt lat="43.36876" lon="6.22499">
        <ele>243</ele>
        <time>2010-01-01T03:10:53Z</time>
      </trkpt>
      <trkpt lat="43.36849" lon="6.22511">
        <ele>252</ele>
        <time>2010-01-01T03:11:04Z</time>
      </trkpt>
      <trkpt lat="43.36832" lon="6.22513">
        <ele>251</ele>
        <time>2010-01-01T03:11:11Z</time>
      </trkpt>
      <trkpt lat="43.36818" lon="6.22513">
        <ele>252</ele>
        <time>2010-01-01T03:11:17Z</time>
      </trkpt>
      <trkpt lat="43.36803" lon="6.22525">
        <ele>253</ele>
        <time>2010-01-01T03:11:23Z</time>
      </trkpt>
      <trkpt lat="43.36802" lon="6.22526">
        <ele>253</ele>
        <time>2010-01-01T03:11:24Z</time>
      </trkpt>
      <trkpt lat="43.36797" lon="6.22537">
        <ele>254</ele>
        <time>2010-01-01T03:11:28Z</time>
      </trkpt>
      <trkpt lat="43.36786" lon="6.22555">
        <ele>255</ele>
        <time>2010-01-01T03:11:35Z</time>
      </trkpt>
      <trkpt lat="43.36773" lon="6.22577">
        <ele>256</ele>
        <time>2010-01-01T03:11:43Z</time>
      </trkpt>
      <trkpt lat="43.3676" lon="6.22591">
        <ele>262</ele>
        <time>2010-01-01T03:11:49Z</time>
      </trkpt>
      <trkpt lat="43.36752" lon="6.22605">
        <ele>265</ele>
        <time>2010-01-01T03:11:55Z</time>
      </trkpt>
      <trkpt lat="43.36744" lon="6.22609">
        <ele>265</ele>
        <time>2010-01-01T03:11:58Z</time>
      </trkpt>
      <trkpt lat="43.36736" lon="6.22616">
        <ele>267</ele>
        <time>2010-01-01T03:12:02Z</time>
      </trkpt>
      <trkpt lat="43.3672" lon="6.22625">
        <ele>269</ele>
        <time>2010-01-01T03:12:09Z</time>
      </trkpt>
      <trkpt lat="43.3671" lon="6.22638">
        <ele>270</ele>
        <time>2010-01-01T03:12:14Z</time>
      </trkpt>
      <trkpt lat="43.36697" lon="6.22652">
        <ele>271</ele>
        <time>2010-01-01T03:12:21Z</time>
      </trkpt>
      <trkpt lat="43.3668" lon="6.22664">
        <ele>272</ele>
        <time>2010-01-01T03:12:28Z</time>
      </trkpt>
      <trkpt lat="43.36669" lon="6.22675">
        <ele>278</ele>
        <time>2010-01-01T03:12:34Z</time>
      </trkpt>
      <trkpt lat="43.36658" lon="6.22689">
        <ele>285</ele>
        <time>2010-01-01T03:12:40Z</time>
      </trkpt>
      <trkpt lat="43.36646" lon="6.22694">
        <ele>287</ele>
        <time>2010-01-01T03:12:45Z</time>
      </trkpt>
      <trkpt lat="43.36635" lon="6.22701">
        <ele>289</ele>
        <time>2010-01-01T03:12:50Z</time>
      </trkpt>
      <trkpt lat="43.36623" lon="6.22706">
        <ele>291</ele>
        <time>2010-01-01T03:12:55Z</time>
      </trkpt>
      <trkpt lat="43.36615" lon="6.22711">
        <ele>292</ele>
        <time>2010-01-01T03:12:58Z</time>
      </trkpt>
      <trkpt lat="43.36614" lon="6.22711">
        <ele>292</ele>
        <time>2010-01-01T03:12:58Z</time>
      </trkpt>
      <trkpt lat="43.36609" lon="6.22714">
        <ele>292</ele>
        <time>2010-01-01T03:13:01Z</time>
      </trkpt>
      <trkpt lat="43.36602" lon="6.2271">
        <ele>292</ele>
        <time>2010-01-01T03:13:04Z</time>
      </trkpt>
      <trkpt lat="43.36592" lon="6.22707">
        <ele>293</ele>
        <time>2010-01-01T03:13:08Z</time>
      </trkpt>
      <trkpt lat="43.36582" lon="6.22703">
        <ele>296</ele>
        <time>2010-01-01T03:13:12Z</time>
      </trkpt>
      <trkpt lat="43.36574" lon="6.2271">
        <ele>296</ele>
        <time>2010-01-01T03:13:16Z</time>
      </trkpt>
      <trkpt lat="43.36573" lon="6.22711">
        <ele>296</ele>
        <time>2010-01-01T03:13:16Z</time>
      </trkpt>
      <trkpt lat="43.36564" lon="6.22718">
        <ele>296</ele>
        <time>2010-01-01T03:13:20Z</time>
      </trkpt>
      <trkpt lat="43.3656" lon="6.22725">
        <ele>297</ele>
        <time>2010-01-01T03:13:23Z</time>
      </trkpt>
      <trkpt lat="43.36541" lon="6.22729">
        <ele>297</ele>
        <time>2010-01-01T03:13:31Z</time>
      </trkpt>
      <trkpt lat="43.36529" lon="6.22735">
        <ele>297</ele>
        <time>2010-01-01T03:13:36Z</time>
      </trkpt>
      <trkpt lat="43.36518" lon="6.22741">
        <ele>298</ele>
        <time>2010-01-01T03:13:41Z</time>
      </trkpt>
      <trkpt lat="43.36504" lon="6.2276">
        <ele>302</ele>
        <time>2010-01-01T03:13:49Z</time>
      </trkpt>
      <trkpt lat="43.36497" lon="6.22773">
        <ele>300</ele>
        <time>2010-01-01T03:13:54Z</time>
      </trkpt>
      <trkpt lat="43.36482" lon="6.22797">
        <ele>301</ele>
        <time>2010-01-01T03:14:03Z</time>
      </trkpt>
      <trkpt lat="43.36472" lon="6.22825">
        <ele>302</ele>
        <time>2010-01-01T03:14:12Z</time>
      </trkpt>
      <trkpt lat="43.36472" lon="6.22826">
        <ele>302</ele>
        <time>2010-01-01T03:14:12Z</time>
      </trkpt>
      <trkpt lat="43.36462" lon="6.22854">
        <ele>305</ele>
        <time>2010-01-01T03:14:21Z</time>
      </trkpt>
      <trkpt lat="43.36446" lon="6.22883">
        <ele>304</ele>
        <time>2010-01-01T03:14:32Z</time>
      </trkpt>
      <trkpt lat="43.36431" lon="6.2291">
        <ele>304</ele>
        <time>2010-01-01T03:14:41Z</time>
      </trkpt>
      <trkpt lat="43.36415" lon="6.22932">
        <ele>302</ele>
        <time>2010-01-01T03:14:51Z</time>
      </trkpt>
      <trkpt lat="43.364" lon="6.22955">
        <ele>301</ele>
        <time>2010-01-01T03:15:00Z</time>
      </trkpt>
      <trkpt lat="43.36387" lon="6.22972">
        <ele>300</ele>
        <time>2010-01-01T03:15:07Z</time>
      </trkpt>
      <trkpt lat="43.36365" lon="6.22983">
        <ele>299</ele>
        <time>2010-01-01T03:15:16Z</time>
      </trkpt>
      <trkpt lat="43.36349" lon="6.22992">
        <ele>298</ele>
        <time>2010-01-01T03:15:23Z</time>
      </trkpt>
      <trkpt lat="43.36332" lon="6.22999">
        <ele>297</ele>
        <time>2010-01-01T03:15:30Z</time>
      </trkpt>
      <trkpt lat="43.36317" lon="6.23011">
        <ele>295</ele>
        <time>2010-01-01T03:15:37Z</time>
      </trkpt>
      <trkpt lat="43.36293" lon="6.23051">
        <ele>294</ele>
        <time>2010-01-01T03:15:52Z</time>
      </trkpt>
      <trkpt lat="43.36274" lon="6.23089">
        <ele>292</ele>
        <time>2010-01-01T03:16:06Z</time>
      </trkpt>
      <trkpt lat="43.36256" lon="6.23112">
        <ele>292</ele>
        <time>2010-01-01T03:16:15Z</time>
      </trkpt>
      <trkpt lat="43.3624" lon="6.23137">
        <ele>288</ele>
        <time>2010-01-01T03:16:25Z</time>
      </trkpt>
      <trkpt lat="43.36227" lon="6.23161">
        <ele>288</ele>
        <time>2010-01-01T03:16:34Z</time>
      </trkpt>
      <trkpt lat="43.36205" lon="6.23165">
        <ele>287</ele>
        <time>2010-01-01T03:16:43Z</time>
      </trkpt>
      <trkpt lat="43.3619" lon="6.23187">
        <ele>287</ele>
        <time>2010-01-01T03:16:51Z</time>
      </trkpt>
      <trkpt lat="43.36173" lon="6.23213">
        <ele>288</ele>
        <time>2010-01-01T03:17:01Z</time>
      </trkpt>
      <trkpt lat="43.36159" lon="6.23238">
        <ele>287</ele>
        <time>2010-01-01T03:17:11Z</time>
      </trkpt>
      <trkpt lat="43.36149" lon="6.23264">
        <ele>288</ele>
        <time>2010-01-01T03:17:19Z</time>
      </trkpt>
      <trkpt lat="43.36146" lon="6.2329">
        <ele>288</ele>
        <time>2010-01-01T03:17:27Z</time>
      </trkpt>
      <trkpt lat="43.36143" lon="6.23313">
        <ele>289</ele>
        <time>2010-01-01T03:17:34Z</time>
      </trkpt>
      <trkpt lat="43.36141" lon="6.23332">
        <ele>289</ele>
        <time>2010-01-01T03:17:39Z</time>
      </trkpt>
      <trkpt lat="43.36141" lon="6.23334">
        <ele>289</ele>
        <time>2010-01-01T03:17:40Z</time>
      </trkpt>
      <trkpt lat="43.3614" lon="6.23354">
        <ele>289</ele>
        <time>2010-01-01T03:17:46Z</time>
      </trkpt>
      <trkpt lat="43.36131" lon="6.23384">
        <ele>288</ele>
        <time>2010-01-01T03:17:55Z</time>
      </trkpt>
      <trkpt lat="43.36108" lon="6.23377">
        <ele>289</ele>
        <time>2010-01-01T03:18:05Z</time>
      </trkpt>
      <trkpt lat="43.36093" lon="6.2337">
        <ele>289</ele>
        <time>2010-01-01T03:18:11Z</time>
      </trkpt>
      <trkpt lat="43.36071" lon="6.23362">
        <ele>289</ele>
        <time>2010-01-01T03:18:20Z</time>
      </trkpt>
      <trkpt lat="43.36053" lon="6.2336">
        <ele>289</ele>
        <time>2010-01-01T03:18:27Z</time>
      </trkpt>
      <trkpt lat="43.36033" lon="6.23359">
        <ele>289</ele>
        <time>2010-01-01T03:18:35Z</time>
      </trkpt>
      <trkpt lat="43.36011" lon="6.23374">
        <ele>289</ele>
        <time>2010-01-01T03:18:45Z</time>
      </trkpt>
      <trkpt lat="43.35989" lon="6.23406">
        <ele>290</ele>
        <time>2010-01-01T03:18:58Z</time>
      </trkpt>
      <trkpt lat="43.35982" lon="6.23421">
        <ele>290</ele>
        <time>2010-01-01T03:19:03Z</time>
      </trkpt>
      <trkpt lat="43.35988" lon="6.23451">
        <ele>290</ele>
        <time>2010-01-01T03:19:12Z</time>
      </trkpt>
      <trkpt lat="43.35994" lon="6.23483">
        <ele>290</ele>
        <time>2010-01-01T03:19:22Z</time>
      </trkpt>
      <trkpt lat="43.35998" lon="6.23507">
        <ele>290</ele>
        <time>2010-01-01T03:19:29Z</time>
      </trkpt>
      <trkpt lat="43.35991" lon="6.23534">
        <ele>289</ele>
        <time>2010-01-01T03:19:38Z</time>
      </trkpt>
      <trkpt lat="43.35983" lon="6.23556">
        <ele>288</ele>
        <time>2010-01-01T03:19:45Z</time>
      </trkpt>
      <trkpt lat="43.35979" lon="6.23576">
        <ele>288</ele>
        <time>2010-01-01T03:19:51Z</time>
      </trkpt>
      <trkpt lat="43.35968" lon="6.23597">
        <ele>284</ele>
        <time>2010-01-01T03:19:58Z</time>
      </trkpt>
      <trkpt lat="43.35959" lon="6.23613">
        <ele>283</ele>
        <time>2010-01-01T03:20:04Z</time>
      </trkpt>
      <trkpt lat="43.35953" lon="6.23621">
        <ele>282</ele>
        <time>2010-01-01T03:20:07Z</time>
      </trkpt>
      <trkpt lat="43.35942" lon="6.23619">
        <ele>282</ele>
        <time>2010-01-01T03:20:12Z</time>
      </trkpt>
    </trkseg>
  </trk>
</gpx>